GFSGBSN_sfc_thetae_000.txt.gz
Theta_e
316 316 315 315 316 316 316 316 316 316 316 316 316 317 317 317 317 318 318 319 318 318 319 320 322 324 316 308 308 321 356 355 334 320 316 312 312 313 309 310 314 318 321 324 326 323 323
315 315 315 316 315 315 315 315 315 315 315 316 317 317 317 317 317 318 318 318 318 317 318 320 323 323 310 299 314 321 328 325 319 314 312 313 313 316 311 309 310 322 323 323 324 322 323
314 314 314 315 315 314 315 315 315 315 315 315 316 317 317 317 317 317 317 317 316 317 318 319 323 321 313 304 316 320 317 314 314 314 309 314 316 312 311 309 315 322 317 319 322 323 324
315 315 314 315 315 315 315 315 315 315 315 316 316 316 316 317 317 316 316 315 315 318 319 319 323 317 305 319 320 317 315 313 314 312 313 314 316 312 309 312 312 312 311 306 317 323 325
316 316 316 316 315 315 315 315 315 315 315 315 315 315 315 316 316 315 314 314 316 321 320 323 314 314 309 330 319 319 318 313 310 310 311 317 312 308 310 306 301 305 302 307 311 319 321
316 316 316 315 315 315 315 315 315 315 314 315 314 314 314 314 314 313 313 313 316 320 322 324 323 309 312 317 320 320 317 316 309 308 309 308 305 305 304 301 295 300 304 309 309 314 316
315 315 314 314 315 315 315 315 314 314 314 314 314 314 314 314 313 312 309 305 303 307 318 312 312 312 316 319 323 316 318 315 309 305 300 304 300 299 305 305 306 306 308 309 312 314 319
315 314 314 314 315 314 314 314 314 314 314 314 313 313 313 313 312 311 308 300 302 308 303 314 318 318 320 320 317 317 316 310 304 299 302 300 299 307 311 310 307 305 306 308 312 314 311
315 315 315 315 314 314 314 314 313 313 313 313 313 313 313 312 311 308 306 308 312 307 301 307 312 312 313 316 314 314 312 310 302 300 301 298 303 312 311 309 307 302 306 307 309 314 314
315 315 315 314 314 314 314 314 314 313 313 313 313 313 312 310 302 304 302 305 309 308 295 302 305 310 313 315 309 318 315 311 303 301 302 301 307 309 309 308 306 297 307 313 312 311 303
315 315 314 314 314 313 313 313 313 313 313 313 313 313 311 309 301 302 305 308 308 307 289 308 308 317 312 309 309 309 315 307 303 302 301 300 304 305 305 308 307 304 307 306 313 309 304
314 314 314 314 313 313 313 313 313 313 313 313 312 312 311 305 303 305 309 307 304 296 290 306 308 306 306 307 309 310 309 308 308 303 302 303 310 308 308 311 309 311 305 301 301 299 295
313 313 313 313 313 313 313 313 313 312 312 312 310 309 308 308 297 302 302 301 294 289 304 303 300 304 303 304 306 306 304 302 300 294 295 301 304 308 310 303 306 304 296 291 290 290 290
312 313 313 312 312 312 313 313 313 312 312 310 308 307 306 308 306 305 300 295 289 299 299 304 304 304 300 303 304 306 301 299 301 298 295 295 295 305 307 304 301 300 298 292 288 290 293
312 312 312 312 312 312 312 312 312 311 311 309 307 302 303 306 308 302 297 288 291 297 304 303 302 298 299 302 302 304 300 301 303 301 297 293 295 307 308 309 305 301 296 301 295 296 293
311 312 311 311 312 312 312 311 311 311 311 309 302 298 301 308 309 300 293 290 294 302 304 303 296 299 296 298 299 301 300 303 303 305 302 297 293 302 308 307 306 305 304 296 293 289 287
311 311 311 310 311 311 312 311 311 310 310 308 296 296 305 310 307 296 287 290 297 302 303 301 299 298 300 299 301 300 302 305 307 306 302 301 296 300 302 300 300 302 299 297 297 294 290
311 311 311 310 310 311 311 311 310 309 308 303 294 290 305 310 298 295 291 294 299 298 302 301 303 302 301 302 301 302 301 304 309 308 301 300 295 296 299 305 306 305 301 298 294 292 293
311 311 310 309 310 309 310 310 309 308 308 303 291 293 303 303 292 293 298 301 301 299 298 299 301 304 305 302 299 305 305 311 309 308 304 303 294 294 295 298 301 302 302 301 297 295 293
309 310 310 310 309 309 310 309 308 308 308 305 293 291 297 299 295 295 294 297 299 307 304 305 303 305 303 302 305 303 303 310 311 309 318 310 295 296 295 296 300 299 302 303 299 294 294
309 309 309 310 309 309 309 309 309 308 308 305 295 294 294 290 293 292 292 298 300 301 307 305 302 306 305 298 302 304 310 310 312 314 313 303 295 297 299 304 305 305 304 303 299 299 298
308 308 308 309 309 309 309 309 309 308 308 299 295 294 296 291 292 293 294 295 297 300 303 301 303 308 306 302 307 305 307 303 304 308 304 299 296 299 300 303 305 302 306 306 306 304 303
308 308 308 309 308 309 309 309 309 308 306 297 298 300 295 292 291 291 292 296 297 299 306 309 308 306 305 307 309 309 309 308 308 304 303 299 298 296 294 301 303 300 303 304 305 308 305
308 309 309 309 309 309 308 308 309 309 307 304 300 300 293 290 291 294 295 299 298 300 299 309 308 303 312 311 310 310 307 307 309 307 306 300 297 295 295 295 291 301 309 312 309 310 310
308 308 309 308 308 309 309 309 308 309 309 299 300 300 294 288 294 295 297 296 297 300 301 304 306 308 308 305 301 301 302 303 306 308 308 308 304 299 293 291 296 304 308 309 307 307 313
308 308 308 308 308 308 309 308 308 309 309 301 302 304 298 290 290 297 294 296 292 293 299 303 306 306 307 301 300 295 297 301 302 303 305 308 307 303 299 293 291 299 312 315 311 301 313
307 307 308 308 308 308 308 308 308 308 309 305 301 305 297 293 295 294 292 291 293 293 295 299 298 302 309 299 294 294 295 303 299 297 299 301 302 298 297 295 298 308 314 314 299 301 313
307 307 307 307 308 308 308 308 308 308 308 304 302 305 302 297 298 299 299 294 295 295 293 297 299 302 306 300 297 295 294 298 301 304 303 303 301 299 299 296 293 314 313 308 309 312 314
306 306 306 307 307 307 308 308 308 308 308 307 299 304 305 297 297 302 302 303 302 301 295 292 293 298 303 299 301 301 300 301 299 299 308 303 307 305 305 303 311 314 312 313 314 312 314

GFSGBSN_sfc_thetae_003.txt.gz
Theta_e
315 314 315 315 315 315 315 315 316 316 315 316 316 316 316 316 317 317 318 318 318 317 318 319 320 323 314 304 306 319 352 353 340 321 314 311 310 311 309 310 310 310 318 321 323 321 323
314 315 315 315 315 314 314 315 315 315 315 315 316 316 317 317 316 317 318 318 317 317 318 319 320 323 309 298 311 318 326 334 324 316 312 311 310 314 311 308 306 318 320 320 319 319 321
315 315 315 315 314 314 314 314 314 315 315 315 316 316 316 316 317 316 316 316 316 316 318 320 319 321 312 306 314 314 316 316 311 315 309 311 312 310 310 308 313 321 314 317 318 319 319
315 315 315 314 314 315 314 314 314 315 315 315 315 316 316 316 316 316 316 315 315 317 320 319 321 316 304 315 319 319 313 311 312 310 310 311 315 310 309 311 314 314 310 310 316 321 323
315 314 314 314 314 315 315 314 314 315 315 315 315 315 315 315 315 314 313 314 316 322 320 321 313 311 307 325 321 322 315 311 310 309 310 316 309 307 306 304 301 305 307 306 311 320 320
315 314 314 314 314 314 314 314 314 314 314 314 314 314 314 314 314 313 312 313 314 318 320 322 322 308 310 311 319 317 315 314 309 306 307 305 303 301 301 300 295 306 302 309 310 318 316
314 314 314 313 313 314 314 314 314 314 314 314 314 314 313 314 313 312 309 303 302 303 314 307 306 311 313 317 320 316 315 311 307 303 299 301 298 297 300 304 304 306 304 309 314 315 316
314 314 314 313 313 313 313 314 314 314 314 314 314 313 313 313 312 311 306 299 300 304 297 307 310 311 317 317 312 315 315 308 302 297 299 297 296 302 306 307 305 303 300 303 309 315 315
314 313 313 313 314 314 313 313 313 313 313 313 314 313 313 312 311 306 301 301 306 302 297 304 308 309 311 315 311 311 312 307 301 297 297 294 299 307 308 306 305 300 300 301 306 313 316
313 314 314 314 314 313 312 313 313 313 313 313 313 313 312 310 299 301 301 302 304 303 293 299 303 307 310 312 307 317 313 308 302 300 299 298 303 306 306 305 305 296 305 307 308 308 303
314 314 313 313 313 312 312 313 313 313 313 313 313 312 310 309 301 300 301 303 302 304 287 304 306 313 308 307 307 310 313 307 303 299 299 297 301 301 303 306 307 304 306 304 307 306 304
312 313 312 312 312 312 312 312 312 312 312 312 312 311 309 305 303 304 306 303 301 294 287 302 308 304 303 304 306 306 308 307 307 300 299 300 305 304 304 307 308 309 303 299 299 299 296
312 312 311 311 311 312 312 312 311 311 311 311 310 309 307 307 297 300 300 299 292 287 300 299 299 301 299 300 304 303 302 300 299 293 292 299 301 303 307 302 304 302 295 289 291 293 294
311 311 312 312 311 312 312 311 311 311 310 309 308 307 306 307 305 305 297 293 287 296 295 300 301 301 298 301 302 302 298 299 300 296 294 292 293 301 304 303 300 298 296 290 286 287 293
310 311 312 311 311 311 311 311 311 310 309 308 307 299 300 303 307 300 296 286 290 295 302 300 299 296 296 299 299 300 298 299 302 299 294 290 293 302 305 305 304 299 294 298 291 291 290
311 311 312 311 311 311 310 311 310 310 309 308 301 296 298 307 307 297 292 288 291 300 302 299 293 296 293 295 296 296 296 302 301 301 300 296 291 299 305 305 304 303 302 293 291 287 287
311 311 311 311 310 310 310 310 310 309 308 308 294 292 297 307 301 294 286 288 293 299 299 296 296 295 296 295 297 294 297 302 305 304 302 296 294 295 300 298 299 299 295 294 294 292 289
310 311 311 311 310 310 310 310 309 308 307 304 291 284 300 304 295 290 287 291 298 296 299 297 297 297 295 298 296 296 297 300 307 307 298 298 294 294 295 301 303 301 299 298 295 290 289
310 310 309 310 311 309 309 310 309 307 307 302 293 289 301 299 289 290 294 298 300 299 299 296 295 299 302 299 294 298 300 307 310 306 302 298 291 289 291 294 298 298 299 296 294 293 292
310 309 309 309 310 310 309 309 308 308 307 304 293 287 294 295 292 290 290 292 296 305 303 304 300 303 302 298 301 299 302 308 310 306 317 307 291 296 293 294 298 297 300 299 297 293 292
309 308 308 309 309 309 310 309 309 308 307 303 294 290 292 288 291 290 289 293 296 296 301 304 299 302 304 298 301 302 305 308 312 315 310 302 294 293 300 300 300 300 300 300 298 298 297
308 308 308 308 309 309 309 309 309 308 307 299 292 292 295 293 291 290 290 291 294 295 296 299 299 307 306 300 304 302 304 304 307 308 303 297 294 296 295 299 300 299 302 303 303 299 299
308 308 309 309 309 308 309 309 308 308 304 293 295 297 294 294 291 289 290 293 295 297 299 300 307 304 304 306 309 308 308 307 309 305 302 294 297 292 295 297 300 295 300 302 304 305 303
308 308 308 308 308 308 309 309 309 308 305 301 298 299 295 290 292 291 294 295 295 296 295 301 303 304 308 309 309 308 306 305 306 309 306 299 294 292 295 295 291 298 306 308 308 310 309
308 308 308 308 308 308 308 308 308 309 308 298 300 299 296 292 293 294 295 294 295 295 297 301 305 304 304 303 301 300 302 302 303 307 306 303 296 295 292 291 298 303 308 307 306 305 311
308 308 308 308 308 308 308 307 308 309 308 300 295 301 297 294 290 296 293 293 290 289 291 300 305 303 302 299 300 295 297 300 300 303 306 303 302 299 293 291 292 302 309 314 310 301 312
307 307 307 307 308 308 308 308 308 308 309 301 297 303 299 294 296 294 290 290 293 292 288 296 297 298 307 298 294 292 294 302 299 297 297 300 300 298 296 295 298 308 311 314 300 300 312
307 307 307 307 307 307 307 307 308 308 308 302 297 301 299 296 295 298 298 294 294 292 289 294 295 300 300 298 298 298 294 300 302 304 300 299 301 301 300 296 294 312 311 305 307 308 310
307 306 307 306 306 306 307 307 308 308 308 306 297 302 304 297 295 299 301 302 300 299 294 294 292 298 299 297 298 299 299 298 298 299 309 301 306 303 302 299 307 311 310 313 311 311 310

GFSGBSN_sfc_thetae_006.txt.gz
Theta_e
315 315 315 315 315 315 315 315 315 315 315 315 315 315 315 316 316 316 317 317 318 317 318 319 319 320 313 302 305 313 343 352 342 325 313 309 306 307 307 308 309 307 310 319 322 320 322
315 315 315 314 315 314 314 314 314 314 314 314 314 315 316 316 316 316 317 317 317 316 317 319 320 319 306 299 312 314 327 333 324 315 311 310 309 312 310 309 306 310 317 319 319 319 320
315 315 315 314 314 314 314 314 314 314 314 314 314 314 315 316 315 315 317 316 315 316 318 320 319 320 310 305 313 316 313 319 316 312 309 311 311 309 308 307 310 318 313 317 317 318 322
315 315 315 315 314 314 314 314 314 314 314 315 315 315 314 314 314 315 315 315 314 317 322 320 321 314 303 315 316 320 314 309 311 310 310 310 310 306 307 310 314 311 311 307 315 319 323
315 315 314 314 314 315 315 314 314 314 314 314 315 315 315 315 315 314 313 313 315 321 320 322 313 309 306 324 316 318 314 310 308 308 310 315 309 304 305 304 305 305 304 305 311 318 320
315 314 314 314 313 314 314 314 314 314 314 314 314 314 314 314 314 313 312 313 313 317 320 322 321 308 310 309 314 316 313 312 307 306 306 304 301 300 299 302 299 303 305 304 309 315 317
314 314 313 313 313 314 314 313 313 313 313 314 314 313 313 313 313 311 308 301 300 300 308 305 305 309 311 312 317 314 313 310 305 300 297 299 297 294 300 303 309 306 307 309 311 315 313
314 313 313 313 313 313 312 312 312 313 313 314 313 313 313 313 311 310 303 296 300 300 294 303 305 307 311 313 309 313 313 306 303 297 297 296 294 300 304 305 305 308 303 306 308 314 314
313 313 313 313 312 313 312 312 313 313 313 313 313 312 312 310 310 304 298 296 303 301 293 300 303 304 305 310 306 309 311 305 301 298 295 293 297 304 306 303 302 299 299 299 307 313 315
312 313 313 313 313 313 313 312 312 312 312 312 312 312 310 309 298 300 299 301 301 300 291 297 301 306 308 310 304 314 314 309 300 298 297 295 301 303 303 303 303 296 304 304 307 308 301
313 313 313 313 313 312 312 312 312 312 311 311 311 311 309 308 300 298 299 301 300 299 285 301 303 311 306 303 303 307 312 306 302 299 297 296 298 300 301 303 305 302 305 304 307 304 303
312 312 312 312 312 312 312 311 311 311 311 311 310 310 309 304 300 302 305 301 298 292 285 298 305 302 302 302 303 305 307 307 307 301 297 300 302 302 302 306 308 306 300 298 298 299 294
311 311 311 311 312 312 311 311 311 311 310 309 308 308 307 306 295 300 299 297 289 285 298 296 296 298 298 299 301 301 301 299 297 292 291 296 298 301 304 300 302 299 295 289 289 291 292
312 312 312 312 312 311 311 311 311 310 310 308 306 306 304 305 302 303 295 290 284 293 293 298 298 298 294 298 299 301 297 297 297 296 291 290 290 299 302 301 298 297 296 290 286 287 294
312 312 312 312 312 311 311 311 310 310 309 307 306 298 297 300 306 299 291 283 287 293 299 298 297 293 293 297 298 298 296 296 300 297 293 289 291 300 302 303 303 296 293 297 290 287 289
311 311 311 312 312 311 311 310 310 310 309 307 300 297 294 305 305 295 288 285 288 297 298 295 291 294 290 293 294 294 293 299 299 301 298 295 289 297 301 302 301 300 300 293 289 286 285
311 310 310 310 311 311 311 311 310 309 308 307 293 288 294 305 297 292 283 285 291 296 297 293 293 293 293 292 294 292 295 300 302 301 299 295 291 293 298 297 297 296 294 292 292 290 287
310 310 310 310 311 311 311 310 309 308 307 302 294 283 296 300 292 287 285 288 295 294 296 295 295 295 293 295 292 294 294 298 304 301 296 296 294 291 293 298 301 301 297 295 293 288 289
311 310 310 309 310 309 311 310 309 308 307 301 290 290 298 296 287 288 291 295 297 297 297 297 295 296 296 294 292 295 297 303 304 301 298 297 290 290 290 292 296 295 296 293 292 291 289
309 310 309 309 309 309 310 309 308 308 307 303 292 284 291 292 289 287 286 289 293 301 300 301 299 299 296 295 296 294 297 305 309 308 321 311 290 293 292 294 296 295 298 297 295 290 291
309 310 309 308 308 309 310 310 309 307 307 303 294 287 290 287 290 290 286 290 293 294 299 300 297 299 298 293 297 295 299 302 308 314 306 295 293 294 299 297 298 298 298 298 296 296 295
309 309 308 308 309 309 309 310 309 307 306 299 294 292 292 290 291 287 288 287 292 295 295 295 296 301 300 297 299 298 301 301 303 308 303 296 292 291 296 298 298 297 299 300 300 299 299
309 309 309 309 309 309 309 309 309 307 302 292 292 294 295 292 290 287 287 290 293 295 297 298 298 298 301 303 303 305 305 306 307 304 304 297 292 289 292 294 294 291 298 298 300 300 301
308 308 309 309 309 309 309 309 309 309 304 300 296 296 293 287 292 292 293 294 293 295 293 296 297 295 304 302 304 301 301 305 304 303 306 303 293 290 293 291 286 297 302 303 303 306 306
308 308 308 308 308 308 309 308 308 309 307 300 299 294 293 288 292 293 294 293 293 293 292 296 299 303 299 299 297 296 298 301 304 308 307 305 294 291 289 288 293 303 306 306 306 304 310
308 307 307 307 308 308 308 308 307 308 308 301 295 297 292 288 288 294 292 294 290 289 290 294 302 299 299 297 296 292 293 297 299 303 306 305 303 296 291 289 290 299 308 313 310 300 310
308 308 307 307 307 307 307 307 307 307 308 303 298 302 297 291 294 295 291 290 293 291 289 292 293 296 303 295 293 292 292 299 297 299 300 301 302 298 295 293 297 307 309 313 300 299 310
308 308 307 307 307 307 307 307 308 307 307 303 297 302 297 293 294 297 297 294 293 292 289 293 293 299 299 295 295 294 293 298 299 302 301 301 300 299 298 296 293 309 310 303 308 309 311
308 307 307 307 307 306 307 307 307 307 307 306 296 298 304 295 294 299 299 301 300 299 294 294 290 293 300 295 296 297 297 298 297 298 307 301 305 300 300 299 307 310 307 310 312 312 312

GFSGBSN_sfc_thetae_009.txt.gz
Theta_e
316 315 315 315 314 314 314 315 315 315 315 315 315 315 315 315 316 316 317 317 317 317 317 318 320 320 317 309 311 317 344 351 341 328 317 315 312 312 309 313 315 314 316 321 325 328 329
316 315 315 315 314 313 314 314 314 314 314 314 315 315 316 316 316 316 317 317 317 316 317 319 320 319 313 305 317 321 337 337 335 323 317 316 314 315 313 316 315 315 318 321 325 327 329
316 315 315 314 313 314 314 313 313 313 313 314 314 314 315 315 315 316 316 316 315 316 318 321 320 318 312 310 318 319 323 326 329 322 315 316 317 316 317 314 316 323 319 322 323 326 325
315 315 314 314 314 313 313 313 313 313 313 313 314 314 314 315 315 315 315 315 314 317 320 322 322 320 310 319 320 321 323 318 321 320 318 319 317 314 313 317 321 319 320 315 321 325 327
315 315 314 313 314 314 314 313 312 313 313 313 313 314 314 315 315 314 313 313 315 320 322 322 319 315 313 327 319 323 323 315 315 319 318 317 317 312 313 313 315 316 312 314 317 325 325
314 314 314 313 313 313 314 314 313 313 314 314 314 313 314 314 313 312 311 312 314 320 322 322 323 313 318 315 318 321 321 315 313 313 312 311 310 308 310 311 305 311 313 314 315 320 324
314 314 313 314 313 313 313 313 312 312 313 313 313 313 313 312 312 310 310 308 309 308 314 312 312 314 314 317 319 319 318 315 312 311 306 308 304 302 307 313 315 316 316 315 318 322 321
313 313 313 313 313 312 312 311 312 312 312 312 312 312 312 311 310 310 307 300 304 303 298 304 305 307 312 314 309 314 319 313 310 306 304 304 301 307 310 311 312 316 315 315 317 321 321
313 313 313 313 312 313 313 312 312 312 312 312 312 311 311 310 309 307 302 302 306 306 298 302 305 306 308 310 307 309 315 313 310 307 303 301 304 307 308 308 308 313 314 315 314 318 320
313 313 313 313 313 313 312 312 312 312 312 312 312 311 310 307 303 303 303 307 307 305 298 302 305 309 311 311 306 314 316 314 307 307 304 304 306 305 306 307 310 307 315 317 315 314 309
313 313 313 313 313 313 312 312 311 311 311 311 311 310 309 307 303 302 304 307 307 305 290 304 307 315 313 310 308 309 317 314 308 306 305 303 302 303 304 307 311 310 314 313 315 314 312
313 313 312 312 312 313 312 311 311 311 311 310 310 309 308 305 304 305 307 306 306 298 289 301 309 307 306 308 308 311 311 314 314 308 305 307 307 307 307 311 312 311 310 310 312 311 303
313 314 313 312 313 313 312 311 311 311 310 309 308 307 306 306 301 306 306 303 296 291 301 299 302 304 304 304 306 307 306 306 305 302 302 305 305 307 308 307 312 310 308 300 300 300 299
313 313 313 313 312 312 312 311 311 311 310 308 306 305 306 307 308 308 302 297 289 295 298 302 303 303 300 303 305 305 305 303 309 308 303 300 297 305 308 307 306 307 308 302 296 297 300
313 313 312 312 311 312 312 311 311 310 309 307 305 304 302 305 307 306 297 288 292 296 302 302 303 299 300 302 302 304 304 304 307 308 302 299 299 305 307 309 311 306 303 311 305 300 301
312 311 312 311 311 312 311 311 311 310 309 307 301 299 298 308 309 301 293 289 293 300 303 301 297 300 297 299 299 301 301 306 306 309 312 304 298 304 306 309 308 308 310 302 303 298 296
313 312 311 311 311 311 311 311 311 310 308 307 299 292 302 309 303 297 289 290 294 299 302 299 298 299 300 297 299 299 300 304 306 307 310 308 303 301 304 303 303 304 303 304 306 303 299
312 312 311 311 311 310 310 311 310 308 306 303 297 287 302 306 297 295 292 293 295 298 300 298 301 301 299 299 298 298 298 303 307 307 303 307 304 300 301 306 307 308 306 307 302 301 302
312 311 310 311 310 309 310 310 309 308 307 302 292 293 302 301 291 294 297 296 299 299 300 300 298 301 302 298 296 299 301 306 307 306 307 305 301 297 299 304 306 303 305 307 307 307 305
311 310 310 310 309 309 309 310 309 308 307 303 294 288 296 299 296 294 293 294 295 302 301 303 302 303 303 301 304 301 301 306 308 307 319 313 307 303 298 301 305 301 303 305 305 301 302
310 310 310 310 309 309 309 310 309 308 307 302 295 292 295 293 295 296 294 293 293 293 301 302 303 303 302 299 301 301 304 305 307 313 314 312 304 305 306 308 306 304 302 303 303 305 303
309 309 309 309 309 309 309 310 309 308 305 299 292 293 294 293 294 294 293 292 293 296 297 297 299 301 303 301 302 300 304 305 306 312 313 307 306 302 301 306 305 302 304 304 305 305 306
308 308 309 309 309 309 309 309 309 308 304 297 298 298 293 291 292 291 292 293 294 295 298 300 299 297 298 302 306 308 309 311 312 310 312 313 306 305 301 303 302 299 304 305 306 308 307
308 308 308 308 308 308 308 308 308 308 306 303 298 296 290 286 290 291 294 295 294 295 293 297 298 296 301 306 308 310 306 308 310 312 313 313 310 303 302 301 292 303 309 309 307 308 311
308 308 308 308 308 308 308 308 308 308 307 303 301 297 292 285 290 290 292 294 296 297 294 295 298 301 305 302 302 303 305 306 307 310 311 315 307 301 298 298 303 305 309 306 305 306 312
308 308 308 309 308 308 308 308 308 308 308 305 302 301 295 287 286 291 292 294 291 292 293 295 300 303 305 304 304 299 297 301 303 306 312 312 312 306 303 297 295 307 313 316 315 304 317
308 307 308 308 308 308 308 307 307 307 308 304 304 303 298 289 292 293 290 291 296 294 292 294 295 298 307 305 300 300 299 305 300 302 305 307 306 303 304 301 303 311 313 316 304 309 318
307 308 308 308 307 307 307 307 307 307 307 304 302 303 298 292 293 295 295 292 295 295 290 294 293 299 303 302 303 302 300 305 305 309 306 305 303 301 304 302 299 312 313 310 315 319 320
308 308 307 307 307 307 307 306 306 306 306 306 299 303 304 296 294 299 299 300 300 299 296 296 294 294 299 299 303 303 305 307 306 301 311 303 307 304 306 305 312 313 312 317 322 320 321

GFSGBSN_sfc_thetae_012.txt.gz
Theta_e
317 315 315 315 314 314 315 314 314 314 314 315 315 315 315 316 316 317 317 318 318 317 318 319 320 321 321 315 314 325 344 347 338 336 321 320 316 317 312 316 318 317 319 320 323 326 330
316 316 315 315 314 314 314 314 314 314 314 314 315 315 316 316 316 317 317 317 317 316 317 318 320 321 319 308 321 326 332 336 330 328 320 319 316 318 315 316 317 319 319 320 323 327 331
316 315 315 314 314 314 314 314 313 313 314 314 314 314 315 315 315 316 317 316 315 315 317 319 322 321 317 313 322 324 326 326 329 327 320 320 320 316 317 316 320 321 319 323 325 329 329
315 315 314 314 314 314 313 314 313 313 313 313 314 313 313 314 314 315 315 314 314 317 319 322 323 324 314 323 327 323 325 325 327 330 324 323 321 318 317 321 319 319 320 316 325 328 330
315 315 315 314 315 315 314 313 313 313 313 313 313 313 314 314 314 314 313 313 316 321 322 323 324 323 313 326 323 327 328 321 323 323 323 321 319 316 316 314 315 318 313 315 321 328 328
314 313 314 314 314 314 314 313 313 313 313 313 313 313 313 313 313 311 311 313 319 323 325 327 326 318 321 316 324 323 329 322 320 320 317 316 315 312 313 312 308 312 313 315 316 325 327
314 314 314 313 313 313 314 313 313 312 312 313 313 313 312 312 311 310 311 314 315 316 322 316 316 317 316 321 323 321 325 319 319 316 309 312 308 306 311 315 316 316 316 315 319 326 324
314 314 313 313 313 313 313 313 313 312 312 312 313 312 312 311 310 309 311 307 307 306 303 311 311 312 317 319 311 316 324 315 314 309 311 308 304 311 313 314 314 315 314 315 319 325 324
314 313 313 313 313 313 314 314 313 312 312 312 312 311 311 310 309 310 308 310 311 310 303 308 311 310 312 314 311 313 319 317 312 309 309 306 308 311 311 311 312 315 314 315 317 322 325
314 314 314 314 313 313 314 313 313 312 312 312 312 311 310 308 307 308 309 313 313 311 302 307 308 313 314 315 309 317 319 316 313 309 310 308 311 308 308 308 313 311 317 317 317 317 312
315 314 314 314 314 313 313 313 312 312 311 311 311 310 309 307 307 306 309 311 312 310 294 308 310 320 317 313 313 313 319 316 310 310 311 307 307 306 306 308 312 312 318 317 317 316 316
314 314 314 314 313 313 313 312 312 312 311 311 311 309 308 309 310 309 311 311 312 301 293 304 311 310 310 313 312 313 313 317 317 311 312 310 313 310 309 311 313 316 315 316 316 314 308
314 314 313 313 312 312 312 312 312 311 311 310 309 306 307 309 305 311 311 306 298 295 305 303 305 310 308 307 309 311 309 308 308 304 305 308 308 310 310 308 312 313 312 305 304 304 304
315 314 314 313 313 312 312 312 312 311 311 309 306 304 309 309 313 311 307 299 293 299 301 307 307 308 305 307 308 309 307 305 310 310 306 303 300 308 310 309 308 310 312 306 300 301 305
315 314 314 313 312 312 312 312 311 311 310 308 305 307 306 311 312 310 302 292 296 300 304 303 305 304 305 307 306 308 307 306 308 311 305 304 303 311 310 311 312 309 308 315 309 310 306
315 314 314 313 313 312 312 311 311 311 309 307 304 304 304 311 314 307 297 292 299 302 304 306 301 305 302 305 304 306 307 310 308 312 315 310 303 310 310 311 312 311 315 307 309 302 300
313 313 312 312 312 312 311 311 311 310 308 307 304 297 309 316 313 303 293 296 299 302 303 303 302 303 304 304 305 305 305 309 311 311 315 313 307 306 309 306 306 308 308 310 311 308 303
313 313 313 312 312 312 311 311 310 309 307 305 300 293 309 312 300 300 297 300 297 300 302 302 304 303 303 305 304 304 304 307 311 313 310 314 310 303 303 309 311 311 309 311 305 306 308
312 312 311 311 311 311 310 310 309 308 307 304 297 297 308 307 292 295 300 299 301 300 300 300 300 302 304 303 301 304 305 309 309 309 310 313 308 302 303 306 309 306 309 310 311 312 309
311 311 311 311 310 310 310 310 309 308 307 304 298 292 299 304 301 297 297 297 297 302 301 302 302 303 301 301 305 302 304 307 309 309 322 313 309 305 301 305 308 304 305 308 308 306 307
309 310 310 310 310 310 310 310 309 308 308 304 298 294 299 292 297 299 300 299 296 296 302 304 301 302 301 299 301 301 305 307 310 315 313 310 308 310 309 309 309 307 306 306 305 307 305
309 309 309 309 309 309 309 310 309 308 307 301 294 295 298 295 296 294 294 293 295 297 300 299 301 301 303 301 303 302 304 306 305 309 310 313 309 312 308 310 310 307 309 308 307 307 307
309 309 309 309 309 309 309 309 309 307 305 300 301 300 295 292 291 291 292 294 294 298 300 301 301 301 301 305 308 310 311 312 312 309 310 311 310 310 305 309 309 304 309 310 310 309 308
309 309 309 309 309 309 308 308 308 308 306 303 302 300 291 289 291 290 292 294 294 295 294 298 300 298 304 308 308 309 310 311 311 312 315 313 313 311 306 309 299 309 315 314 312 311 311
308 309 309 309 309 309 309 308 308 308 307 303 304 297 292 287 291 291 291 292 295 296 296 296 298 303 306 303 300 301 303 306 307 310 312 315 313 308 304 302 307 310 315 312 310 309 314
308 308 308 308 309 309 309 308 308 308 308 305 304 304 296 290 290 294 292 293 292 293 294 296 302 305 303 299 300 297 296 301 301 306 314 315 316 310 307 301 299 311 315 319 319 308 316
308 308 308 308 308 308 308 308 308 307 308 305 304 307 299 290 296 296 292 292 296 296 295 297 296 298 306 302 298 299 299 306 300 303 307 310 311 306 307 304 307 315 315 320 307 309 322
307 308 308 308 308 308 308 308 308 307 305 305 302 306 299 293 294 298 299 294 293 293 293 297 295 299 300 301 301 301 302 305 304 309 309 308 307 305 307 305 302 315 316 312 319 326 326
307 307 307 308 307 308 308 307 307 306 305 305 299 308 308 297 295 302 303 304 302 300 296 297 296 297 298 299 304 307 306 309 307 301 315 307 311 308 310 310 316 318 314 319 324 326 327

GFSGBSN_sfc_thetae_015.txt.gz
Theta_e
317 317 316 316 315 315 315 315 315 315 314 315 315 315 315 315 316 316 317 318 318 317 317 318 320 321 323 317 316 331 351 349 342 333 329 324 322 322 320 319 321 319 322 323 323 326 327
316 316 315 315 315 315 314 314 314 314 314 315 314 315 315 316 315 316 317 317 317 316 317 318 320 321 320 310 323 331 327 333 332 330 324 324 322 323 321 319 319 322 322 322 323 325 328
316 315 315 315 315 315 314 314 314 314 313 314 314 315 315 315 314 315 316 315 314 315 317 320 321 323 317 316 323 325 330 328 329 327 324 323 324 319 320 317 322 322 318 323 322 325 325
315 315 315 315 315 314 314 313 314 313 313 313 313 314 314 314 314 314 314 313 313 316 321 322 323 324 315 325 328 324 325 323 327 329 326 325 323 320 319 322 321 318 319 316 322 324 327
315 315 315 315 314 314 314 314 313 314 314 314 314 314 314 314 314 313 312 312 314 322 323 324 326 324 315 327 322 324 324 321 324 325 327 324 322 317 317 314 314 317 312 315 317 325 327
316 316 315 314 314 315 314 315 314 314 313 313 313 313 313 313 312 311 310 312 319 322 326 329 328 320 321 319 324 326 328 325 321 321 319 318 316 313 313 313 307 312 313 316 318 321 326
315 314 314 314 314 314 314 314 314 314 313 313 313 313 312 312 311 310 312 319 318 320 324 319 319 317 319 323 327 322 326 322 320 318 311 314 309 307 311 315 316 317 316 314 319 323 322
316 315 314 314 314 314 314 314 314 314 313 313 313 312 312 311 310 309 313 312 311 310 305 313 314 316 320 322 316 320 326 315 314 311 313 310 306 312 315 316 315 315 315 315 319 321 322
315 314 314 315 314 315 315 314 314 313 313 312 313 312 311 310 309 312 311 314 315 314 306 310 314 314 315 317 313 315 320 318 312 311 311 308 309 313 313 314 313 315 314 315 316 322 324
315 315 315 315 315 314 314 314 313 313 313 312 312 312 310 308 307 310 311 315 315 314 302 308 310 313 315 316 311 318 320 318 314 310 311 310 313 310 310 310 314 311 317 317 316 315 313
316 316 315 315 315 314 313 313 313 313 312 312 312 311 309 307 308 308 311 314 314 313 294 312 312 321 319 314 317 316 321 317 312 312 312 309 310 309 308 310 314 312 318 317 317 317 317
316 316 316 315 315 314 313 313 313 312 312 312 311 310 309 309 311 313 315 313 312 301 295 308 313 312 313 314 315 316 315 318 318 313 313 312 316 312 311 313 315 316 315 317 316 315 308
316 316 316 315 314 313 313 312 312 312 311 311 309 308 307 310 306 314 313 308 298 295 308 306 308 312 311 310 311 312 311 310 308 305 306 310 310 314 313 309 313 313 311 305 305 305 305
316 316 316 315 314 314 313 313 312 311 311 310 307 305 310 312 315 314 309 300 293 302 304 310 310 311 308 311 311 311 310 307 311 311 308 305 302 310 313 310 308 310 310 305 301 303 306
316 316 315 315 314 314 313 313 312 311 311 309 306 310 310 312 315 312 304 293 297 302 308 307 309 306 307 310 310 310 310 308 310 312 307 307 306 313 313 313 311 309 307 314 309 311 307
315 314 314 314 314 313 313 312 311 311 310 308 306 307 308 314 315 310 299 294 301 305 308 308 303 307 305 308 307 308 309 312 310 313 315 311 306 312 312 313 312 309 313 307 311 304 303
313 313 313 313 313 313 312 312 311 311 309 308 307 301 312 316 315 306 295 297 301 305 306 304 304 305 307 307 309 307 307 311 313 313 314 312 310 309 313 309 307 307 307 311 311 310 304
313 313 312 313 313 313 312 312 311 310 308 306 304 298 311 314 301 302 298 301 301 303 307 304 305 306 306 308 307 308 307 310 315 314 310 313 310 306 308 313 314 311 308 309 307 307 309
312 311 311 312 312 312 312 312 310 309 308 306 300 302 310 307 293 295 300 301 303 302 304 303 302 304 307 306 304 307 309 313 313 313 312 314 308 304 306 309 312 308 310 310 310 312 311
311 310 310 311 311 310 311 311 310 309 309 305 300 295 302 303 303 297 296 297 299 305 303 304 303 305 303 303 307 306 307 311 313 312 323 316 311 307 304 307 310 306 307 309 309 306 308
310 310 310 310 310 310 310 310 310 309 308 304 299 297 300 294 298 297 298 299 296 297 303 304 302 302 301 299 302 303 306 309 311 314 312 312 307 310 310 311 311 308 306 307 306 309 307
310 311 310 310 310 310 310 310 309 308 307 300 297 297 300 297 299 296 295 295 293 295 297 297 298 301 303 300 301 301 305 307 307 310 310 312 307 310 308 310 310 308 310 309 308 308 308
309 309 310 310 310 310 310 309 309 308 305 299 304 303 299 294 295 293 292 294 294 297 298 300 299 299 301 302 306 308 311 310 310 310 310 310 309 307 304 310 310 304 309 310 311 312 310
309 309 309 310 310 310 310 309 309 309 307 305 300 299 294 291 293 293 294 293 293 295 295 297 297 296 303 307 308 310 310 311 311 310 312 309 310 309 305 308 299 311 317 314 311 313 315
308 308 309 309 309 309 309 309 309 309 308 308 305 297 293 291 292 294 294 293 295 297 296 295 297 301 303 303 300 300 302 303 305 308 312 314 310 306 303 303 308 311 314 315 314 314 317
308 308 308 309 309 309 309 309 309 309 308 308 308 304 296 289 292 295 293 294 291 292 295 297 301 304 303 299 296 293 293 299 299 302 310 313 315 310 307 302 300 311 318 321 320 309 318
308 308 308 308 309 309 309 309 309 308 308 309 305 306 298 289 295 297 293 292 296 294 294 296 300 298 301 294 293 293 294 301 296 299 302 304 307 304 305 304 308 317 319 321 308 311 327
308 308 308 308 309 309 309 308 309 308 308 307 306 310 300 293 294 299 300 296 295 296 292 296 298 298 298 296 296 296 296 300 301 306 306 304 305 304 307 303 300 320 320 313 321 327 328
308 308 308 307 309 308 308 308 308 307 307 307 300 307 305 296 296 304 304 305 302 302 298 298 297 296 300 299 302 301 300 306 304 299 311 305 310 307 309 309 322 323 323 325 326 328 329

GFSGBSN_sfc_thetae_018.txt.gz
Theta_e
317 317 316 317 316 315 315 315 315 315 314 315 315 315 316 316 316 316 316 317 317 316 317 318 319 321 321 315 316 326 353 350 336 329 323 322 321 321 318 323 323 319 320 325 324 323 325
316 316 316 316 316 315 315 315 315 315 314 314 314 315 315 316 316 316 316 316 316 316 316 318 320 320 318 307 323 330 328 332 326 325 323 324 322 324 321 321 320 321 321 322 323 323 324
315 315 316 315 315 315 315 315 315 314 314 315 314 315 315 315 315 315 316 315 315 314 316 319 322 321 314 311 326 329 326 325 326 327 321 323 325 322 322 318 323 320 317 320 321 322 323
317 316 315 315 315 315 314 314 315 315 315 315 315 315 315 315 315 314 314 313 314 315 318 324 323 321 310 321 325 323 324 325 327 328 325 326 324 320 320 321 318 315 316 312 320 322 324
317 317 316 316 315 315 315 315 314 315 315 314 314 314 314 314 314 313 312 312 314 318 323 325 323 322 313 329 322 325 325 319 321 323 326 325 323 316 317 312 310 313 309 311 315 322 323
317 317 316 315 315 316 315 315 315 315 314 314 314 314 314 314 313 311 311 312 319 321 325 327 326 320 323 318 323 323 324 322 318 320 318 319 316 312 311 310 303 308 310 313 315 320 322
317 316 315 315 315 316 315 315 315 314 314 314 313 313 313 312 311 310 309 315 317 316 321 318 319 314 318 324 326 323 324 319 320 317 310 316 309 306 310 311 313 313 314 313 317 322 319
317 316 315 316 316 316 315 315 314 314 314 313 313 313 313 312 311 309 311 313 313 311 304 311 313 318 324 323 318 321 324 317 314 309 313 310 306 311 313 314 312 313 312 313 318 322 321
317 317 316 316 316 316 315 314 314 313 313 313 313 312 312 311 309 312 311 310 318 315 304 307 311 311 316 322 316 317 320 318 312 309 310 307 309 312 311 311 310 311 311 313 313 319 321
317 317 316 316 316 315 314 314 313 313 313 313 312 312 311 309 309 309 309 317 315 314 299 305 310 312 314 315 310 319 321 318 314 308 310 310 313 310 308 309 312 308 315 315 314 315 310
317 317 317 316 316 315 314 314 313 313 313 312 312 312 310 308 305 307 313 315 314 311 292 312 312 320 316 311 313 313 319 316 311 311 310 308 310 308 307 308 313 311 316 315 314 313 315
317 317 317 317 316 316 314 314 313 313 313 312 311 311 310 308 310 312 315 314 312 298 293 308 313 311 310 311 311 318 314 317 316 312 313 311 315 312 310 312 312 315 314 314 314 312 306
317 317 316 316 316 315 315 314 313 313 312 311 310 308 308 309 305 313 313 308 296 293 309 307 309 312 311 309 309 313 310 308 306 303 305 310 310 313 314 309 311 311 308 303 303 304 303
316 316 316 316 315 315 314 314 313 312 312 310 308 306 310 311 314 314 311 300 292 301 302 311 311 311 308 311 310 310 310 307 310 309 306 303 302 309 313 310 308 308 307 304 298 301 304
315 315 315 315 314 314 314 313 312 312 311 309 306 310 310 312 314 313 304 293 296 301 308 307 309 306 307 310 310 309 309 308 310 310 305 304 304 314 313 314 311 308 304 311 305 308 305
314 314 314 313 313 313 313 313 312 312 311 308 305 306 310 315 315 310 299 293 300 304 306 307 302 307 304 308 307 308 308 311 310 312 313 310 304 312 313 314 313 309 312 303 305 299 300
313 313 313 313 313 313 313 313 312 312 310 308 305 302 310 315 313 305 295 297 301 305 305 301 300 300 304 306 308 308 308 311 313 312 314 310 309 308 312 309 307 307 305 306 307 306 302
312 312 312 312 312 312 312 312 311 311 308 306 303 296 312 314 300 301 297 300 301 303 306 304 304 303 302 303 305 307 307 310 315 314 309 312 308 305 307 314 314 311 307 307 302 303 306
312 312 312 312 312 312 312 311 311 309 309 305 299 299 308 307 293 295 299 299 300 301 303 303 302 304 305 302 301 305 308 314 315 313 311 314 307 303 304 309 313 309 309 309 308 308 305
312 312 312 312 312 312 311 311 310 309 309 305 298 293 300 303 302 297 296 297 296 302 302 303 303 305 303 302 305 303 305 310 314 314 322 316 309 306 302 306 310 307 308 309 307 302 304
310 310 311 311 311 311 311 310 310 309 309 305 298 295 298 292 295 296 296 297 295 296 302 303 301 302 300 298 300 300 304 306 311 316 314 312 307 309 308 309 311 310 308 308 307 308 305
310 310 310 310 311 310 311 311 310 309 308 301 294 294 299 296 297 295 293 293 292 295 297 294 296 299 300 298 299 295 300 304 307 311 310 311 307 309 307 310 309 308 310 309 308 308 308
310 309 309 309 310 310 310 310 310 309 306 301 302 305 298 295 293 292 292 292 293 295 297 300 297 296 296 297 301 302 303 305 307 308 311 310 307 307 302 308 308 304 309 310 309 310 308
310 309 309 309 309 309 310 310 310 309 307 308 303 301 292 288 291 292 293 294 294 295 292 297 298 295 299 303 304 305 306 306 307 308 309 311 308 307 304 306 297 309 315 313 311 312 313
310 309 309 309 309 309 310 310 309 310 309 309 309 299 293 288 292 293 293 294 294 297 294 295 299 301 302 300 296 294 298 301 304 307 308 311 309 305 302 301 305 308 312 312 310 311 316
309 309 309 309 309 309 309 309 310 310 309 308 309 309 295 288 290 295 293 295 291 293 294 296 303 306 301 296 292 289 288 297 298 302 310 308 314 307 305 300 298 310 315 321 319 308 321
309 309 309 309 309 309 310 310 310 309 309 308 307 309 299 289 294 296 293 293 296 295 291 295 299 300 302 293 288 288 290 298 295 299 302 304 306 303 303 301 304 317 319 321 307 311 325
310 309 309 309 309 309 309 309 309 309 309 308 306 310 302 294 295 299 299 295 295 295 290 295 293 298 297 291 290 291 292 297 298 302 304 302 301 302 306 302 300 321 318 310 322 327 325
310 309 309 309 308 308 309 308 308 308 308 307 302 310 310 298 295 301 302 304 303 301 297 297 294 295 298 297 298 298 294 298 300 295 306 300 306 303 307 307 326 325 325 327 328 328 331

GFSGBSN_sfc_thetae_021.txt.gz
Theta_e
317 317 317 317 317 317 316 316 316 316 315 315 315 315 315 315 315 316 316 317 317 317 316 317 318 320 317 309 310 322 352 355 341 328 320 315 311 312 310 315 318 317 320 323 324 325 323
317 316 316 315 316 316 315 315 315 315 315 315 315 315 316 316 316 317 317 316 316 316 316 317 319 320 314 300 315 318 333 334 328 323 318 317 315 317 315 315 314 319 319 317 321 322 323
318 317 316 316 316 316 315 315 315 315 315 315 316 316 316 316 315 315 316 315 315 314 315 318 321 319 312 305 317 324 324 325 324 321 316 319 320 316 315 313 319 317 313 315 316 315 320
318 318 317 317 317 316 316 315 315 315 315 315 315 315 315 315 316 315 314 314 314 315 316 319 324 317 307 316 317 315 315 317 322 320 321 319 319 315 312 315 315 311 308 302 313 317 320
318 317 318 317 317 316 316 316 316 315 315 315 315 314 314 314 314 314 312 312 315 318 319 324 317 314 309 327 315 316 317 315 319 319 321 324 317 311 310 306 302 304 300 303 308 317 318
318 318 317 317 316 316 316 316 315 315 314 314 314 314 313 313 313 312 311 312 315 319 322 325 323 312 319 314 318 319 320 319 315 314 314 314 309 305 305 301 296 298 300 304 306 314 318
318 318 317 317 317 316 316 315 315 315 314 314 314 313 313 313 312 311 307 305 307 307 316 314 312 313 313 319 323 319 320 316 313 309 304 308 302 301 302 304 306 306 305 305 310 317 317
318 318 318 317 317 316 316 315 315 314 314 314 313 313 312 312 311 309 307 306 306 306 299 307 309 313 318 321 316 318 320 310 308 303 307 303 301 307 309 308 306 306 304 304 310 318 317
319 318 318 317 317 317 316 315 315 314 314 313 313 312 312 311 309 309 303 304 310 308 297 302 306 306 307 311 312 314 316 312 307 305 306 302 305 311 308 307 305 304 303 304 306 315 318
318 317 317 317 317 316 316 316 315 314 314 313 313 312 311 309 307 303 304 312 312 309 292 299 303 306 308 309 308 320 320 314 310 305 306 304 309 308 306 304 306 301 309 309 308 308 305
317 317 317 317 316 316 316 316 315 314 313 313 313 312 310 309 302 302 308 311 311 305 285 307 307 314 308 304 309 313 320 314 308 307 304 303 306 305 304 304 306 304 310 309 309 306 309
317 317 316 317 316 316 315 315 314 313 313 313 312 311 309 306 304 306 309 309 306 291 287 303 309 306 303 305 306 310 313 313 312 309 308 305 310 308 307 309 308 309 307 307 307 305 299
316 316 316 316 315 315 314 314 314 313 312 312 311 308 306 307 300 308 308 304 290 287 304 304 304 306 304 302 304 304 305 303 300 298 299 305 306 308 311 304 306 305 297 295 294 296 294
315 314 315 315 314 314 313 314 313 313 312 311 308 306 307 309 310 307 305 295 286 297 297 305 305 306 303 305 304 305 303 301 304 302 298 297 296 306 309 306 301 301 300 295 289 292 296
314 314 314 313 313 313 313 313 313 312 312 310 307 304 304 307 311 309 300 289 291 296 302 299 300 299 302 306 306 304 302 303 304 304 297 297 298 309 310 310 307 300 298 302 293 296 294
314 314 313 313 313 313 313 312 312 312 311 309 302 302 303 311 313 306 296 290 295 301 300 298 293 297 294 296 297 303 302 306 305 307 307 301 296 306 310 310 309 304 303 295 298 289 290
313 313 313 313 313 313 312 312 311 311 310 308 302 297 304 309 309 301 291 293 297 302 302 298 297 296 296 296 298 297 298 308 310 309 308 305 301 301 306 304 302 302 300 298 296 297 292
313 313 313 313 313 313 312 312 311 310 308 305 299 291 305 307 294 297 293 296 299 299 302 300 301 299 297 298 296 296 297 301 311 311 305 306 301 297 300 307 310 306 301 298 295 290 294
312 312 312 312 312 312 312 311 311 309 309 302 294 295 304 303 288 291 295 296 298 296 296 297 296 298 301 298 294 298 300 305 307 305 307 307 301 294 297 302 306 304 305 302 301 295 293
312 311 311 311 312 312 311 311 310 309 309 303 296 289 295 299 298 293 292 292 292 299 298 299 297 299 297 297 299 297 298 304 306 306 320 313 304 299 295 298 301 301 304 305 301 296 296
310 310 310 311 311 311 311 311 310 309 308 303 297 291 294 288 292 292 293 292 290 290 296 296 295 295 294 291 294 295 298 298 302 307 307 301 300 302 303 304 305 304 305 305 301 301 297
311 311 311 311 311 310 310 310 310 309 308 300 293 292 294 291 292 291 291 290 289 291 293 292 291 295 294 293 294 290 293 294 294 300 297 299 299 302 301 305 304 302 306 307 305 304 303
310 310 310 310 310 310 310 310 310 309 306 299 300 302 295 290 289 289 289 290 291 293 295 296 294 293 292 295 298 298 298 298 297 296 296 296 295 297 294 302 302 298 303 305 306 307 305
310 310 310 310 310 310 310 310 310 310 307 303 302 300 292 285 288 288 290 291 291 292 291 295 296 293 296 301 301 299 300 300 301 301 302 297 296 299 295 298 292 301 309 310 308 309 308
311 310 310 310 310 310 310 310 310 309 309 303 303 299 293 286 289 289 290 291 293 293 292 293 296 298 301 298 293 290 293 295 298 301 301 303 298 296 293 295 298 303 306 306 305 305 311
311 311 310 310 310 309 310 310 309 309 310 307 305 305 296 287 287 293 290 291 289 290 291 294 298 302 301 295 292 286 287 291 293 296 302 302 302 299 294 292 291 299 309 313 315 303 319
310 310 310 310 310 310 310 309 310 310 310 307 304 307 298 289 292 293 290 290 294 292 290 293 294 293 299 293 288 286 286 294 290 293 296 297 301 298 296 293 297 306 310 317 302 304 320
310 310 310 309 309 309 309 309 309 309 309 308 303 308 300 293 294 296 296 293 294 293 288 294 292 292 292 288 288 289 287 291 294 298 298 298 293 296 298 294 292 316 314 308 311 319 323
310 310 310 310 310 309 309 308 308 308 308 308 300 308 307 297 295 300 300 301 299 298 295 295 293 293 295 292 294 294 291 294 296 293 302 296 301 300 303 306 315 321 320 321 327 326 327

GFSGBSN_sfc_thetae_024.txt.gz
Theta_e
318 317 317 316 317 317 316 316 316 316 316 315 315 315 315 315 315 316 316 316 317 316 316 316 318 319 313 306 307 314 351 353 342 331 321 315 309 306 305 308 311 315 317 324 326 324 321
318 318 317 317 317 317 316 316 316 316 316 316 316 316 316 316 316 316 317 316 316 315 315 316 318 319 309 294 308 315 317 330 326 321 318 314 311 310 308 310 309 314 315 316 320 322 322
318 317 316 317 317 317 316 316 315 315 315 315 316 316 315 315 316 316 316 315 315 315 315 317 318 318 311 300 311 313 316 323 325 321 314 316 316 311 310 309 314 314 309 312 312 316 320
319 318 317 317 317 317 317 316 315 316 315 315 315 315 315 315 315 315 314 314 314 315 317 318 319 316 304 314 314 311 311 313 317 319 319 317 316 312 309 312 310 306 303 300 309 320 321
319 319 318 318 317 317 317 316 316 316 315 315 315 315 315 314 314 313 312 313 315 318 319 321 314 310 304 324 315 313 311 312 312 316 316 322 313 308 307 303 299 300 297 300 303 318 320
319 319 318 318 318 317 317 317 316 316 315 315 314 314 314 313 313 312 311 312 313 317 320 323 321 308 311 311 319 313 311 313 311 313 313 312 307 302 300 297 293 296 297 299 301 308 317
320 319 319 318 318 317 317 317 316 316 315 315 314 314 313 313 312 310 308 301 300 300 311 307 308 310 312 315 321 314 314 313 311 307 302 304 301 300 300 301 302 302 300 300 304 309 314
319 319 318 318 317 317 317 317 316 316 315 315 314 313 313 312 311 310 305 301 303 301 294 304 308 310 314 315 312 317 316 308 305 301 301 299 297 302 306 304 303 302 300 300 304 308 313
317 318 317 317 317 317 316 316 316 315 314 314 313 313 312 311 309 304 299 300 306 305 292 298 303 303 304 310 307 310 312 308 304 299 300 297 300 307 306 304 301 300 299 300 300 306 317
317 317 317 316 316 316 316 315 314 314 314 313 313 313 312 309 301 301 301 305 307 305 288 294 297 301 303 305 301 312 315 310 304 301 301 300 306 305 304 303 303 295 304 304 303 300 299
317 316 316 315 316 315 315 314 314 314 314 313 313 312 310 309 299 299 304 305 306 297 285 304 302 308 303 302 304 307 314 309 304 302 301 300 303 303 302 304 306 300 305 304 304 300 297
316 316 315 315 315 314 314 314 313 313 313 313 312 311 310 303 299 303 305 304 298 289 284 298 305 300 299 299 302 308 310 312 310 305 304 303 308 306 305 307 307 307 301 301 300 300 293
315 314 314 315 314 314 313 313 313 313 312 312 311 309 307 306 296 302 304 299 286 283 299 299 296 298 297 297 300 300 307 305 301 294 298 302 303 304 308 301 304 302 293 290 289 291 291
313 314 314 314 313 313 313 313 313 312 312 311 308 307 305 304 303 304 299 290 282 292 293 299 297 299 297 298 298 300 297 303 305 297 294 296 294 303 306 302 301 297 296 291 284 286 291
314 314 314 313 313 313 313 313 312 312 311 309 307 300 299 300 304 302 293 284 285 291 296 295 296 293 294 298 297 297 297 297 304 302 294 291 295 305 308 307 304 298 293 298 290 290 289
313 313 313 313 313 313 313 312 312 311 310 308 300 295 296 305 304 299 289 286 289 297 298 297 290 293 290 293 294 294 293 300 300 304 304 298 291 300 305 306 308 300 300 292 287 287 287
312 312 312 312 312 312 312 312 312 311 310 308 296 290 298 303 299 293 285 287 294 299 299 294 292 291 292 293 294 293 294 299 303 303 304 301 296 296 300 300 300 300 297 291 293 292 289
311 312 312 312 312 312 312 312 311 310 308 302 292 285 298 302 286 287 289 291 296 296 299 296 296 294 292 293 291 293 294 298 304 303 297 300 297 294 297 302 306 305 300 295 293 288 291
312 312 312 312 311 312 312 311 310 309 308 297 289 288 298 295 282 283 289 292 294 294 294 294 293 294 295 292 289 294 296 303 301 301 297 301 293 291 291 295 299 298 302 301 291 290 293
311 311 311 311 311 312 312 311 309 309 308 297 289 284 287 290 290 288 287 289 289 296 295 295 293 296 293 291 292 291 294 299 300 300 308 300 295 294 293 296 297 295 301 301 299 295 294
310 310 310 310 310 311 311 310 310 309 308 300 291 285 288 282 286 289 289 289 288 288 293 294 290 293 291 287 290 291 295 295 298 302 298 294 287 292 296 300 302 301 300 302 298 300 296
310 311 310 310 311 311 311 311 310 309 308 299 291 290 289 289 287 286 288 288 288 289 290 289 289 291 290 287 289 288 292 289 290 295 293 293 288 292 294 301 302 300 302 303 302 302 300
310 311 310 311 311 311 311 311 310 309 305 296 299 299 294 289 285 282 283 286 287 290 293 294 293 291 289 290 294 294 294 295 293 291 291 290 289 289 287 297 300 296 301 301 302 303 302
311 311 310 311 311 310 311 310 310 310 306 300 299 298 288 286 287 286 287 289 289 291 289 292 292 289 293 299 298 295 295 293 294 294 296 292 291 289 288 292 289 299 306 306 302 304 304
311 310 310 310 310 311 310 310 310 310 309 302 302 297 292 285 288 288 288 289 290 290 288 291 293 293 296 294 288 285 287 289 293 295 296 298 294 290 287 289 295 301 303 303 300 301 307
309 310 310 310 310 310 310 310 310 311 310 303 300 300 297 289 285 291 288 289 285 284 287 291 295 296 294 290 288 281 281 287 290 295 300 299 298 294 292 289 288 297 305 310 308 298 316
310 310 310 310 310 310 310 310 309 309 309 300 298 300 296 288 292 291 287 286 288 286 284 288 291 290 293 287 288 282 282 290 287 290 293 297 296 292 292 293 294 301 306 313 300 300 316
310 310 310 310 309 310 309 309 309 309 308 301 297 302 297 293 292 295 294 291 291 288 286 288 290 289 287 286 287 285 284 286 288 295 296 295 295 294 295 293 290 310 312 302 307 317 318
310 310 310 310 309 309 309 309 309 309 308 307 297 301 302 296 292 298 298 299 297 295 291 289 290 291 293 287 287 290 288 289 288 288 301 294 299 298 299 300 307 315 316 323 325 323 323

GFSGBSN_sfc_thetae_027.txt.gz
Theta_e
317 317 317 317 317 317 316 316 316 315 315 315 315 315 315 315 315 315 315 315 315 315 316 316 317 318 311 304 301 309 350 346 341 326 318 314 309 315 303 305 319 322 322 322 326 326 324
318 318 317 317 317 316 316 316 315 315 316 316 316 316 316 316 316 316 316 316 316 314 315 316 317 317 305 292 306 313 315 331 329 323 316 314 310 308 305 305 306 310 316 315 316 317 324
318 318 318 317 317 317 317 316 316 315 315 315 316 316 316 316 316 316 315 315 315 315 316 317 317 315 309 298 308 310 314 317 325 321 314 315 314 309 306 304 310 311 307 310 311 312 317
320 319 318 318 318 318 317 317 317 317 316 316 316 316 316 316 316 315 314 313 314 315 318 318 319 313 299 311 312 309 308 306 320 317 314 316 314 308 306 310 308 303 302 299 308 315 316
320 320 319 318 318 317 317 317 317 317 316 316 315 315 315 315 314 313 312 312 314 319 320 320 313 307 299 320 314 312 309 307 312 314 316 321 311 306 306 302 297 298 296 299 302 315 317
319 318 318 318 318 317 317 317 316 316 316 315 315 314 314 314 313 312 311 312 313 316 321 321 319 304 308 306 318 313 309 311 310 309 310 310 305 300 297 296 293 295 295 297 299 305 314
317 317 317 316 317 317 317 316 316 316 315 315 315 314 313 313 312 310 307 302 299 297 307 305 307 307 308 313 318 311 309 308 308 306 300 304 301 296 299 299 300 300 298 298 302 308 311
317 316 316 315 316 316 316 316 315 315 315 314 314 314 313 312 311 310 302 297 300 298 293 301 301 303 309 310 306 309 311 304 303 298 301 297 298 303 304 302 301 300 298 298 301 307 310
316 316 315 315 315 315 315 314 314 314 314 314 313 313 312 311 310 303 299 298 303 299 290 296 300 300 301 306 304 305 308 305 302 299 298 298 298 304 304 301 299 297 296 299 298 303 309
316 316 315 315 315 314 314 314 314 313 313 313 313 313 311 309 299 300 299 303 302 302 287 293 295 299 301 305 301 310 314 308 302 300 299 296 302 302 301 300 301 293 300 302 300 298 293
315 315 314 314 314 314 313 313 313 313 313 313 312 311 310 309 298 297 300 303 304 294 284 303 298 305 300 300 301 304 313 307 301 300 298 296 299 300 299 301 302 300 303 301 301 296 293
314 314 314 314 314 314 313 313 313 312 312 312 311 310 309 302 297 301 303 302 295 288 283 297 301 297 296 297 299 305 306 308 307 301 300 302 304 303 301 304 304 305 300 297 297 294 289
313 313 313 313 313 313 313 313 313 312 312 311 309 307 306 305 295 300 302 296 285 282 296 296 294 296 295 294 297 300 302 301 298 294 295 298 300 302 305 300 301 300 293 288 285 287 289
313 313 313 313 313 313 313 313 312 312 312 310 307 306 303 303 300 301 296 288 279 291 290 296 296 296 294 296 295 297 301 299 303 297 296 293 292 300 302 300 298 296 295 286 282 283 289
312 312 312 312 312 312 312 312 312 311 311 309 306 300 296 299 302 299 291 282 283 288 295 294 294 291 291 295 295 295 292 300 303 299 294 293 294 302 306 303 303 296 293 297 287 288 286
311 311 312 312 312 312 312 312 311 311 310 308 298 294 293 302 301 295 287 284 287 295 296 294 288 291 287 290 291 291 292 296 297 304 298 295 290 297 303 305 302 300 297 291 285 285 285
311 311 311 312 312 312 312 312 311 310 309 307 292 288 295 299 296 291 283 284 291 296 297 292 290 289 289 289 291 289 292 297 300 300 299 293 291 294 299 297 299 297 294 290 291 288 287
311 311 312 312 312 312 312 311 310 309 307 300 289 283 296 297 285 283 283 288 295 294 296 294 294 292 290 292 290 289 290 295 301 301 294 296 288 292 296 299 304 302 299 293 289 287 289
311 311 312 311 311 311 312 311 310 308 307 295 286 285 296 293 282 283 288 291 294 292 291 292 291 292 294 290 287 293 295 300 300 297 296 297 289 285 288 291 295 295 299 300 296 290 293
311 311 311 312 311 312 312 311 310 308 308 298 290 283 287 288 288 287 284 287 288 294 293 293 292 294 291 289 291 290 293 298 299 299 306 296 288 287 287 289 294 292 297 299 297 293 294
310 311 311 311 311 312 312 311 310 309 308 298 294 285 285 282 284 285 286 287 287 287 293 292 289 290 289 284 288 288 292 293 295 300 295 291 285 288 291 295 296 297 296 299 295 298 295
311 311 311 311 312 311 311 311 310 309 307 298 291 290 292 288 290 284 285 286 287 287 288 289 288 289 288 285 286 285 288 288 289 293 290 290 287 289 289 296 297 296 298 299 300 300 298
311 311 310 311 311 311 311 311 310 309 304 296 298 297 293 289 288 285 284 284 285 289 291 293 290 288 287 289 292 292 292 291 291 289 287 288 287 286 284 292 293 291 297 299 300 301 300
310 310 311 311 310 310 310 311 311 309 305 300 300 297 289 284 287 286 287 288 287 288 287 291 291 289 292 296 296 293 291 291 292 291 293 287 287 287 284 288 285 296 302 304 301 302 301
310 310 310 310 310 310 310 310 311 310 308 297 301 298 292 286 288 287 288 288 288 288 287 287 291 293 294 291 286 283 284 285 288 292 291 293 290 286 284 284 291 298 301 300 298 297 303
310 310 310 309 309 310 310 310 310 310 309 299 297 300 296 288 287 290 286 287 284 286 287 289 292 293 291 286 285 279 279 284 283 290 293 292 293 291 287 284 285 293 306 311 306 297 305
309 310 310 309 309 309 309 310 310 310 309 300 296 298 297 290 290 290 287 284 288 286 284 285 288 289 291 284 283 281 280 288 283 284 286 288 289 287 288 288 292 303 311 315 295 298 313
310 310 310 310 309 309 309 310 309 309 309 302 298 300 297 292 292 294 294 291 290 289 285 286 286 286 284 284 284 285 282 286 284 289 288 290 291 289 290 289 286 310 310 305 309 316 315
310 310 310 311 310 310 310 310 309 309 309 307 296 303 303 296 293 296 297 297 295 294 290 290 286 287 288 285 286 286 286 288 284 283 293 288 295 293 295 295 305 309 312 313 314 316 319

GFSGBSN_sfc_thetae_030.txt.gz
Theta_e
319 319 318 318 318 318 317 317 317 317 316 316 316 316 315 315 315 316 316 316 316 315 316 316 317 317 310 301 299 331 352 343 351 335 334 331 331 327 309 314 324 322 322 324 326 323 322
319 319 319 318 318 317 317 317 317 317 317 317 317 317 317 316 316 316 316 316 316 315 315 316 317 317 303 289 304 310 333 338 344 327 324 317 319 320 306 307 313 314 320 321 320 314 319
320 319 319 318 318 317 317 317 317 316 316 316 316 316 316 316 316 316 316 315 314 314 315 317 318 313 306 295 307 307 330 325 329 322 313 313 312 315 307 303 307 308 305 308 309 309 313
318 318 317 317 318 317 317 317 316 316 316 316 316 316 315 316 315 315 314 313 314 316 319 320 319 311 296 307 310 307 308 314 323 320 312 315 312 306 304 307 306 301 300 297 305 309 311
318 318 318 317 317 317 317 316 316 315 315 315 315 315 315 315 314 313 312 313 315 321 321 320 310 304 297 317 311 308 306 304 312 315 315 318 310 304 303 299 296 296 294 297 301 309 314
317 317 317 315 315 316 316 315 315 315 315 315 314 314 314 314 313 311 311 312 313 320 318 318 317 301 306 305 313 312 306 310 309 310 310 309 303 299 296 295 290 293 293 295 298 305 312
316 315 315 314 314 315 315 315 315 314 314 314 314 313 313 313 311 310 307 300 297 296 299 306 305 304 307 310 314 308 307 307 308 304 299 303 298 296 297 297 298 299 297 297 300 305 310
315 315 314 314 313 314 314 314 314 313 313 314 313 312 312 311 310 310 300 297 297 296 291 300 299 302 309 307 304 307 308 302 302 298 300 296 297 302 303 300 300 299 296 296 300 304 306
314 314 313 314 314 314 314 314 314 313 313 313 313 312 311 310 309 301 297 297 300 297 289 295 299 299 300 303 301 303 305 303 299 297 299 298 298 305 303 299 298 295 297 297 297 301 304
314 314 314 314 314 314 314 314 313 313 313 313 312 312 310 308 298 298 296 300 300 300 285 292 294 298 302 301 297 308 308 305 301 300 296 296 302 303 300 300 299 291 299 301 299 295 292
314 314 314 313 313 313 313 313 313 313 312 312 312 311 309 308 297 295 297 301 301 292 283 301 295 302 300 298 299 302 311 305 299 298 298 296 297 299 299 300 300 298 302 299 299 295 292
313 313 313 312 312 313 312 312 312 312 312 312 311 310 309 301 296 298 300 300 293 287 282 296 298 295 295 296 297 302 304 307 304 300 298 298 301 302 299 302 302 303 299 295 293 292 288
312 312 311 312 312 312 312 312 312 312 311 310 309 308 305 304 294 299 299 293 284 281 295 293 292 295 294 293 295 298 299 300 297 291 292 296 299 299 301 297 299 299 293 286 285 286 288
312 312 312 313 312 312 312 312 312 311 311 309 307 306 301 302 300 299 294 287 278 289 288 295 295 294 291 294 294 296 296 297 299 296 294 292 289 299 301 298 295 294 292 286 282 283 288
311 312 312 312 312 312 312 312 311 311 310 309 306 296 295 297 301 297 290 280 282 286 293 292 292 289 289 293 292 293 291 296 300 296 293 290 292 301 302 301 302 293 293 295 287 286 284
312 312 312 312 312 312 312 312 311 311 310 308 297 293 292 300 297 294 287 283 285 293 294 292 286 289 286 288 289 289 290 295 296 299 296 293 289 297 302 302 301 297 297 290 285 283 281
312 311 311 312 312 312 312 312 311 310 309 307 291 287 294 299 295 289 280 282 289 294 295 290 288 288 287 288 289 288 289 295 298 298 299 292 290 291 298 297 298 294 292 289 292 287 285
311 312 312 312 312 312 312 312 311 309 307 298 287 282 294 295 284 283 282 286 292 292 293 292 292 290 289 290 288 289 290 294 299 299 294 295 286 289 291 296 302 302 297 291 289 286 285
311 312 312 312 312 313 312 311 310 308 307 294 285 285 294 292 279 280 286 288 291 291 290 290 289 293 293 289 285 291 293 299 298 297 295 295 287 284 287 293 294 293 298 294 296 289 290
311 312 312 312 312 313 312 311 310 309 308 295 287 282 286 289 285 282 282 283 286 294 292 292 290 292 290 288 290 288 291 297 297 299 304 296 286 285 285 288 292 290 295 296 296 293 293
311 311 311 311 312 313 312 311 310 309 308 295 288 284 289 280 282 287 282 284 286 285 291 293 291 289 287 282 286 286 290 291 294 298 293 291 286 287 289 293 294 294 294 296 293 297 294
311 310 311 311 311 311 312 312 311 309 306 293 286 289 291 288 289 287 285 281 284 285 286 287 288 288 288 283 285 283 286 286 287 291 288 288 285 287 288 294 294 292 295 297 297 296 295
310 310 310 310 311 311 311 311 310 309 303 296 298 298 292 289 285 285 283 284 285 287 289 292 290 288 286 289 290 290 290 289 290 287 286 285 286 285 283 290 291 289 294 296 296 297 297
310 310 310 310 310 310 311 311 311 309 304 296 296 297 290 284 287 286 288 287 286 287 286 289 290 287 291 294 293 290 288 289 290 290 290 285 285 285 283 286 281 291 298 300 298 300 299
311 310 310 310 310 310 310 310 311 310 309 298 296 296 291 284 287 287 287 286 287 287 285 287 289 291 292 291 285 282 281 282 286 289 289 290 286 283 282 283 289 293 301 303 301 299 302
310 311 310 310 310 310 310 310 310 310 309 298 296 298 296 288 286 289 286 287 284 283 285 287 291 290 290 285 282 277 276 281 282 286 289 289 290 286 283 282 282 292 307 312 311 297 307
310 310 310 310 310 310 310 311 310 310 309 299 298 298 295 289 292 291 287 286 289 288 286 285 286 287 288 285 283 280 278 285 280 282 281 282 285 282 284 284 289 298 308 314 295 297 312
310 311 311 310 310 310 310 310 311 311 310 304 300 298 297 292 293 294 295 291 291 289 284 286 284 285 285 282 282 281 283 284 282 284 284 283 283 282 284 284 282 306 307 304 306 312 315
310 310 310 310 311 311 311 311 311 311 310 309 298 300 302 295 293 297 296 297 296 294 290 290 289 285 290 285 286 286 284 286 283 280 289 284 289 288 288 287 298 308 309 312 313 314 315

GFSGBSN_sfc_thetae_033.txt.gz
Theta_e
319 319 319 318 318 318 317 317 317 317 316 316 316 316 316 316 316 316 317 317 317 316 316 317 317 317 314 306 302 324 351 341 352 343 337 336 332 331 324 328 330 329 327 327 329 328 326
318 318 318 317 316 316 316 316 316 316 316 315 316 316 316 316 316 316 316 316 316 315 316 317 317 316 308 294 308 314 332 332 342 338 335 335 334 335 326 321 324 322 326 323 318 320 323
318 318 317 316 315 315 315 315 315 315 315 314 315 316 315 316 315 316 315 315 314 314 316 317 317 314 308 301 311 324 332 333 341 334 330 332 336 329 323 311 318 314 309 312 313 315 315
317 317 315 315 315 315 315 314 314 314 314 314 314 314 314 314 315 315 314 313 315 320 319 318 319 313 301 310 312 311 328 325 341 332 329 329 324 329 312 312 310 308 308 305 312 313 315
316 316 315 314 314 314 314 314 313 314 314 314 314 314 314 314 313 313 311 312 318 322 323 320 313 311 300 318 308 310 315 318 333 328 321 323 319 314 310 307 304 304 302 304 307 314 316
315 315 314 314 314 314 314 314 314 314 314 314 314 314 314 313 312 311 310 311 317 320 318 319 315 304 306 305 312 310 313 320 318 319 315 313 311 308 307 304 297 299 300 304 305 311 317
314 314 314 314 313 314 314 314 314 314 314 314 314 313 313 312 311 309 308 307 303 303 302 310 310 305 310 313 318 310 310 313 313 311 304 309 303 301 303 305 304 303 303 304 307 311 314
314 314 314 313 313 313 313 313 314 314 314 314 313 313 312 311 310 309 305 301 298 299 294 302 301 303 310 312 306 309 310 305 305 301 305 304 300 305 307 305 304 303 301 303 306 309 309
314 313 313 312 312 312 312 312 313 313 313 313 312 312 311 310 309 304 302 300 304 304 295 299 302 302 304 307 304 307 308 306 304 302 302 300 303 307 305 304 302 303 300 302 303 307 309
313 313 313 312 312 312 312 313 313 312 312 312 312 312 310 309 303 302 299 303 305 303 292 298 298 302 303 306 302 311 311 308 304 301 303 303 307 304 303 302 304 299 305 304 303 303 300
313 313 313 313 313 312 312 312 312 312 312 312 311 310 309 307 302 300 302 305 305 300 287 301 298 307 305 304 304 305 312 309 303 303 304 301 303 303 302 303 306 302 306 304 304 303 303
312 312 311 312 312 312 312 312 312 312 312 311 310 309 308 304 303 304 305 304 301 291 286 298 299 298 299 302 302 305 306 311 310 305 305 305 307 307 306 307 308 309 305 305 304 303 296
311 311 311 311 312 312 312 312 312 312 311 310 308 307 305 305 298 305 304 300 291 287 298 295 296 299 298 298 299 302 302 302 301 298 299 303 302 306 308 304 307 306 303 296 294 294 294
311 312 313 312 312 312 312 312 312 311 311 309 306 305 303 304 306 303 302 293 285 291 292 298 297 298 296 297 298 299 300 299 306 304 300 297 295 303 306 305 302 303 302 296 290 292 296
310 312 313 312 312 312 312 312 312 311 310 308 306 302 301 303 304 302 297 284 287 290 293 292 295 294 294 296 296 297 299 300 304 305 300 298 298 305 305 307 307 302 300 305 298 297 296
310 312 312 313 313 312 312 312 312 311 310 308 301 297 298 302 302 302 292 286 289 294 294 295 289 293 290 292 294 295 297 298 300 303 304 303 298 304 305 307 307 304 307 297 299 292 291
311 312 313 313 313 313 313 312 311 311 309 305 298 293 300 302 301 296 286 286 289 295 296 293 291 290 292 291 293 293 295 298 299 301 304 302 300 299 305 302 301 300 300 302 302 299 294
311 312 313 313 312 313 313 312 311 309 307 302 295 289 301 301 290 290 286 288 292 293 296 294 294 294 293 294 292 293 294 297 299 302 299 301 299 298 300 307 308 305 303 303 297 296 298
312 312 313 312 312 313 313 312 310 308 306 302 293 291 301 300 284 286 289 288 291 292 293 292 291 294 295 293 290 294 296 299 300 301 299 301 297 296 298 302 304 303 305 305 304 304 299
311 311 311 312 312 312 312 311 310 309 308 302 295 288 293 294 292 287 285 286 287 293 292 293 293 294 292 292 295 292 293 297 298 300 303 301 297 297 296 299 299 298 301 304 303 299 299
311 311 311 311 312 312 312 311 310 309 307 303 296 290 292 285 288 288 288 287 286 286 290 293 289 289 288 287 290 290 292 294 296 299 298 299 293 295 296 296 297 297 298 299 300 303 300
311 311 311 311 311 310 311 311 311 309 305 301 293 292 293 288 291 289 288 286 286 287 287 287 288 290 289 288 289 287 290 292 291 296 295 297 292 294 292 295 297 296 298 299 300 300 301
311 311 311 311 311 311 311 311 311 308 305 300 302 301 293 289 288 287 287 287 287 289 290 292 289 288 287 290 292 294 294 294 294 292 291 292 292 291 288 294 295 292 297 299 301 303 302
311 311 311 311 311 310 311 311 311 310 306 304 301 299 291 285 287 287 287 288 288 289 287 291 291 289 292 297 296 296 294 294 294 293 295 291 292 293 288 291 285 298 303 303 303 304 305
310 310 310 310 310 311 311 311 311 311 309 304 304 298 292 286 289 289 289 288 290 291 289 289 292 295 296 294 289 286 287 289 291 293 293 294 292 289 286 288 292 295 299 304 305 304 313
310 310 310 310 310 310 311 311 311 311 310 305 304 305 298 289 288 291 289 290 286 286 287 290 295 297 297 293 288 281 281 284 284 290 295 293 293 289 288 284 284 297 303 310 314 299 316
310 310 310 310 310 310 311 311 311 311 311 306 303 304 299 290 293 292 288 288 291 289 287 289 290 291 296 290 284 281 282 288 283 283 287 287 288 285 286 286 290 299 306 315 300 303 318
310 311 310 311 311 310 310 311 311 312 312 308 302 303 300 293 293 295 295 291 291 290 286 290 289 290 289 284 284 285 284 287 286 288 287 287 286 286 287 285 282 302 303 299 311 318 318
310 310 310 310 311 311 310 311 312 312 312 311 302 302 303 296 294 300 299 300 298 297 292 291 290 290 292 288 287 287 286 289 287 282 294 286 291 290 290 290 300 304 306 311 316 315 318

GFSGBSN_sfc_thetae_036.txt.gz
Theta_e
319 319 318 317 316 317 316 316 315 315 315 315 315 315 316 316 316 316 317 317 317 316 316 317 317 317 317 310 307 320 349 341 334 331 328 329 330 327 322 327 331 329 329 328 330 330 328
318 317 316 316 315 315 315 315 315 314 314 314 315 315 316 316 316 316 316 316 315 315 316 317 317 317 312 302 314 314 327 330 331 331 329 332 330 329 324 326 327 328 329 327 325 324 324
316 316 315 315 315 314 314 314 314 314 314 314 315 315 316 316 316 316 315 315 313 316 321 318 317 317 311 309 314 315 327 328 336 333 327 333 333 329 328 323 325 327 316 318 320 320 319
316 315 314 314 314 314 314 314 314 314 315 315 315 315 315 316 315 315 313 313 314 320 322 318 319 317 309 316 318 320 327 327 337 335 329 333 333 331 324 320 316 316 315 310 318 319 319
315 314 315 314 314 314 314 314 314 315 315 315 315 314 315 315 314 313 312 313 317 322 321 320 317 315 309 316 309 316 327 323 333 332 330 330 328 325 324 313 310 311 309 312 314 319 319
314 314 314 314 313 314 314 314 314 314 314 314 314 314 313 313 312 311 311 312 319 321 321 322 318 309 311 308 313 312 320 322 329 323 322 321 318 316 318 313 304 308 308 312 313 317 318
314 314 313 313 313 314 314 314 314 314 314 314 313 313 313 312 311 310 310 312 311 312 309 313 315 311 312 315 318 311 313 324 326 318 309 313 308 305 309 312 312 312 311 310 315 318 315
314 313 313 313 312 313 313 313 314 314 314 314 313 312 312 311 310 310 311 305 302 302 297 306 307 311 317 317 312 310 316 313 314 309 310 307 304 309 311 311 309 309 307 309 314 316 314
313 313 312 312 312 313 313 313 313 313 313 313 312 312 311 310 309 309 307 304 309 308 299 304 308 307 309 313 310 309 313 312 310 308 306 305 307 310 308 308 307 307 307 308 309 313 314
312 313 313 313 313 313 313 313 313 313 313 312 312 311 310 308 308 308 305 309 311 309 297 302 303 307 310 312 307 317 312 312 309 307 308 307 310 308 307 306 307 304 310 309 308 308 304
312 313 313 313 313 313 313 313 313 313 312 312 312 310 309 307 307 304 306 310 310 307 289 305 303 311 310 309 312 310 316 311 306 306 308 305 306 306 305 306 309 305 310 308 308 306 307
312 312 312 312 313 313 313 313 313 312 312 312 311 309 308 308 309 308 309 310 308 294 288 301 303 302 302 306 309 312 311 311 311 308 309 308 312 309 309 310 309 310 308 307 308 306 300
311 312 312 312 313 313 313 313 313 312 312 311 309 307 308 308 303 310 309 306 292 289 301 299 300 303 303 303 305 306 306 305 305 301 301 305 307 310 311 307 310 308 306 299 297 298 298
310 312 313 313 313 313 313 313 313 312 311 310 307 305 307 308 310 309 306 297 286 294 295 300 300 301 300 304 303 304 305 303 308 307 305 301 298 306 310 308 307 306 306 300 294 296 299
311 313 313 314 313 313 313 313 312 311 310 309 306 308 307 308 310 309 300 288 289 293 296 295 298 298 300 301 301 302 303 304 307 309 304 303 303 309 310 311 311 307 303 309 302 304 301
311 312 313 313 313 313 313 313 312 311 310 308 306 304 305 308 309 306 295 287 292 295 296 297 293 297 295 298 299 301 302 303 306 310 313 308 303 308 309 311 311 309 311 301 303 296 295
312 312 313 313 313 313 313 313 312 310 309 307 305 299 305 309 307 299 289 289 292 296 296 294 293 294 296 296 298 299 300 301 304 307 308 309 307 306 309 305 305 306 305 306 306 304 298
312 313 313 313 313 313 313 312 311 309 307 306 303 293 305 307 296 296 291 292 293 294 297 296 297 294 296 297 297 298 299 301 304 306 304 309 307 304 305 310 311 310 307 307 301 301 303
312 312 312 312 312 313 313 312 311 309 308 306 298 298 306 304 289 290 292 292 293 293 293 294 294 296 297 296 294 297 299 301 302 304 305 308 304 300 303 307 309 306 308 309 308 308 304
311 311 311 312 312 312 312 311 310 309 308 306 299 292 299 300 299 292 290 290 290 294 293 294 292 296 296 294 297 295 297 299 301 301 304 304 305 304 301 304 307 304 306 308 307 303 304
311 311 311 311 311 312 312 311 311 309 307 306 300 294 295 290 292 292 291 291 289 288 293 294 290 289 289 291 293 293 296 298 300 302 303 303 301 302 306 303 303 306 305 307 306 307 304
311 311 312 312 311 311 312 312 311 309 307 304 296 294 296 294 293 290 290 289 288 289 290 290 289 290 290 288 289 289 293 296 295 300 300 301 299 300 299 302 301 300 304 305 307 308 308
311 311 311 311 311 311 312 312 311 310 306 302 304 303 297 292 291 290 289 289 289 291 292 293 292 291 289 291 295 297 298 298 298 296 297 297 297 297 297 302 300 297 302 304 306 308 308
311 311 311 311 311 311 312 312 312 311 308 307 303 301 293 288 290 289 290 291 290 290 289 293 294 291 295 300 298 299 298 297 297 297 299 296 296 297 295 299 290 304 310 309 306 308 310
311 311 311 311 311 311 312 312 312 311 311 305 305 300 294 288 290 291 291 291 293 292 291 292 294 298 300 296 292 290 291 292 293 296 296 298 296 294 292 293 299 301 303 304 304 306 311
311 311 311 311 311 311 312 312 312 312 311 307 305 305 298 290 290 293 291 292 289 289 291 292 297 301 299 294 291 285 285 288 288 291 297 297 298 294 294 290 290 301 307 309 309 302 314
310 311 311 310 310 311 311 311 312 312 311 308 303 306 298 291 294 295 291 291 294 292 290 292 294 294 297 291 287 286 285 290 286 287 291 291 292 290 290 290 296 304 309 314 300 309 319
310 311 311 311 311 311 311 311 311 312 312 309 304 305 299 292 295 298 298 293 293 292 288 293 292 294 294 289 289 289 287 291 289 292 291 291 289 289 291 289 287 304 303 300 309 313 318
310 310 310 311 311 311 311 311 311 312 312 312 304 305 304 296 296 303 303 303 300 297 294 294 292 292 295 292 293 290 289 291 291 286 296 289 293 292 293 293 303 306 305 310 310 310 312

GFSGBSN_sfc_thetae_039.txt.gz
Theta_e
318 316 316 316 316 315 315 316 316 316 315 315 315 316 316 317 316 317 317 317 316 315 316 317 317 318 317 313 311 328 346 342 325 323 321 326 326 328 325 326 329 327 328 332 332 331 330
317 316 316 315 315 315 315 315 315 315 315 315 316 316 316 316 317 317 317 316 316 315 316 319 319 318 315 308 320 323 324 327 321 325 321 324 325 329 327 326 326 329 329 330 329 329 328
316 315 315 315 315 314 314 314 314 314 314 315 315 316 316 316 316 316 315 315 314 316 320 322 321 318 315 314 320 318 319 327 326 327 321 325 327 328 329 324 329 329 323 328 328 327 323
315 315 315 314 314 314 314 314 313 314 314 315 315 315 315 315 315 315 314 314 315 321 321 322 320 318 314 325 327 319 321 326 329 331 327 328 329 329 328 330 323 323 323 317 323 324 324
315 314 314 314 314 314 314 314 314 315 314 315 315 314 314 314 314 313 312 313 316 322 319 320 320 318 315 320 316 321 322 322 327 330 331 329 329 325 326 320 316 316 313 316 317 324 322
314 314 314 314 314 314 314 314 314 314 314 314 314 314 313 313 312 311 311 313 319 319 323 324 323 314 317 314 318 317 321 325 326 326 325 323 323 319 320 317 307 310 312 316 315 320 321
314 314 314 313 313 313 314 314 314 314 314 314 314 313 313 312 311 310 312 315 312 316 320 316 316 315 317 320 319 314 324 322 325 323 316 319 315 312 314 319 318 315 315 314 319 320 319
313 313 313 313 313 314 314 314 314 314 314 314 313 313 312 311 310 310 313 307 306 306 300 307 308 309 317 320 313 312 323 315 320 315 317 315 311 315 315 316 317 316 314 315 318 320 319
313 313 313 313 313 314 314 314 314 314 314 314 313 312 311 310 310 310 310 307 312 312 300 303 309 308 312 318 314 314 315 315 317 314 312 308 311 315 311 312 313 313 312 313 313 318 319
313 313 314 314 314 314 314 314 314 314 313 313 313 312 311 308 308 310 307 310 313 312 297 302 306 309 311 315 311 320 314 314 317 314 312 310 313 310 309 308 311 307 314 314 312 313 309
312 313 314 314 314 314 314 314 314 314 313 313 312 311 309 306 311 308 308 311 312 309 289 306 306 315 313 309 314 314 318 313 310 311 313 309 308 308 307 308 311 308 313 312 312 311 311
313 313 313 314 314 314 314 314 314 313 312 312 311 310 309 309 311 309 311 311 310 295 289 303 306 305 306 309 311 316 313 314 316 311 313 312 314 312 311 312 312 313 310 311 311 309 303
312 313 313 314 314 314 314 314 313 312 312 311 309 307 308 310 305 311 311 306 293 288 303 300 301 306 306 306 307 311 309 305 305 302 304 309 310 312 313 309 312 310 307 300 299 300 300
312 313 314 314 314 314 314 314 313 312 311 310 307 306 311 310 311 311 308 299 287 293 296 301 300 301 299 306 307 309 308 306 307 308 305 303 301 309 312 310 308 308 307 300 295 297 300
313 314 314 314 314 314 314 313 312 311 310 309 306 312 310 309 311 310 302 290 291 294 296 295 297 299 301 305 305 307 306 306 309 308 303 304 304 312 312 313 312 308 305 310 305 307 303
313 313 313 314 313 313 314 313 312 311 310 307 309 308 310 310 311 307 298 291 293 296 296 296 291 297 295 300 302 304 305 309 309 310 313 310 306 311 311 313 312 311 313 303 305 299 299
312 313 313 313 313 313 313 313 312 311 309 307 309 302 308 310 310 302 292 292 294 297 297 294 292 292 295 294 298 302 304 306 308 310 313 311 310 310 313 308 307 307 308 308 308 306 301
312 313 313 313 313 313 313 313 312 310 307 307 306 298 309 310 297 302 293 294 294 295 297 295 296 295 294 295 295 298 300 305 305 308 306 312 309 305 308 312 313 312 309 310 303 304 306
312 313 313 313 313 313 313 313 311 309 308 306 303 302 310 307 292 293 296 294 295 294 294 293 292 295 297 295 292 297 300 305 305 307 307 311 306 303 306 309 312 309 310 311 310 309 306
313 312 312 313 313 314 313 312 311 310 309 307 303 296 301 302 301 295 293 292 291 295 294 295 294 296 294 294 296 296 297 302 304 304 307 308 307 306 303 307 309 306 309 310 310 306 306
312 312 312 313 313 314 313 312 312 310 309 308 302 296 298 293 295 295 295 293 291 290 294 295 293 293 292 290 293 291 296 300 304 304 307 307 304 308 309 310 310 309 308 308 308 309 306
312 312 312 313 313 314 314 313 312 311 309 306 297 295 297 296 296 293 293 292 291 291 292 290 291 291 292 291 291 289 293 296 298 303 303 306 301 307 306 309 308 306 309 309 309 309 310
311 312 312 313 313 313 313 313 312 311 309 304 303 302 298 293 294 291 292 292 291 293 294 295 294 293 291 293 297 299 299 300 299 298 299 301 302 304 301 307 306 301 307 309 310 312 311
311 311 311 311 313 313 313 313 313 312 310 309 303 299 292 290 292 291 292 293 292 294 292 294 296 294 297 301 301 300 300 299 299 299 301 298 300 301 299 303 295 307 314 312 310 312 314
311 311 311 311 312 312 313 313 313 312 311 310 305 298 293 289 292 292 293 293 294 295 294 294 296 298 302 298 293 292 293 294 296 298 299 301 299 297 296 299 303 306 309 310 308 308 314
311 311 312 311 311 312 312 312 313 312 311 309 306 306 297 290 292 296 293 295 293 292 294 296 299 302 301 295 292 287 287 292 292 294 299 299 300 296 298 295 295 305 310 312 313 304 315
311 311 311 311 311 311 311 312 312 312 312 309 307 307 299 291 295 296 292 293 297 295 292 295 297 295 300 290 289 288 287 293 289 290 292 293 295 292 294 294 300 308 312 313 301 310 318
311 311 311 311 311 311 311 312 312 313 312 310 308 308 300 293 295 300 300 295 295 294 292 295 295 296 294 290 290 290 289 292 292 294 294 294 292 292 294 292 291 309 307 305 311 316 316
311 311 311 311 311 311 311 311 312 312 312 312 305 308 306 297 298 305 304 305 303 301 297 297 295 295 297 294 296 294 291 293 292 289 298 291 296 295 296 296 307 309 308 312 312 311 312

GFSGBSN_sfc_thetae_042.txt.gz
Theta_e
317 317 316 316 316 315 315 315 315 315 315 315 315 316 316 316 316 316 317 317 316 316 316 317 317 318 316 311 310 324 348 345 326 318 319 318 322 324 323 327 328 325 325 329 331 331 330
316 316 316 315 315 315 314 314 315 315 315 315 316 316 316 316 316 317 317 316 316 315 318 319 319 319 313 307 324 324 327 329 320 316 319 318 322 326 326 326 325 327 327 329 331 328 331
316 315 315 315 315 314 314 314 314 314 315 316 316 316 316 316 316 316 316 315 315 316 320 324 322 318 311 312 325 322 323 326 323 319 315 320 322 324 326 324 329 326 322 326 326 327 325
315 315 315 315 315 315 315 314 314 315 315 316 316 316 315 316 315 315 315 314 314 317 324 322 325 318 310 327 325 323 318 320 324 322 320 323 322 322 323 328 325 321 321 316 324 327 326
315 315 315 315 315 315 315 315 315 315 315 315 315 315 315 315 314 313 313 313 315 320 321 321 319 315 313 328 322 324 322 314 323 324 324 325 321 318 320 318 317 319 312 316 319 326 324
314 314 315 314 314 315 315 315 315 315 315 315 315 314 314 314 313 312 311 313 320 320 321 322 323 314 318 316 321 323 324 319 320 321 321 319 318 313 314 315 309 312 312 316 316 320 321
314 314 314 314 314 315 315 315 315 315 315 315 314 314 313 313 312 311 311 312 306 312 309 309 315 313 317 323 323 318 321 317 320 318 313 318 311 309 312 316 318 317 314 312 318 323 318
314 313 314 314 315 315 315 315 315 315 315 315 314 313 313 312 311 310 310 306 304 306 299 306 307 307 313 319 314 316 319 312 314 311 316 314 309 314 316 317 316 316 313 311 316 321 319
313 313 315 315 315 315 315 315 314 314 314 314 313 313 312 311 310 311 310 306 310 310 299 301 305 305 307 311 311 315 314 314 313 312 313 310 312 316 315 314 312 314 312 312 313 318 319
314 314 315 315 315 315 315 314 314 314 313 313 313 312 311 309 308 311 306 310 311 311 294 299 304 307 308 309 308 321 316 317 313 310 315 313 316 313 312 312 312 309 317 315 314 313 308
314 314 315 315 315 315 314 314 314 313 313 312 312 311 310 308 308 308 307 310 311 308 286 306 307 316 312 305 312 313 321 316 310 312 314 311 312 311 310 311 313 309 314 315 314 311 311
314 314 314 315 315 314 314 314 313 312 312 312 311 310 309 311 311 310 310 310 308 293 285 301 307 305 306 307 307 312 315 317 316 312 315 314 317 313 311 313 312 313 312 312 311 310 303
313 314 314 315 315 314 314 314 313 312 311 311 309 307 307 312 306 310 310 306 293 287 299 296 297 300 300 302 306 306 309 309 304 300 307 312 312 313 313 309 311 310 306 300 299 300 299
314 315 314 314 314 314 314 314 313 312 311 310 307 305 313 313 312 310 307 298 287 293 294 298 296 297 296 303 304 306 305 306 307 306 305 303 302 311 312 309 307 307 305 300 294 297 299
313 314 314 314 314 313 313 313 312 311 310 309 306 313 313 313 311 309 301 291 291 292 295 293 293 292 294 299 300 303 305 306 308 306 304 304 303 313 313 313 312 307 303 309 303 304 301
313 314 314 314 314 313 314 313 312 311 310 308 307 309 310 313 311 307 298 291 294 297 296 294 288 292 288 292 293 297 300 308 308 309 311 308 303 310 312 313 312 310 311 302 304 297 297
313 314 314 314 314 314 314 313 312 311 310 308 309 305 310 313 310 302 293 294 295 298 296 293 291 290 290 290 293 294 298 302 306 310 312 308 307 307 311 308 306 307 306 306 306 304 298
314 314 314 314 314 314 314 314 312 310 308 307 306 300 312 311 298 298 293 296 295 296 298 295 295 293 292 293 292 293 295 301 308 306 304 311 306 302 306 313 313 311 307 309 303 302 305
314 314 314 314 314 314 314 313 312 310 309 306 302 304 312 308 292 293 296 295 296 295 295 294 293 293 294 291 289 294 296 302 304 304 302 306 305 300 303 309 312 308 309 309 310 308 305
313 313 313 314 314 314 314 313 312 311 310 308 303 296 302 302 300 295 293 292 292 296 295 295 294 296 293 291 293 291 292 299 303 304 313 308 304 304 301 306 311 307 307 309 308 304 305
312 312 312 313 314 314 314 313 312 311 310 308 302 297 298 292 294 295 296 294 292 292 295 295 293 292 292 288 289 289 294 296 300 307 306 307 302 306 308 310 311 308 307 308 307 309 305
312 313 313 313 313 314 314 313 313 312 310 305 297 295 296 295 297 294 294 292 292 293 293 291 291 292 293 290 290 289 292 293 294 300 299 305 301 306 305 309 309 308 309 308 309 308 309
312 313 313 313 313 313 313 313 312 312 310 302 305 302 295 292 294 292 292 292 292 294 295 295 293 293 292 293 296 296 297 297 297 296 297 299 300 301 299 307 307 304 309 309 310 311 310
312 312 313 312 312 313 313 313 313 312 310 308 307 300 291 288 292 292 294 294 293 294 292 295 295 293 296 302 300 298 298 297 298 298 300 297 298 300 298 303 295 308 315 313 311 312 313
312 312 312 313 312 313 312 313 313 312 311 310 311 298 292 288 292 293 293 294 295 297 295 295 296 299 301 298 292 290 292 293 295 298 298 300 298 296 296 298 304 307 311 311 309 310 315
312 312 312 312 312 312 312 312 312 312 312 312 309 304 296 289 290 296 293 295 292 293 294 295 300 302 300 293 291 286 285 292 290 294 300 299 301 296 297 295 295 307 312 315 315 305 317
312 312 312 312 311 311 311 312 313 313 312 312 308 307 299 291 294 297 293 292 297 295 293 296 297 296 300 291 289 288 288 294 290 290 292 293 294 293 294 294 301 309 311 314 303 306 318
311 311 311 312 311 311 312 312 312 313 313 311 308 309 300 294 295 300 300 297 297 296 291 296 295 295 295 290 291 291 290 292 292 294 294 293 291 291 294 293 293 308 308 305 313 314 314
311 311 311 311 311 311 312 312 312 313 313 312 305 309 307 297 297 304 305 305 304 302 298 297 295 294 295 292 294 292 290 292 292 288 298 291 296 294 296 297 310 310 308 311 311 311 312

GFSGBSN_sfc_thetae_045.txt.gz
Theta_e
316 316 316 316 316 315 315 315 315 316 316 315 316 317 317 317 317 317 318 318 317 316 317 318 319 317 314 306 306 321 348 351 330 321 312 309 309 314 313 322 325 322 325 328 329 327 329
316 316 316 315 315 315 314 314 315 315 316 316 317 317 317 317 317 317 317 317 317 316 317 320 321 319 309 300 319 321 328 330 325 315 311 311 312 318 316 319 321 325 326 326 326 326 328
315 315 315 315 315 315 315 315 315 315 316 317 317 316 316 316 316 317 316 316 315 315 316 321 323 317 308 303 320 321 324 321 318 314 309 312 316 313 319 317 325 325 320 325 326 327 327
315 315 315 315 316 316 316 315 315 316 316 316 316 316 316 316 316 316 315 314 315 316 317 323 323 317 305 318 317 316 319 321 318 316 313 314 317 312 311 320 320 318 319 312 322 324 327
315 315 315 315 316 316 316 316 316 316 316 315 315 315 315 315 314 314 313 313 318 318 320 321 317 312 305 326 317 320 319 317 318 316 315 317 314 309 309 309 308 311 307 310 316 323 323
314 314 315 315 316 316 316 316 316 316 315 315 315 314 314 314 313 312 312 314 318 317 321 321 319 307 312 313 319 321 320 317 313 314 312 310 308 305 304 304 299 304 306 310 312 319 321
314 314 315 315 315 316 316 316 315 315 315 315 314 314 313 313 312 311 308 304 299 302 304 296 299 305 302 317 317 319 320 317 311 312 305 310 303 300 302 306 308 312 311 310 314 321 317
314 314 315 315 316 315 315 315 315 315 314 314 314 313 312 312 311 310 308 300 299 301 294 301 302 302 305 308 304 311 320 310 307 304 308 306 302 307 310 309 308 311 310 311 314 317 316
314 314 315 316 316 315 315 315 315 314 313 313 313 312 312 310 310 309 305 302 306 304 293 297 300 301 302 303 302 305 312 311 305 304 305 304 307 313 311 307 306 308 308 309 309 313 315
314 315 315 315 315 315 315 315 314 314 313 313 313 312 311 308 305 305 305 308 306 305 288 295 298 304 305 303 300 310 313 310 307 303 306 306 312 311 309 307 308 303 312 313 312 309 302
315 315 315 315 315 315 314 314 314 313 312 312 312 311 310 308 303 303 307 308 306 302 280 302 300 309 304 299 302 305 312 309 304 304 307 304 309 309 307 308 311 307 312 311 311 308 306
315 315 315 315 315 314 314 313 313 312 312 312 311 310 309 307 306 308 309 306 303 288 283 295 298 296 296 298 302 307 306 311 310 305 309 307 316 312 310 312 312 314 309 307 309 307 299
315 315 315 315 315 314 313 313 313 312 312 311 309 308 307 309 303 309 308 301 287 283 296 292 291 293 292 294 296 298 299 302 301 296 299 305 307 314 314 308 311 309 302 294 293 295 295
315 315 315 314 314 314 314 314 313 312 311 310 307 306 310 311 311 310 303 293 283 291 290 294 292 292 289 292 293 295 294 295 305 303 298 297 297 308 314 308 304 305 303 294 289 291 295
315 315 315 314 314 314 314 314 313 312 311 309 307 309 309 312 313 307 297 286 288 290 292 290 290 287 288 290 292 292 291 293 301 306 297 296 297 312 313 311 307 302 299 301 291 294 291
315 315 315 314 314 314 314 314 313 312 311 308 304 306 308 312 309 303 293 289 292 295 294 292 285 288 285 288 289 289 290 296 296 302 299 301 294 308 312 314 309 304 304 295 296 287 288
314 315 314 314 314 314 314 314 313 312 310 309 304 302 308 311 308 299 289 292 294 297 296 292 289 287 287 287 290 289 290 295 300 298 300 298 297 298 306 305 304 301 299 300 296 294 289
314 314 314 314 314 314 314 314 313 310 309 306 302 295 310 309 296 296 291 294 295 294 296 294 293 291 288 289 287 288 288 292 300 298 292 298 296 294 297 306 311 306 302 300 295 291 293
314 314 314 314 313 314 314 313 312 310 309 304 297 300 309 305 289 291 294 294 295 293 292 293 291 292 292 289 286 290 292 298 299 296 294 298 293 292 295 300 305 304 304 303 299 297 293
314 314 313 313 313 314 313 313 312 311 310 305 300 293 298 300 297 292 291 291 291 297 295 294 292 293 291 288 290 288 289 296 298 297 304 303 295 292 292 296 300 300 304 303 301 296 295
313 313 313 313 313 314 314 313 312 311 310 305 300 294 296 289 290 291 293 292 290 290 295 295 291 291 290 285 288 288 291 292 295 299 298 295 290 297 301 303 305 305 304 304 300 300 298
313 313 313 313 313 314 313 313 312 311 310 303 296 295 295 292 293 291 292 290 290 291 292 290 289 291 290 287 288 286 289 289 290 294 292 293 290 296 298 304 305 304 307 306 305 304 303
312 313 312 313 313 313 313 313 312 311 309 301 305 303 296 292 290 290 290 291 291 293 294 295 294 290 289 291 294 294 295 294 293 292 290 290 291 291 291 302 304 298 305 305 305 306 305
312 312 312 312 312 313 313 313 312 312 311 307 305 300 291 287 289 289 291 293 292 293 291 295 295 292 294 298 297 296 294 293 293 293 294 290 290 291 291 298 290 302 311 311 307 308 307
312 312 312 312 312 312 311 311 312 312 311 307 309 299 292 286 290 291 293 293 294 295 293 294 295 297 299 295 289 287 288 290 292 294 293 295 291 288 289 294 298 304 305 305 304 306 313
312 312 312 311 311 311 312 312 312 313 312 310 309 304 296 289 289 294 292 293 291 291 292 294 300 301 298 292 288 283 282 286 288 290 295 295 295 292 292 291 292 298 305 307 309 299 310
312 312 312 311 311 312 312 312 313 313 312 311 309 305 298 290 293 295 292 292 296 294 291 293 295 294 297 289 285 285 285 292 286 288 288 290 291 289 290 290 296 300 304 311 298 300 308
311 311 311 311 311 312 312 313 313 313 313 311 307 308 300 293 295 299 299 295 296 296 291 294 292 294 292 288 288 287 287 289 289 291 289 290 289 288 289 290 288 303 303 297 305 308 308
311 311 310 311 311 312 312 312 313 313 313 312 305 309 307 297 297 303 303 304 302 301 297 297 294 293 294 289 289 289 287 291 288 284 294 287 291 287 291 291 300 303 302 305 306 304 304

GFSGBSN_sfc_thetae_048.txt.gz
Theta_e
316 316 316 315 315 315 315 315 315 316 316 316 316 317 317 317 317 317 317 317 317 316 317 317 319 318 312 304 304 317 343 346 330 325 313 309 305 305 307 315 321 322 325 329 330 327 328
316 316 315 315 315 315 315 315 316 316 316 316 317 317 317 316 317 317 317 317 316 316 316 317 321 318 307 298 314 317 326 331 321 318 311 308 306 308 310 311 317 324 325 326 329 325 326
315 315 315 315 315 315 315 315 315 316 316 316 316 316 316 316 316 317 316 315 316 317 319 316 322 316 308 302 313 315 315 324 321 317 309 310 310 310 311 311 317 317 316 323 325 326 325
315 315 315 315 315 315 315 315 316 316 316 316 316 316 316 315 316 315 314 314 315 320 318 317 324 315 303 316 316 314 313 314 320 318 310 312 310 308 306 309 308 312 313 311 323 325 328
315 315 315 316 316 316 316 316 316 316 315 315 315 315 315 315 314 313 313 313 316 320 320 322 315 311 303 322 315 315 315 316 313 311 310 314 308 305 305 300 297 304 302 308 316 325 326
315 315 315 315 315 316 315 315 315 315 315 315 314 314 314 314 313 312 311 313 315 319 320 321 319 306 307 308 309 311 316 317 312 309 308 306 301 297 300 295 293 298 302 306 309 320 323
315 315 315 315 315 316 315 315 315 315 315 314 314 313 313 313 312 311 308 300 296 292 302 293 295 306 303 304 307 309 314 315 313 307 299 302 297 295 298 300 301 305 305 306 311 318 320
314 314 315 314 315 315 315 315 314 315 314 314 313 313 313 312 311 310 304 296 295 297 289 299 299 298 301 302 298 302 310 307 305 302 303 300 297 301 305 303 302 303 302 305 312 316 315
314 314 315 315 315 315 315 314 314 314 314 313 313 312 312 310 310 303 300 300 303 295 287 294 298 297 298 299 297 298 303 306 304 300 302 299 303 308 306 304 301 301 300 302 307 312 314
315 315 315 315 315 315 314 314 314 314 313 312 312 312 310 309 300 300 300 303 305 297 284 292 296 300 300 300 296 306 305 305 305 300 300 302 307 306 305 303 303 297 306 306 307 306 300
316 315 315 315 315 315 314 314 314 313 313 312 312 311 309 308 298 299 303 303 305 295 278 298 295 302 299 294 297 301 307 304 301 301 300 299 303 304 303 304 307 302 307 306 307 304 300
316 315 315 315 315 315 314 314 313 313 312 312 311 309 309 303 300 303 305 304 295 285 280 292 294 293 292 294 295 299 300 303 306 302 302 302 308 307 307 310 310 310 306 305 303 300 297
315 315 315 315 315 314 314 314 313 313 312 311 309 307 307 307 297 302 303 294 283 279 292 288 287 290 289 290 292 294 294 292 291 290 294 300 301 307 311 306 309 307 299 294 290 292 292
315 315 315 314 314 314 314 314 313 312 312 310 307 306 307 308 305 305 297 288 278 288 286 290 289 288 287 291 291 292 291 289 297 295 290 292 291 302 308 306 304 303 300 292 287 288 292
315 315 315 314 314 314 314 313 313 312 311 309 307 301 302 305 308 302 291 281 282 287 290 289 287 284 285 288 289 290 289 291 295 296 288 286 293 306 308 310 309 302 299 301 291 289 290
314 315 315 314 314 314 313 313 313 312 311 309 300 297 300 306 304 295 287 285 287 294 292 290 283 285 281 284 286 288 288 293 292 297 297 292 286 300 306 308 309 304 304 294 289 287 283
314 314 314 314 314 313 313 314 313 312 310 309 295 293 301 308 300 292 282 284 291 294 294 290 286 284 284 283 285 285 288 291 296 296 297 293 288 294 300 298 302 299 300 297 297 290 289
314 314 314 314 313 313 314 313 312 311 309 303 293 288 302 304 290 288 285 290 295 294 295 292 292 290 286 286 284 285 288 291 297 298 291 294 291 287 294 302 303 308 297 297 293 288 288
314 314 314 313 313 313 314 313 311 310 309 302 291 291 301 298 283 284 288 292 294 293 293 291 290 290 288 284 283 288 290 295 297 296 293 294 291 284 290 292 298 296 303 297 294 292 289
313 313 313 313 313 314 313 313 311 310 310 299 292 286 291 292 289 284 286 288 289 296 294 293 291 289 288 284 287 286 288 294 296 295 299 298 291 287 284 289 294 294 299 299 298 293 292
312 312 312 313 313 313 313 312 311 310 309 299 291 287 289 284 287 288 289 289 289 288 293 294 290 289 287 282 283 285 289 291 293 296 295 293 286 287 289 292 295 296 301 301 296 297 295
312 312 312 312 312 313 313 312 312 311 309 296 289 289 289 287 290 289 289 289 289 291 291 289 289 290 290 283 285 283 287 288 288 291 290 291 284 286 285 296 298 298 304 303 301 301 298
312 312 312 312 312 313 313 313 312 310 308 294 295 296 294 292 290 288 287 289 290 292 294 295 292 290 288 289 291 291 292 292 292 290 288 288 285 283 284 296 300 296 298 303 301 301 300
312 312 312 312 312 311 311 311 312 311 310 304 298 300 291 287 290 290 291 292 292 292 290 294 294 290 294 298 296 292 291 291 292 292 293 288 285 284 284 292 288 297 302 302 303 303 304
312 312 312 311 311 311 312 312 312 312 311 306 305 299 293 287 290 291 292 293 293 293 292 293 295 297 298 292 284 283 284 287 290 292 291 293 289 281 285 290 296 298 299 298 296 298 303
312 312 311 311 311 312 312 312 312 313 312 308 303 305 296 290 289 294 292 293 290 290 291 292 297 297 295 287 284 281 281 286 286 290 293 292 293 286 286 288 288 294 301 304 305 292 302
311 311 311 310 311 311 312 313 313 313 312 309 304 305 298 291 294 295 292 291 295 293 290 292 292 291 293 288 284 284 284 290 285 285 285 286 288 287 288 290 293 297 301 306 292 295 303
311 311 310 311 311 311 312 312 313 313 313 310 306 306 300 293 295 298 299 295 295 295 290 294 289 289 286 284 285 284 285 287 287 289 287 287 286 285 286 288 286 299 300 293 296 301 302
310 310 311 311 310 311 312 312 313 313 313 312 304 309 306 298 298 301 302 303 301 300 296 297 292 290 289 286 286 287 285 288 287 283 291 285 289 287 287 289 298 300 301 303 301 299 299

GFSGBSN_sfc_thetae_051.txt.gz
Theta_e
316 316 316 316 315 315 315 316 316 316 315 316 316 316 317 316 316 316 317 317 316 316 316 317 317 318 310 300 300 313 345 334 330 318 312 308 306 306 306 311 317 322 325 329 332 328 327
315 315 316 316 315 315 315 315 315 315 316 316 316 316 316 316 317 317 317 316 317 316 317 317 317 317 306 294 308 315 324 326 323 315 309 307 305 307 307 308 317 321 323 324 327 327 326
315 315 316 315 315 315 315 315 315 315 315 316 316 316 316 316 317 317 316 316 315 317 321 318 320 315 306 301 313 314 312 318 321 313 307 309 307 307 306 308 314 315 312 315 318 324 324
315 315 315 315 315 315 315 315 315 315 316 316 316 316 316 316 316 316 315 314 315 320 318 319 323 315 303 315 316 316 312 310 320 317 309 310 308 305 304 308 306 308 307 303 313 323 325
315 315 315 315 315 315 315 315 315 315 315 315 315 315 315 315 315 314 313 314 317 320 322 323 313 308 302 320 312 311 313 311 316 314 311 314 305 300 303 300 295 298 297 304 309 323 324
315 315 315 314 314 315 315 315 315 315 315 314 314 314 314 313 313 312 312 314 316 321 320 320 318 301 302 301 303 304 308 315 310 310 307 304 299 295 295 294 293 293 299 302 304 318 321
315 315 315 314 314 315 315 315 315 315 315 314 314 313 313 312 311 311 308 296 294 291 294 290 293 299 299 302 305 303 304 312 309 303 296 299 293 292 295 299 299 301 304 304 309 314 319
315 315 314 314 315 315 315 315 315 314 314 314 313 312 312 311 310 310 302 295 296 298 289 297 297 296 299 299 296 300 304 306 305 298 299 296 293 298 300 300 299 298 296 299 306 312 318
315 315 315 315 315 315 315 314 314 314 313 313 313 312 311 310 309 303 298 296 300 293 286 292 296 296 297 295 295 298 299 302 301 300 299 295 298 302 301 299 298 297 296 297 301 309 314
315 315 315 315 315 315 314 314 314 313 313 312 312 311 310 309 299 299 298 299 301 297 283 290 292 297 297 297 294 303 303 300 301 299 301 299 303 302 299 299 300 292 301 302 302 302 300
314 315 315 315 315 314 314 314 314 313 312 312 312 311 309 308 297 297 300 301 300 294 277 294 292 300 295 291 294 298 304 300 296 296 297 297 301 300 299 300 303 299 302 302 302 298 300
314 314 314 314 314 314 314 313 313 313 312 312 311 309 309 302 298 300 302 299 294 284 278 289 292 291 291 292 294 297 298 304 302 299 299 298 304 304 303 306 305 306 302 300 299 297 295
314 314 314 314 314 314 313 313 313 312 312 311 309 307 306 306 296 302 300 292 283 278 290 287 286 288 287 289 291 293 295 294 292 290 289 296 299 303 305 301 304 303 296 289 288 289 292
314 314 315 314 314 314 313 313 313 312 311 310 307 306 304 307 305 303 294 287 278 288 284 289 288 286 285 289 289 291 289 289 295 293 289 286 289 299 304 302 300 300 297 289 284 286 293
314 314 314 314 314 313 313 313 312 312 311 309 306 298 299 302 304 299 291 280 281 285 289 287 287 282 283 287 287 288 287 287 294 294 287 287 288 297 300 304 305 300 297 300 291 287 289
313 313 314 314 313 313 313 313 312 312 310 308 298 293 296 306 301 294 286 284 284 292 292 288 282 284 280 283 284 283 284 292 292 296 295 291 285 293 298 303 305 304 303 294 290 286 283
313 313 313 314 314 313 313 313 312 312 310 308 293 291 299 304 297 291 282 282 290 294 295 289 285 283 283 282 284 282 285 291 294 294 296 292 289 289 296 295 297 297 300 298 297 292 291
313 313 314 314 313 313 314 313 312 310 308 301 290 287 300 298 288 286 284 288 294 292 294 290 289 287 284 284 283 284 286 289 296 296 290 294 291 287 289 299 300 296 298 295 296 290 287
313 313 313 313 313 313 313 312 311 309 309 302 291 288 299 296 282 283 288 290 293 292 291 291 289 289 288 283 281 287 289 295 296 294 291 294 289 282 287 291 296 293 296 301 295 291 290
312 312 312 313 313 313 313 312 311 310 309 296 291 285 289 289 288 283 285 287 289 295 293 292 291 290 286 283 285 284 288 294 295 294 300 297 290 286 282 286 290 288 291 293 293 294 290
312 311 312 312 313 313 313 312 311 310 309 297 289 285 287 282 284 285 286 287 288 288 294 293 290 291 288 281 282 283 287 289 293 296 295 293 285 288 287 289 290 289 289 291 292 295 294
312 312 312 312 312 312 311 312 311 310 307 294 289 288 289 286 287 288 287 286 287 290 290 289 289 291 290 284 284 281 284 284 286 290 290 291 284 285 285 289 289 288 291 294 295 298 295
312 312 312 312 312 311 311 311 312 310 306 295 294 295 294 292 290 289 289 290 289 292 292 294 292 290 288 289 291 289 288 288 288 286 287 288 285 284 280 288 292 289 295 297 298 298 298
312 312 312 312 311 311 312 312 312 311 309 304 301 300 292 287 290 290 291 292 291 293 290 293 294 288 293 297 295 291 288 289 288 289 291 287 287 286 280 284 287 294 300 300 297 297 299
312 312 312 311 311 311 312 312 312 313 312 305 305 300 293 287 291 291 293 293 293 294 291 292 294 295 296 292 284 280 280 282 284 289 290 291 288 285 280 285 294 296 297 295 294 293 299
311 311 311 311 311 312 312 312 313 313 312 308 305 306 297 290 290 294 292 293 290 290 291 293 296 297 294 289 284 280 278 285 284 286 291 291 290 286 285 283 288 293 298 301 301 289 298
311 310 310 311 311 312 312 313 313 313 312 308 305 305 298 291 294 295 292 292 295 291 288 292 293 291 292 287 283 282 281 286 284 284 284 286 286 283 285 284 292 297 298 302 288 289 298
311 310 310 310 311 311 312 312 313 313 313 309 305 306 301 294 295 298 299 296 296 294 288 293 291 289 288 284 283 283 284 286 286 287 286 286 285 285 287 288 287 299 299 291 293 297 297
309 310 310 311 311 311 312 313 313 313 313 311 304 308 306 299 298 298 302 303 302 301 297 296 292 292 290 286 286 287 286 286 285 282 291 285 287 285 286 288 297 297 300 298 299 297 297

GFSGBSN_sfc_thetae_054.txt.gz
Theta_e
316 316 316 316 315 315 315 315 316 316 316 316 316 316 316 316 316 317 318 317 317 317 317 317 317 318 308 297 298 312 337 332 327 325 321 312 315 306 309 312 318 323 324 327 331 330 325
316 315 316 315 315 315 315 315 315 315 315 315 316 316 316 316 317 317 317 317 316 317 319 319 317 317 303 291 305 315 326 324 326 317 312 308 313 309 307 310 314 319 324 323 325 324 326
315 315 315 315 315 315 315 315 315 315 315 315 315 316 315 316 316 316 316 315 315 317 320 319 320 314 304 300 314 316 319 320 318 313 308 307 308 308 306 305 312 314 309 313 315 319 322
315 315 315 315 315 315 315 315 314 315 315 315 315 315 315 315 315 315 315 314 315 318 318 320 322 311 301 314 315 316 311 311 319 315 307 307 307 303 302 307 304 305 305 303 312 318 323
315 315 315 315 315 315 315 315 315 315 315 315 315 315 314 314 314 313 313 313 316 321 321 322 314 303 298 319 309 306 308 308 315 315 313 313 303 298 301 298 296 296 298 303 309 318 321
315 315 315 315 315 315 315 315 315 315 315 314 314 314 313 313 312 312 312 313 322 320 320 320 316 298 300 298 301 303 304 314 313 311 309 302 297 293 293 293 291 293 295 301 304 312 319
315 315 315 315 314 315 315 315 315 315 314 314 314 313 313 312 311 311 306 296 293 291 294 289 292 294 297 300 302 300 302 310 307 304 296 297 292 291 294 298 298 299 300 302 306 312 316
315 315 315 314 314 315 315 315 314 314 314 314 313 313 312 311 311 311 299 295 296 297 289 294 295 295 297 297 295 301 303 305 302 296 297 293 291 296 297 296 298 297 295 297 304 310 315
315 315 315 315 315 315 315 314 314 314 313 313 313 312 311 310 310 301 297 295 299 292 286 291 294 295 295 293 294 297 300 299 301 297 295 291 295 300 298 296 294 295 293 294 299 305 311
315 315 315 315 315 315 314 314 313 313 313 312 312 311 310 309 299 297 295 298 300 295 282 288 290 295 296 295 292 300 301 298 297 298 299 296 300 298 296 295 296 289 300 301 299 298 295
314 315 315 315 314 314 314 313 313 313 312 312 312 311 309 308 296 295 299 299 296 292 275 292 291 298 295 291 292 295 303 300 294 295 297 296 298 298 295 296 298 294 300 298 299 296 294
314 314 314 314 314 314 314 313 313 313 312 312 311 309 309 302 297 300 301 299 292 283 277 287 291 289 290 291 293 295 301 303 303 298 297 296 301 301 301 302 301 302 298 297 296 294 290
314 314 314 314 314 314 313 313 313 312 311 311 309 307 305 305 298 302 300 292 282 277 289 286 285 286 286 288 290 291 294 292 289 287 288 295 296 300 302 297 300 300 294 286 285 287 289
314 314 314 314 314 314 313 313 313 312 311 310 307 305 302 306 304 300 293 287 277 286 283 287 286 284 283 287 287 289 288 287 293 291 287 285 288 296 300 298 296 297 294 286 281 284 291
313 313 314 314 314 314 313 313 312 312 311 309 306 296 297 300 303 296 291 280 280 283 288 286 286 281 281 286 286 286 285 287 292 292 285 284 287 297 299 300 299 296 293 297 289 287 287
313 313 313 313 314 313 313 313 312 312 311 309 295 291 295 303 297 293 287 283 284 291 291 287 281 283 279 281 282 282 283 291 291 294 292 289 283 292 297 300 300 297 301 292 289 285 281
314 313 312 313 313 313 313 313 312 311 310 307 291 291 298 301 296 290 282 282 288 293 294 287 284 282 282 281 282 281 283 290 292 293 294 287 287 288 294 293 294 294 295 295 295 291 287
313 313 313 313 313 313 313 313 312 310 308 301 289 286 300 297 286 283 281 286 293 290 293 290 288 286 284 284 282 283 284 288 297 294 288 290 290 285 287 296 298 295 292 294 293 290 291
313 313 313 313 313 313 313 312 311 309 308 298 289 288 298 294 281 280 285 288 291 290 289 289 288 288 286 283 281 286 287 295 296 293 289 290 289 279 285 288 294 292 291 289 288 291 292
312 312 312 313 313 312 312 312 310 309 309 295 289 284 288 288 285 281 284 284 286 294 291 292 289 290 287 284 285 283 286 293 294 293 299 295 284 284 281 284 288 287 290 291 287 284 292
312 312 312 312 312 311 312 312 311 309 307 296 288 284 286 282 284 289 287 285 286 287 292 292 289 290 288 283 284 283 286 288 293 296 294 288 281 283 287 289 289 288 289 290 287 289 287
312 312 312 312 311 311 312 312 312 310 306 293 288 287 287 285 290 289 289 285 287 289 289 288 288 291 290 287 287 284 286 284 286 289 288 287 282 287 284 288 288 287 291 292 292 292 292
312 312 312 312 311 311 312 312 312 310 304 293 295 298 295 292 291 289 289 290 290 291 292 293 293 290 289 289 291 291 290 287 286 286 285 286 285 285 279 286 287 286 291 295 295 294 296
312 312 312 311 312 312 312 312 313 311 308 302 301 300 293 288 290 290 292 293 292 293 290 293 294 290 293 295 294 291 290 288 288 287 287 284 284 286 281 286 280 292 300 299 295 295 296
311 311 311 311 312 312 312 312 312 313 311 305 304 300 294 288 292 292 293 293 294 294 292 292 294 294 296 292 285 279 278 280 283 286 286 287 286 284 280 282 288 296 296 294 292 292 296
311 310 311 311 311 311 312 312 313 312 312 307 305 305 297 291 290 295 292 293 290 289 290 292 296 295 292 289 287 280 277 280 279 282 287 289 289 284 285 282 287 292 295 300 299 289 297
310 310 311 311 311 312 312 313 313 313 312 306 305 305 299 292 295 295 292 292 295 290 287 291 293 291 290 286 282 281 280 285 281 280 283 284 285 281 282 284 288 294 296 301 290 289 296
310 310 310 311 311 312 312 313 313 313 313 305 301 306 302 295 294 295 299 296 296 294 287 292 291 287 288 285 284 283 283 285 285 286 285 285 283 284 286 285 285 295 297 291 294 296 297
309 310 310 311 311 312 312 313 314 313 313 309 302 308 306 299 296 296 298 302 301 300 297 295 292 291 292 287 287 286 285 285 286 282 290 285 287 284 286 286 294 296 295 298 298 296 297

GFSGBSN_sfc_thetae_060.txt.gz
Theta_e
316 317 317 317 316 316 316 316 316 317 316 316 317 317 317 317 317 317 317 317 317 317 318 319 320 318 318 310 306 320 336 337 333 327 329 326 323 321 315 319 322 325 329 333 335 334 334
316 317 317 317 316 316 316 316 316 316 316 316 317 317 317 317 317 317 317 316 316 316 318 321 320 320 315 304 315 321 328 328 323 322 327 324 320 321 315 315 317 322 324 328 333 334 334
316 316 317 316 316 316 315 315 315 315 315 316 316 316 316 316 316 316 316 315 316 317 320 321 320 320 312 308 319 320 326 325 328 324 322 323 322 319 315 314 320 320 319 322 326 332 331
316 316 316 316 316 316 315 315 315 315 315 316 316 316 316 316 315 315 314 315 317 319 321 321 322 321 309 316 321 316 321 324 331 328 324 326 322 320 314 315 311 311 314 312 324 330 331
316 316 316 316 316 316 316 316 316 315 315 315 315 315 315 315 314 314 313 316 321 322 322 322 321 315 304 316 309 311 315 319 324 321 322 322 319 316 316 308 305 308 305 308 322 329 329
316 316 315 315 315 316 316 315 315 315 315 315 315 314 314 314 313 313 312 314 324 322 322 323 319 310 307 304 309 310 316 322 319 319 312 312 312 309 309 306 300 303 304 309 317 325 327
316 316 315 315 315 315 315 315 315 315 315 315 314 314 314 313 312 312 313 313 312 306 309 302 303 302 304 308 312 311 319 319 317 317 306 308 305 302 305 307 308 307 308 307 317 325 325
316 316 315 315 315 315 315 315 314 314 314 314 314 313 313 312 311 312 313 308 306 307 301 304 303 304 305 306 304 308 317 313 310 306 308 304 300 307 309 307 306 305 306 308 312 321 324
315 315 315 315 315 315 315 314 314 314 314 314 314 313 312 311 311 312 310 308 312 311 301 302 303 303 303 306 302 303 310 311 310 306 305 302 305 307 305 305 303 304 303 306 309 314 319
315 315 316 315 315 315 314 314 314 314 314 313 313 313 311 309 308 312 309 312 314 311 297 297 299 301 304 304 300 307 311 307 308 307 307 305 309 304 304 302 304 301 306 305 307 308 307
316 316 315 315 315 314 314 314 314 314 313 313 313 312 310 308 312 310 311 314 312 307 287 297 299 306 305 301 301 303 311 308 303 304 308 304 305 305 302 303 306 302 307 305 304 306 308
316 316 315 315 314 314 314 314 314 313 313 313 312 310 308 312 315 312 314 312 307 295 287 294 299 297 299 300 300 303 304 309 309 304 306 306 312 309 308 308 307 308 305 304 304 302 298
316 315 315 314 313 314 314 314 314 313 312 311 309 308 309 314 308 313 313 307 295 290 296 293 294 297 296 296 297 299 299 299 298 296 297 302 303 309 311 306 309 306 302 297 295 294 293
315 315 315 314 314 314 314 314 313 312 311 310 307 305 306 312 314 312 311 302 290 293 293 296 295 296 293 295 296 296 296 296 299 299 296 296 295 303 308 307 305 304 303 297 292 294 296
315 314 315 313 313 314 314 314 312 311 310 309 306 314 312 313 312 311 305 295 294 294 296 294 295 293 293 294 295 294 295 295 298 299 294 295 295 305 306 309 309 305 301 307 301 303 299
315 314 313 313 314 314 314 312 311 311 310 308 308 311 308 313 312 309 302 293 296 298 298 296 291 293 291 293 292 293 293 297 297 298 300 297 291 300 304 306 308 306 310 300 301 294 294
314 314 313 313 314 313 313 312 311 310 309 308 308 306 309 313 311 306 298 296 296 299 299 295 294 293 293 292 293 293 292 296 298 297 299 297 294 294 298 301 301 303 302 304 304 302 296
313 313 314 313 312 313 313 312 311 309 307 308 306 301 310 313 305 303 298 295 293 297 299 297 297 296 294 294 292 292 291 294 299 298 294 298 295 291 294 301 307 305 303 304 299 298 301
313 313 312 313 312 313 313 312 311 309 308 309 303 303 311 311 298 296 297 295 296 296 296 296 294 295 296 293 290 293 294 298 299 297 295 298 292 288 291 295 300 299 303 306 305 306 302
312 312 312 312 312 312 313 312 311 309 308 309 304 301 304 304 302 297 295 293 293 298 297 297 297 297 295 294 296 292 292 296 299 298 299 298 293 290 288 291 294 294 299 302 303 299 301
312 312 311 312 312 313 313 313 311 310 309 308 304 299 299 295 296 297 297 295 292 291 296 298 295 294 293 289 290 290 293 294 297 298 298 298 290 292 292 293 293 292 293 296 297 301 299
312 312 311 312 312 313 313 313 312 311 308 309 304 300 302 295 297 294 295 292 291 292 291 291 292 293 295 292 292 291 293 295 293 296 296 298 290 292 289 292 292 290 293 295 296 299 301
312 311 312 312 312 312 312 313 312 310 309 307 307 306 303 295 295 294 293 292 292 294 295 295 294 292 291 292 297 297 299 298 297 294 294 293 292 289 286 291 291 288 294 297 298 301 302
312 311 312 312 312 312 312 313 313 312 310 311 308 308 300 293 296 295 294 296 293 293 292 295 295 292 295 303 302 301 299 298 297 296 295 291 292 291 286 289 281 292 300 301 300 302 305
311 311 311 312 312 313 313 313 313 312 310 313 313 306 301 296 297 296 294 294 295 297 295 295 297 301 304 299 293 290 290 290 292 295 295 294 291 287 285 286 289 294 298 298 296 299 307
311 311 311 312 312 312 313 313 313 312 311 315 312 312 304 301 297 299 295 295 293 292 296 295 301 303 301 294 291 284 284 285 285 288 295 294 295 289 287 282 282 292 297 301 303 298 307
311 311 311 312 312 312 313 313 313 313 312 313 310 313 308 302 304 302 297 294 299 296 293 296 297 296 297 290 286 286 286 288 284 284 286 287 287 285 286 284 289 297 298 300 291 297 306
310 310 311 311 312 312 313 313 313 314 313 313 310 315 309 304 305 305 304 300 300 299 292 298 297 295 292 288 288 288 286 287 287 290 288 287 287 286 288 285 282 300 298 290 296 303 304
310 310 311 311 312 313 313 313 313 314 313 312 310 312 312 304 306 310 309 308 305 304 299 301 297 295 293 289 290 289 287 288 287 285 293 286 291 289 290 291 299 299 298 300 301 302 303

GFSGBSN_sfc_thetae_063.txt.gz
Theta_e
317 318 318 318 317 317 317 316 317 317 317 317 317 317 318 317 317 317 318 318 318 318 318 319 321 320 319 315 311 322 335 338 336 324 329 330 327 325 319 323 326 326 327 334 335 335 336
317 317 317 317 317 317 316 316 316 316 317 317 317 317 317 317 317 317 317 317 317 318 318 321 323 320 319 309 318 321 329 333 328 320 327 330 325 327 321 320 320 324 326 329 334 334 334
317 317 317 317 316 316 315 315 315 316 316 316 317 317 317 317 316 316 316 316 319 318 321 323 322 322 318 312 320 322 329 327 329 322 323 330 327 324 320 316 321 322 319 324 328 332 331
317 317 317 316 317 317 316 316 315 315 316 316 316 316 316 316 315 315 315 315 320 320 321 322 323 325 311 317 322 319 326 326 327 325 324 331 326 321 319 319 315 315 317 314 324 329 333
317 317 317 316 317 316 316 316 316 316 316 316 316 316 316 316 315 315 314 314 323 322 323 324 325 322 308 316 313 316 323 322 328 328 327 326 324 317 318 311 309 310 308 312 316 325 327
317 317 316 316 316 316 316 316 315 315 315 315 315 315 315 315 314 313 313 314 322 323 325 325 322 313 310 307 312 314 318 323 325 320 320 319 317 312 313 310 301 305 307 311 313 324 327
317 316 316 316 315 316 316 315 315 315 315 315 315 315 314 314 313 312 313 317 316 313 314 307 307 306 308 312 316 315 321 322 322 317 309 314 308 305 309 312 311 310 309 309 315 326 324
317 316 316 315 315 316 316 315 315 315 315 315 314 314 314 313 312 311 314 310 309 311 305 308 307 307 309 311 307 312 322 314 314 310 312 308 304 310 311 311 309 308 307 308 314 321 324
316 316 316 315 316 316 315 315 314 315 315 314 314 313 313 312 311 312 313 311 316 315 305 305 307 306 307 309 306 307 314 316 311 310 311 307 308 310 309 308 307 307 306 308 310 315 324
317 317 316 316 316 315 315 315 315 315 314 314 314 313 312 310 308 315 313 316 317 315 301 301 302 305 307 308 304 310 313 312 310 308 308 308 311 308 307 306 308 304 309 308 308 311 308
317 317 316 316 315 315 314 314 314 314 314 313 313 312 310 308 316 313 314 317 316 312 291 301 302 309 307 304 306 306 312 310 305 307 309 306 307 307 306 306 309 306 310 308 306 306 310
317 316 315 315 314 314 314 314 314 314 313 312 312 311 309 315 317 315 317 316 311 297 289 297 302 300 302 303 303 306 306 309 309 306 307 308 314 310 309 311 310 311 308 307 307 305 298
316 315 315 314 314 314 314 314 314 313 312 311 310 308 309 315 311 317 317 312 298 292 301 297 298 300 300 300 300 302 302 302 300 298 298 303 305 310 312 307 310 309 305 298 296 297 296
315 315 315 315 314 314 314 314 312 312 311 310 307 306 312 316 318 317 314 305 293 298 297 300 299 299 297 299 300 299 300 299 303 301 299 297 297 304 308 308 307 306 305 300 294 296 298
315 314 315 314 314 314 313 312 312 311 311 309 307 315 316 317 317 315 308 299 298 299 300 298 299 296 297 298 297 298 299 299 301 302 297 297 297 307 307 309 309 307 303 308 303 305 302
315 314 314 314 314 313 313 313 312 312 311 309 313 312 312 318 317 313 305 297 300 302 301 301 295 298 295 297 295 297 298 301 300 301 303 299 295 304 304 308 309 308 311 302 302 296 295
314 314 314 313 313 313 313 313 312 311 310 308 312 310 314 318 316 309 301 301 301 303 302 299 298 297 297 297 298 296 297 300 300 300 302 300 298 298 302 302 302 304 303 306 306 303 297
313 313 313 312 313 313 314 313 312 310 308 311 311 306 315 317 307 308 303 300 295 301 303 301 300 299 297 298 297 296 295 299 302 301 297 302 298 294 297 303 305 304 303 303 300 300 303
313 313 312 313 313 314 314 313 311 310 309 311 309 309 315 315 303 301 301 300 300 300 300 299 298 299 300 296 292 296 297 302 301 300 298 301 295 291 293 298 302 299 304 306 305 305 303
313 313 312 313 314 314 314 313 311 310 310 310 309 305 309 309 307 302 300 298 297 301 299 300 299 300 298 296 298 295 295 298 301 300 302 300 296 294 290 294 298 297 298 303 304 300 301
313 312 312 313 313 314 314 313 312 310 310 311 310 303 305 299 301 302 302 299 296 295 300 300 298 296 296 293 294 294 297 298 299 300 299 299 292 295 295 296 297 296 297 300 300 304 301
312 312 313 313 313 313 314 314 313 311 309 313 307 306 306 303 302 300 298 296 292 293 295 295 295 297 296 295 295 293 294 295 295 299 297 299 291 294 292 295 296 293 296 297 300 302 303
312 312 313 313 313 313 313 314 313 311 309 312 312 311 308 297 297 297 297 296 295 297 298 299 298 297 295 297 300 301 301 300 299 295 296 297 294 291 288 293 294 290 294 296 297 301 302
312 312 312 313 313 313 313 314 314 312 310 315 312 312 306 299 300 298 297 297 295 296 295 297 299 295 300 305 303 302 301 299 298 298 299 296 295 293 288 291 282 294 300 300 299 300 304
312 312 312 312 313 313 314 314 314 313 312 316 315 311 306 301 301 300 299 296 299 299 297 297 298 302 303 300 293 292 294 293 295 296 297 297 294 289 285 286 290 294 300 301 301 302 305
311 312 312 312 313 313 313 314 313 312 313 316 313 315 311 306 301 302 301 300 297 299 298 298 303 306 303 298 293 287 287 289 288 290 298 296 297 291 288 284 282 294 301 304 306 297 310
311 311 312 312 313 313 314 313 314 313 312 315 315 317 312 306 307 307 301 299 301 299 296 298 299 298 301 295 291 288 289 290 286 286 289 291 292 289 288 286 290 297 301 303 293 296 305
311 311 311 312 313 313 314 313 313 314 313 314 315 319 312 309 308 309 308 305 304 301 296 301 297 298 297 291 290 290 289 289 288 293 290 289 289 288 290 287 283 304 302 294 302 305 306
310 311 311 312 312 313 313 313 313 314 314 312 316 319 317 310 310 313 313 311 308 307 304 304 298 297 295 290 291 291 288 290 288 287 297 288 292 291 292 292 302 302 301 305 306 304 303

GFSGBSN_sfc_thetae_066.txt.gz
Theta_e
318 318 318 318 318 318 317 316 317 318 318 317 317 318 318 318 318 318 319 319 318 319 319 319 321 322 317 315 314 326 344 339 329 322 321 331 327 326 321 323 325 324 327 329 334 337 334
318 318 318 318 317 317 316 316 316 317 316 317 317 318 318 318 318 318 318 318 318 321 319 320 322 322 315 312 319 321 329 332 324 318 325 332 328 328 323 321 321 325 325 328 332 334 336
318 318 318 317 317 317 317 316 316 315 316 316 317 317 317 318 317 317 317 316 317 322 322 324 325 321 321 315 320 321 326 327 326 319 318 330 331 325 324 319 321 320 318 322 326 333 332
318 318 318 317 317 317 316 316 316 316 316 316 317 317 317 317 317 316 316 315 316 324 323 322 323 323 318 317 321 319 323 326 330 326 319 328 330 324 321 322 316 313 315 312 320 326 332
318 317 317 317 317 317 317 316 316 316 316 316 316 316 316 316 316 315 314 314 317 325 324 324 324 322 314 317 314 318 322 322 324 322 324 326 327 320 316 312 308 310 305 310 314 325 327
318 317 317 316 316 317 316 316 316 316 316 316 316 316 315 315 314 313 313 313 320 324 325 325 324 314 315 309 313 314 319 324 322 320 320 318 318 312 311 309 301 304 306 309 311 319 324
318 317 316 316 316 316 316 316 315 315 316 316 315 315 315 314 313 312 313 316 315 316 317 313 311 311 310 313 316 315 317 318 323 319 312 315 310 306 310 310 311 309 307 308 312 317 320
318 317 316 316 316 316 316 315 315 315 316 315 315 314 314 313 312 311 312 311 310 311 304 313 310 309 310 312 308 314 321 315 315 310 311 310 306 312 311 312 310 309 307 306 311 315 322
318 317 316 316 316 316 315 315 315 315 315 315 314 314 313 312 311 311 313 312 317 315 304 307 308 307 308 310 307 309 317 315 311 309 310 305 308 312 310 308 307 307 306 306 307 313 321
318 317 317 317 316 315 315 315 315 315 314 314 313 313 312 310 310 315 313 316 317 316 300 302 303 305 307 308 304 311 313 312 312 308 309 309 312 310 307 306 308 303 310 308 307 306 304
318 317 317 316 315 315 315 315 315 314 313 313 313 312 310 308 312 313 314 318 316 312 290 302 303 310 308 304 306 307 312 310 305 308 309 306 308 307 306 307 309 306 311 309 307 305 305
318 316 315 315 315 315 315 314 314 313 313 313 312 311 310 316 315 318 317 318 312 297 290 298 303 301 301 304 304 307 307 310 309 305 307 306 312 311 309 310 310 311 308 308 307 304 298
316 316 315 315 315 315 314 313 313 313 312 311 310 309 308 315 312 317 317 312 297 292 303 298 299 301 302 301 301 302 302 302 299 296 298 301 303 310 312 307 310 309 304 296 296 296 296
316 315 315 315 315 313 313 313 313 313 312 311 308 306 312 316 319 317 314 305 294 300 299 302 300 300 297 301 300 301 300 299 303 302 298 297 296 303 309 308 305 306 304 298 292 294 297
315 315 315 315 312 312 313 313 313 312 311 310 307 316 314 318 318 316 308 299 298 300 302 300 300 297 298 300 299 299 299 299 302 304 297 296 296 306 307 308 308 305 302 307 301 303 299
315 314 314 313 313 312 313 314 313 312 311 309 311 315 314 319 319 314 305 300 301 304 303 302 296 299 296 299 298 298 298 302 300 304 304 299 293 302 305 308 308 305 308 301 301 294 294
314 314 314 313 313 313 314 314 313 312 310 309 313 311 316 319 317 310 301 302 303 305 304 300 299 298 299 298 299 298 298 301 302 302 303 301 297 297 302 301 301 303 302 304 304 303 296
314 314 314 312 314 314 314 314 313 310 308 312 315 306 316 318 307 308 302 302 297 303 305 302 301 300 298 299 298 298 297 300 303 303 297 301 297 293 296 303 305 303 303 303 299 299 302
314 314 314 314 314 315 315 314 312 310 310 310 311 310 317 316 301 302 303 302 302 301 302 301 299 301 301 298 294 298 299 303 303 300 299 300 295 290 293 298 302 299 301 302 302 302 301
314 314 313 314 315 315 314 313 312 311 310 311 312 304 310 310 309 303 301 300 299 302 302 301 300 301 299 297 299 296 296 300 301 301 303 300 295 292 289 294 298 296 299 300 299 297 298
313 313 313 314 314 315 315 314 312 311 310 312 311 304 307 300 302 303 303 301 298 297 301 302 299 298 297 294 296 295 298 299 301 304 300 298 291 294 294 296 296 296 296 298 297 299 298
313 314 314 314 314 315 315 314 313 312 309 314 307 306 307 303 304 302 300 298 296 297 298 297 297 298 298 295 296 294 296 297 296 300 299 300 291 294 291 295 296 294 296 297 297 299 300
312 313 313 313 314 315 315 315 314 312 310 313 314 315 310 301 302 300 298 299 297 299 300 300 298 297 296 298 300 301 301 301 300 297 296 296 295 292 288 293 292 289 295 296 297 299 300
313 312 313 313 314 314 315 315 315 313 312 317 314 313 306 300 301 300 299 299 298 298 297 299 300 296 301 305 304 302 301 300 299 299 299 294 293 293 287 290 281 293 300 300 298 299 301
312 312 313 313 314 314 314 315 315 314 313 316 316 313 310 301 303 302 301 300 301 302 300 300 301 303 304 300 293 293 294 294 295 297 297 297 294 290 286 285 290 293 297 299 299 299 303
312 312 312 313 314 314 314 315 315 315 314 317 317 319 313 305 302 305 302 302 299 299 300 299 305 306 304 298 294 287 287 290 290 292 299 298 297 292 289 283 281 292 299 304 303 294 307
312 311 312 312 313 314 315 314 315 316 315 314 317 321 315 306 308 307 302 302 304 302 299 301 302 301 303 295 291 289 288 291 286 287 289 292 294 288 288 286 289 298 301 303 290 294 306
311 311 312 312 313 314 314 314 315 315 316 314 317 320 314 309 307 310 308 305 305 304 300 302 300 300 297 292 290 290 289 290 289 292 291 290 288 289 289 286 283 302 301 293 299 304 304
311 311 312 312 313 313 314 314 314 315 315 314 315 320 319 311 309 315 314 313 310 308 306 304 300 299 299 293 293 293 289 292 288 285 294 289 291 289 293 292 302 302 299 302 303 301 304

GFSGBSN_sfc_thetae_069.txt.gz
Theta_e
319 319 319 318 318 318 317 316 316 317 316 316 317 317 318 318 318 318 318 318 318 318 322 320 320 322 314 310 310 326 344 340 327 318 312 312 321 321 316 320 323 321 324 327 331 334 335
319 318 318 318 318 317 317 316 316 316 316 316 317 318 318 318 318 318 318 318 317 317 323 321 321 322 309 305 319 328 329 328 320 316 312 313 325 326 321 320 318 321 323 324 331 332 333
319 318 318 318 317 317 317 316 316 315 316 316 317 317 318 318 317 317 317 316 316 317 323 324 325 320 315 313 319 323 325 325 321 317 311 321 329 325 321 317 321 318 310 314 321 331 331
319 318 318 317 317 317 317 316 316 316 316 316 317 317 317 317 316 317 316 315 315 318 324 323 324 318 313 322 313 316 316 321 325 319 313 320 324 322 317 319 316 310 305 301 312 321 331
320 319 318 317 317 317 317 317 316 316 316 316 316 317 316 316 316 315 314 314 316 318 324 324 318 314 313 318 310 313 314 318 322 320 315 317 315 315 316 306 302 305 298 302 306 316 321
320 319 318 316 317 317 317 316 316 316 316 316 316 316 315 315 315 313 313 314 318 317 323 323 320 310 316 308 310 312 312 319 318 317 314 311 310 309 307 299 294 298 298 300 302 311 316
320 319 317 316 316 317 316 316 316 316 316 316 315 315 314 314 313 312 310 307 308 306 309 311 309 313 309 309 312 310 312 315 318 312 304 310 302 301 304 305 305 305 304 302 305 311 310
320 318 317 317 316 317 316 315 316 315 315 315 315 314 314 313 312 311 308 304 305 304 299 308 311 310 308 307 305 312 315 306 311 307 310 306 301 307 311 309 307 304 302 302 306 308 313
319 318 317 317 317 316 315 315 315 315 315 314 314 313 313 312 311 310 306 308 311 309 297 303 306 305 304 303 304 308 312 311 308 307 306 300 306 312 310 307 303 302 300 301 302 306 314
319 318 317 317 316 315 315 315 315 314 314 314 314 313 312 311 308 310 309 310 311 310 292 299 299 302 304 303 300 311 311 308 307 304 306 304 308 306 306 305 304 294 304 305 304 299 293
318 317 317 316 316 315 315 315 314 314 313 313 313 313 311 309 305 307 310 311 308 305 285 301 300 306 302 298 302 303 310 306 302 303 302 301 305 305 304 304 305 300 306 304 303 298 294
317 317 316 316 315 315 313 313 313 314 313 313 313 312 310 312 309 312 315 312 307 291 287 297 301 299 297 299 301 305 305 305 305 300 300 301 307 304 304 308 307 308 303 301 299 295 290
317 316 316 315 315 312 312 313 313 313 313 312 311 309 307 311 309 314 313 307 291 287 300 296 296 297 297 297 299 298 299 297 292 287 289 297 298 301 305 302 305 302 295 288 286 288 288
316 316 315 313 312 312 313 314 314 313 312 311 308 307 310 310 314 314 309 299 290 297 296 300 299 297 294 298 297 299 296 293 298 296 291 289 289 297 303 301 299 298 295 289 284 286 289
316 315 315 313 312 312 313 314 314 313 312 310 307 312 309 313 314 314 303 294 293 296 300 298 299 293 293 297 295 296 294 294 298 298 290 289 291 301 303 303 303 299 295 298 292 295 290
316 315 315 313 313 314 314 314 313 313 311 309 306 310 312 315 315 309 300 297 297 301 301 300 293 297 293 295 293 293 293 298 299 301 298 293 287 296 300 302 303 300 300 291 292 285 284
315 315 315 314 314 314 315 314 313 312 310 309 310 308 312 314 313 305 297 298 300 303 303 298 296 295 295 295 296 294 295 298 300 299 298 294 289 291 296 293 294 296 294 293 293 291 287
315 315 314 314 314 315 315 314 313 311 309 310 310 303 313 315 303 304 296 299 299 301 303 301 300 298 296 296 294 294 295 297 302 299 294 295 288 285 290 298 300 297 293 291 289 289 293
315 314 314 314 315 315 315 314 312 310 310 306 306 308 314 313 297 298 301 300 300 298 298 298 298 299 298 294 290 295 296 302 302 299 294 294 288 283 287 290 295 293 296 294 292 291 290
314 314 313 314 315 315 315 314 312 311 311 307 308 301 306 307 305 300 298 298 297 302 299 300 299 299 296 293 294 293 295 299 301 300 305 299 287 285 282 287 291 290 293 295 292 285 287
313 313 314 314 315 315 315 314 313 312 310 309 310 301 303 296 299 299 299 298 295 294 299 300 299 297 294 290 292 292 295 296 300 304 298 292 284 287 289 292 292 292 292 294 291 292 286
313 313 314 314 315 315 316 315 314 312 310 312 304 304 304 301 302 299 298 296 295 295 297 295 294 296 296 290 293 290 293 292 292 297 295 295 287 290 289 293 292 290 293 294 294 294 294
313 313 313 314 315 315 315 315 314 312 311 312 313 314 308 301 299 296 295 296 296 298 299 299 297 295 294 295 298 297 297 296 295 292 291 291 288 287 283 290 290 285 290 292 293 296 295
313 312 313 314 314 315 315 316 315 314 312 313 314 312 305 297 299 298 299 299 298 299 297 299 299 295 299 303 301 299 297 296 296 295 294 289 289 287 283 285 279 289 296 296 294 296 301
312 312 313 313 314 315 316 316 316 315 313 313 317 313 308 299 301 301 301 300 301 300 298 299 300 301 303 300 292 289 290 292 293 296 294 293 290 284 282 281 286 290 292 296 295 294 302
312 312 312 313 314 314 316 316 316 316 314 315 317 319 313 305 299 304 301 302 297 296 299 300 304 304 302 296 291 285 285 288 287 290 295 294 293 289 285 279 278 289 298 302 300 288 301
312 312 312 313 313 314 315 315 316 317 315 312 316 320 314 306 306 305 300 300 303 300 297 298 300 298 301 293 289 286 285 289 284 284 287 287 288 285 284 284 287 296 299 301 287 288 301
312 312 312 312 313 314 314 315 316 317 317 313 315 321 313 308 308 310 308 304 303 301 297 299 298 296 294 290 288 287 286 288 287 289 287 287 287 284 285 282 280 298 299 291 295 298 299
312 311 312 312 313 313 314 316 316 316 316 314 314 321 321 312 309 315 314 313 311 308 303 302 298 297 295 292 291 290 286 287 286 282 291 285 288 285 288 289 295 298 297 299 299 296 298

GFSGBSN_sfc_thetae_072.txt.gz
Theta_e
320 319 319 319 318 318 317 316 316 316 316 317 317 317 318 318 318 318 318 318 318 318 318 322 320 321 313 307 308 325 346 343 330 316 309 308 312 316 310 316 320 317 321 325 328 335 336
320 319 319 318 318 317 317 316 316 316 316 316 317 317 317 317 317 318 318 317 317 317 318 324 321 322 306 302 321 329 330 327 319 313 310 309 312 323 318 316 316 320 320 319 321 334 335
320 319 318 318 317 317 316 316 315 315 316 316 316 317 318 317 317 317 316 316 316 317 318 324 324 320 311 308 322 328 324 320 318 313 308 311 312 314 321 315 321 318 310 310 328 332 329
321 320 319 318 318 317 317 315 315 315 316 316 316 316 316 316 316 316 315 314 315 317 318 324 325 316 307 325 323 325 323 322 319 316 311 313 318 316 317 319 312 307 303 298 313 330 331
322 320 319 318 318 317 317 316 315 316 316 316 316 316 315 315 315 315 314 314 316 319 320 324 313 310 309 326 307 310 313 311 319 315 312 316 309 304 308 306 299 301 297 300 303 326 328
321 320 318 317 317 317 317 316 316 316 316 316 315 315 315 315 314 313 313 313 315 318 320 323 319 306 311 311 308 310 309 318 318 316 313 309 304 300 302 299 291 296 297 297 299 306 324
321 320 318 317 316 317 316 316 316 315 316 315 315 315 314 314 313 312 309 303 300 302 308 305 308 310 310 307 311 307 309 312 315 310 301 305 299 296 302 304 303 301 299 299 304 308 305
321 320 317 316 316 316 316 315 315 315 315 315 315 314 314 313 312 311 306 299 301 302 296 306 309 310 313 307 302 307 309 304 308 301 304 302 297 304 308 308 305 302 299 298 303 307 317
319 318 317 316 316 316 315 315 315 314 314 314 314 314 313 312 311 308 302 303 308 305 294 300 303 303 304 301 301 306 308 305 306 304 304 300 304 310 307 305 303 300 297 299 299 312 319
317 317 317 316 316 315 314 313 314 314 314 314 314 314 312 310 304 303 304 306 305 304 288 295 297 299 301 301 297 311 311 306 305 303 305 301 306 305 304 304 303 293 302 303 301 296 291
317 317 316 316 315 313 313 313 314 314 314 314 314 313 311 309 299 303 307 310 305 300 283 299 296 303 298 296 299 302 307 304 299 300 297 297 302 302 301 302 304 301 305 301 300 294 291
317 316 315 314 313 313 312 313 314 314 314 313 313 312 310 306 302 306 309 307 301 288 285 294 299 296 295 295 297 302 303 303 303 298 296 297 302 302 302 306 305 306 300 297 294 292 287
316 316 315 314 313 312 313 314 314 314 313 312 311 309 307 308 302 306 308 301 289 283 297 293 292 294 292 293 295 297 297 293 290 285 287 294 297 297 301 296 301 299 292 286 286 285 285
316 316 315 314 314 314 314 315 314 313 312 311 308 307 307 308 304 305 302 295 286 294 292 297 296 293 291 294 293 296 293 290 296 291 287 287 287 295 300 295 294 296 292 287 282 283 286
315 315 315 315 314 314 315 314 314 313 312 310 307 304 303 306 308 305 297 289 287 292 297 295 295 291 292 294 294 294 293 292 295 294 287 286 288 299 300 299 297 296 292 295 288 286 286
316 315 315 314 314 314 315 314 313 313 311 310 301 302 304 311 307 302 294 290 292 299 299 297 290 293 289 292 292 290 291 296 296 298 293 290 285 292 299 299 298 293 296 290 287 283 282
315 315 314 315 315 314 315 315 314 312 311 309 304 301 307 306 306 299 288 290 296 300 300 295 292 290 291 290 291 290 291 296 298 297 295 289 287 289 294 290 289 291 289 288 288 288 284
315 314 314 314 314 315 315 315 313 311 309 305 300 294 309 307 295 292 289 292 299 297 299 296 296 294 291 292 290 290 291 294 300 297 291 291 285 283 286 294 297 293 289 286 283 283 287
315 314 314 313 314 315 315 314 312 310 309 302 298 299 306 304 289 289 293 296 298 296 296 295 295 295 294 290 287 292 293 299 300 297 291 292 284 280 284 287 291 290 291 288 287 284 283
315 314 314 314 314 315 315 314 312 311 310 302 299 293 297 297 294 292 291 293 293 300 298 297 295 295 292 290 290 290 292 298 301 300 306 296 284 282 279 283 287 287 290 291 286 281 282
314 313 314 315 315 316 315 314 313 311 310 304 298 293 295 290 292 293 293 293 293 292 296 296 294 294 290 286 287 288 291 292 297 302 296 290 282 284 285 290 291 291 290 291 287 287 283
313 313 314 315 315 316 316 315 314 312 310 304 297 297 297 292 294 293 292 290 292 293 292 291 291 294 292 287 287 286 288 287 287 291 291 290 284 286 286 291 290 288 291 292 291 291 290
313 313 313 314 315 316 316 315 314 312 309 303 304 304 297 294 291 289 289 292 294 294 296 297 296 292 291 292 294 293 292 291 291 287 287 286 285 283 278 288 287 282 287 290 291 292 294
313 313 313 314 314 315 316 316 315 314 310 304 305 303 295 290 293 293 296 297 296 296 293 296 295 291 296 299 297 292 291 290 291 291 288 285 283 283 279 283 276 286 292 294 293 297 299
312 313 313 313 314 315 316 316 316 315 313 305 309 306 299 290 296 297 297 296 296 294 294 296 297 297 298 294 288 285 286 287 290 291 290 287 284 280 278 278 284 288 291 290 292 293 298
312 312 313 313 314 315 316 317 317 315 313 307 308 309 304 295 293 301 297 296 291 290 293 295 299 298 296 289 286 279 280 282 284 287 289 289 288 284 281 276 276 286 296 300 297 287 299
312 312 312 313 313 314 315 316 317 316 314 306 306 309 305 297 298 297 294 294 296 293 290 293 294 293 294 286 281 283 277 287 277 280 282 282 284 280 280 280 285 293 295 299 284 285 297
312 312 312 312 313 314 315 316 316 316 316 307 307 310 304 299 301 304 304 296 296 295 289 293 291 290 288 283 281 278 280 287 283 284 281 283 283 282 280 276 278 294 296 289 293 294 295
312 312 312 312 312 313 314 316 316 315 315 312 305 310 312 303 302 308 309 306 305 302 297 294 291 290 290 285 284 280 278 282 279 281 286 283 285 279 286 288 293 296 295 296 295 292 293

GFSGBSN_sfc_thetae_075.txt.gz
Theta_e
320 320 319 319 318 317 317 316 316 315 316 317 317 317 317 317 318 318 318 318 317 317 317 319 321 320 311 304 305 322 337 343 334 312 307 308 311 312 309 313 317 317 320 322 325 327 335
321 321 320 318 318 317 316 316 315 315 316 316 317 317 317 317 317 317 317 316 316 316 317 320 322 321 304 294 316 333 329 329 321 310 307 309 312 317 314 314 313 320 319 319 318 331 331
322 321 320 319 318 317 316 316 315 315 316 316 316 316 316 316 316 316 316 316 315 316 317 320 323 319 309 301 322 329 326 317 314 311 306 307 310 312 318 315 318 318 313 310 329 332 329
323 321 320 318 317 317 316 315 315 315 316 315 315 315 315 315 315 315 315 314 314 316 317 320 325 314 304 322 322 323 319 316 315 309 308 310 311 311 313 317 311 304 302 298 324 328 328
323 321 319 318 317 316 315 315 315 315 315 315 315 315 315 315 315 315 314 313 315 318 319 323 312 307 307 325 313 313 321 317 313 312 311 315 310 304 304 302 298 299 296 299 302 327 327
322 321 318 317 316 316 316 315 315 315 314 315 315 315 315 315 314 313 313 312 317 319 321 321 319 304 308 308 306 308 317 317 316 312 309 306 302 298 299 298 293 295 295 295 298 320 324
320 320 317 316 316 316 316 315 314 315 315 315 315 315 314 314 313 312 308 302 298 298 308 300 303 306 309 311 308 305 307 314 313 309 300 302 297 295 299 302 304 301 298 297 301 306 302
317 317 316 316 316 315 315 313 313 314 314 315 315 314 314 313 312 311 306 298 299 301 294 305 309 309 312 309 301 305 308 306 307 301 302 300 295 302 305 306 304 301 298 296 301 310 309
317 316 316 316 316 314 313 313 313 314 314 315 315 314 313 312 311 306 301 301 306 301 292 298 302 302 302 304 299 301 305 304 305 302 300 297 303 309 305 303 301 298 296 297 298 306 319
316 316 316 314 313 313 313 313 314 314 314 314 314 314 312 310 302 301 303 304 307 301 287 293 295 300 300 299 295 306 309 306 304 302 303 301 306 306 302 302 301 293 302 302 300 294 290
316 316 316 314 313 313 313 314 315 314 314 314 314 313 311 309 299 302 306 306 304 299 281 298 294 301 297 294 297 300 305 303 299 299 299 299 299 300 299 300 303 300 304 300 298 293 290
316 316 316 314 314 315 314 314 314 314 314 314 313 312 310 305 300 304 306 303 299 288 283 293 297 295 294 293 296 300 301 302 300 296 295 295 300 301 302 305 304 305 300 295 292 290 285
316 315 315 315 315 315 314 314 314 314 313 312 311 309 307 307 300 303 303 299 288 283 296 294 290 293 292 291 293 295 296 292 289 285 286 293 294 297 298 293 298 296 291 285 284 284 284
315 315 314 314 314 314 315 315 314 314 313 311 309 306 306 307 301 303 300 293 284 292 291 295 295 292 291 292 292 294 291 289 295 289 286 286 286 294 298 293 291 293 291 286 281 282 285
315 315 313 314 314 314 315 315 314 313 312 310 307 303 302 304 307 302 297 286 285 289 295 294 293 290 291 294 292 292 290 290 293 291 286 284 287 297 299 297 295 292 289 291 286 284 286
315 315 313 313 314 314 315 315 314 313 312 309 302 302 303 309 305 301 293 289 291 296 297 294 288 290 287 290 291 289 289 294 294 296 291 287 284 290 296 297 296 291 293 287 286 282 281
314 314 313 313 313 315 315 315 314 313 311 308 303 299 304 303 304 295 287 288 294 298 298 294 290 289 288 288 289 287 289 295 297 296 294 287 286 287 291 289 288 289 287 285 285 285 282
314 314 313 313 314 315 315 315 313 311 309 304 300 293 306 303 294 288 286 291 297 295 298 295 294 292 290 289 288 289 289 292 299 295 290 290 283 282 285 291 295 292 286 284 281 281 283
314 313 313 314 315 315 316 314 312 310 309 301 298 297 304 302 288 287 291 294 297 294 294 294 293 293 292 289 286 290 292 298 300 296 289 291 284 281 282 286 289 287 288 286 284 281 280
314 314 313 314 315 316 315 314 312 311 310 302 295 291 295 295 290 290 288 291 291 299 295 295 293 293 290 288 289 288 291 296 298 299 306 294 282 282 280 281 285 285 289 288 284 281 281
313 314 314 315 315 316 316 315 313 311 309 301 295 291 292 288 291 290 290 291 291 290 295 294 293 292 288 284 285 286 290 291 295 298 294 287 282 284 284 289 289 288 288 289 285 285 283
313 314 313 315 315 316 316 315 314 312 309 302 297 296 293 290 290 290 290 288 291 292 291 290 290 293 291 286 286 284 287 285 286 291 288 288 283 284 283 289 288 286 288 290 289 289 288
313 313 313 313 315 316 316 316 314 312 308 302 302 301 295 292 289 288 287 290 292 293 295 296 294 290 289 291 293 292 291 290 287 286 286 284 283 281 277 286 285 280 285 288 288 293 291
313 313 313 314 314 315 316 316 316 313 309 304 303 301 294 289 291 291 295 296 295 294 292 294 293 289 294 297 295 291 288 287 289 287 287 283 282 281 277 281 275 283 290 293 295 297 297
312 313 313 313 314 315 316 317 316 314 312 307 305 303 295 289 294 295 296 295 294 293 293 295 296 295 295 292 286 284 284 285 288 289 287 285 282 279 278 276 282 287 290 291 289 291 297
312 312 313 313 313 314 316 317 317 315 313 306 305 305 301 293 292 299 295 294 290 288 292 293 297 296 294 288 284 278 280 281 283 285 287 287 286 283 278 274 276 284 294 297 295 286 297
311 312 313 313 313 314 315 316 316 316 314 306 306 305 302 294 296 296 293 293 294 291 289 290 292 291 291 284 281 280 276 285 275 280 280 279 283 279 278 276 283 291 294 297 283 283 295
312 312 312 312 313 313 314 315 316 316 315 307 306 307 303 297 299 302 303 296 295 293 288 292 289 288 286 281 278 276 275 279 278 283 281 280 281 279 282 275 276 294 294 287 290 291 293
311 312 312 312 312 313 314 315 316 315 315 309 303 306 307 302 301 305 308 308 303 301 295 291 290 288 288 282 279 278 284 283 276 273 285 278 283 278 283 282 293 293 292 293 293 290 291

GFSGBSN_sfc_thetae_078.txt.gz
Theta_e
323 322 321 320 319 318 317 316 316 315 316 317 317 316 316 317 317 317 318 318 317 317 317 318 321 319 310 300 302 327 335 337 330 314 306 307 309 310 310 313 315 317 321 322 325 327 331
324 323 322 319 318 317 316 315 315 316 316 316 315 315 315 316 316 316 317 316 316 316 317 318 322 321 302 291 313 330 331 328 317 308 305 310 311 315 312 312 313 318 319 318 318 323 330
324 322 321 318 318 317 316 315 315 316 315 314 314 315 315 315 316 316 316 315 315 316 316 318 323 318 307 298 324 325 326 320 314 308 303 305 313 311 315 314 317 315 311 314 329 329 327
323 322 319 317 317 316 315 315 316 315 314 314 315 315 315 315 315 315 315 314 315 316 317 318 323 312 304 318 323 322 316 313 312 306 307 307 311 309 310 315 308 303 301 298 325 327 328
321 320 318 317 316 316 316 315 315 314 314 314 315 315 315 315 315 313 312 313 317 318 319 322 310 305 306 325 316 318 317 312 310 309 308 313 306 303 303 301 298 299 296 298 303 326 325
319 317 316 316 316 315 314 314 313 313 315 315 315 315 315 315 314 312 311 312 321 320 320 321 318 302 306 307 306 316 317 314 311 309 307 304 300 297 298 298 294 295 295 295 297 321 323
317 316 316 316 315 314 314 314 313 314 315 315 315 315 315 314 313 311 308 301 296 296 307 298 297 301 307 310 307 304 315 314 311 306 298 300 295 293 297 301 302 300 298 297 300 303 301
316 316 316 315 314 313 313 313 314 315 315 315 315 315 313 313 312 311 305 298 300 299 294 304 308 307 309 308 301 302 315 307 307 300 300 297 293 300 303 304 303 301 298 297 302 309 307
316 316 316 314 314 313 313 314 315 315 315 315 315 314 312 312 311 305 299 300 304 300 291 297 302 302 300 305 299 299 306 307 305 299 298 295 301 305 304 302 300 297 296 296 300 302 318
317 316 316 314 315 314 315 315 315 315 315 315 315 313 312 310 302 300 301 304 304 300 286 292 294 300 299 298 294 306 307 306 304 301 300 299 305 306 302 301 300 291 301 302 300 293 289
317 316 315 314 315 314 315 315 315 315 314 314 313 312 311 309 299 300 305 303 301 298 280 296 294 300 295 293 298 299 304 302 299 300 302 300 300 300 298 299 302 299 302 300 298 292 289
316 316 314 314 314 315 315 315 314 314 314 314 312 312 310 303 298 302 304 300 298 287 282 292 295 292 292 293 294 299 300 300 300 295 294 296 298 299 301 303 304 303 296 293 290 288 285
316 315 314 314 313 314 314 314 314 314 313 312 311 309 306 305 299 301 301 298 287 282 294 292 291 291 289 290 293 294 294 292 289 287 285 292 293 295 297 292 297 295 290 283 283 283 284
315 314 314 314 313 314 314 315 314 314 313 311 308 306 306 307 302 302 299 292 283 291 289 294 293 292 291 292 293 293 291 289 293 288 285 285 285 292 297 292 290 291 290 285 280 281 285
315 314 314 314 313 314 315 315 314 314 312 310 307 302 302 304 306 300 295 285 284 288 293 292 291 289 291 293 291 292 289 289 291 289 285 285 286 295 297 295 293 291 287 290 285 283 285
315 314 314 314 313 314 315 315 314 314 312 309 302 301 301 303 303 298 291 288 289 295 296 293 287 288 286 290 290 289 290 294 292 294 289 286 284 289 295 295 295 291 291 287 286 282 281
315 314 314 314 314 315 315 315 314 313 311 308 301 297 303 302 300 295 286 287 293 297 297 292 289 288 287 286 290 289 289 295 298 295 293 286 285 286 290 287 285 287 285 285 285 284 282
315 314 313 314 315 315 316 315 313 311 309 304 298 293 304 301 292 286 286 290 296 294 296 295 294 290 288 288 287 288 289 292 299 296 291 291 285 281 283 290 292 288 285 283 283 282 281
314 315 313 314 315 316 316 315 313 310 309 301 296 294 301 298 287 285 289 293 295 293 292 293 292 292 291 287 285 289 291 297 297 298 292 291 284 279 281 285 288 287 288 283 282 281 280
314 314 314 314 315 316 316 314 313 311 309 301 294 290 294 294 288 289 287 288 291 297 293 294 292 292 290 287 288 287 289 295 296 298 303 294 284 282 279 281 285 286 288 288 283 281 281
313 314 313 314 315 316 316 315 313 311 309 300 294 290 290 287 289 288 288 289 290 289 293 293 291 291 287 284 285 286 289 290 294 297 293 286 283 284 285 288 288 287 287 288 285 284 282
313 313 314 314 315 316 316 315 314 311 309 302 297 293 291 288 288 289 289 287 289 290 290 289 289 291 290 285 285 284 286 286 285 291 287 287 283 283 282 288 287 286 288 289 288 289 288
313 313 313 314 315 316 316 316 314 311 308 302 300 298 294 291 288 286 287 289 291 291 293 294 292 289 289 290 292 290 290 288 286 285 285 284 283 280 277 284 284 280 285 287 289 292 289
313 313 313 313 314 315 316 316 315 313 308 304 301 296 293 289 290 290 293 294 293 292 290 292 292 288 292 295 294 291 289 288 289 287 285 283 281 280 277 278 275 282 289 291 293 296 297
312 312 313 313 314 315 316 317 316 314 311 306 302 301 293 289 292 294 294 293 293 293 292 293 294 293 293 291 285 283 283 283 286 287 285 284 282 278 277 276 281 286 291 291 289 290 296
312 312 313 313 313 314 315 316 316 315 312 305 302 302 297 292 291 297 294 293 289 288 290 293 295 294 293 286 283 278 276 280 281 283 285 286 284 281 278 275 276 283 293 296 294 285 295
311 311 312 313 313 314 315 316 316 316 313 306 305 302 300 293 295 294 292 292 292 289 288 289 290 290 290 283 277 275 274 284 275 280 279 278 280 278 278 276 282 291 293 296 283 284 294
311 311 312 312 312 313 314 315 315 315 315 307 305 304 302 296 297 301 299 295 294 291 288 291 289 287 284 280 278 276 275 279 278 282 280 279 276 281 281 277 276 294 293 288 290 291 292
310 311 311 312 312 313 314 315 315 315 315 307 302 303 305 301 299 303 306 305 302 300 293 289 289 287 286 281 280 278 277 279 275 274 283 278 281 279 281 281 290 293 291 293 293 290 291

GFSGBSN_sfc_thetae_081.txt.gz
Theta_e
325 324 322 319 318 317 316 316 316 316 316 316 315 315 316 316 317 317 317 317 317 317 317 317 318 320 316 306 305 330 334 338 331 320 318 315 315 317 317 323 322 323 326 326 328 333 334
325 323 320 317 317 316 316 316 316 316 315 315 314 315 316 315 316 317 317 316 316 316 316 317 319 320 309 299 320 330 328 332 321 315 314 317 317 321 321 319 321 321 323 322 323 322 332
322 320 319 317 317 316 316 315 315 315 314 314 314 315 315 315 315 316 315 315 315 315 316 317 321 319 310 303 328 328 328 324 319 313 311 315 322 320 322 319 322 319 314 325 330 330 329
319 318 317 317 316 316 315 315 315 314 314 314 315 315 315 315 315 315 314 313 314 316 317 318 322 319 308 322 329 327 322 317 315 314 313 313 319 319 318 319 313 310 310 308 328 331 330
317 317 317 316 315 315 314 314 314 313 314 315 315 315 315 314 314 313 312 313 320 319 319 322 318 314 309 326 320 321 319 314 315 314 314 314 314 314 311 312 309 308 308 305 319 330 329
317 317 316 315 315 314 314 314 314 314 315 316 316 316 314 314 314 312 311 312 319 322 322 322 320 309 312 311 317 319 320 316 311 311 309 308 307 309 310 310 305 306 305 305 312 326 326
316 316 316 315 315 314 314 315 315 315 315 316 316 315 313 313 313 312 310 313 305 307 315 303 304 303 307 313 318 316 318 317 313 310 302 305 304 302 309 311 309 307 306 305 306 313 314
317 316 315 315 314 314 314 315 316 316 315 315 315 314 313 313 311 311 309 306 306 305 300 306 309 308 311 313 304 313 320 312 309 302 305 302 300 307 311 309 308 308 306 305 307 318 311
317 316 315 315 315 314 315 316 315 315 315 315 314 313 312 311 311 309 306 307 310 308 300 301 306 305 306 311 304 307 316 314 309 304 302 299 304 309 308 307 307 307 307 305 304 306 323
317 316 314 315 314 314 315 315 315 315 315 315 314 313 312 310 306 307 307 310 308 307 296 297 300 305 306 306 301 309 315 314 310 306 305 303 309 308 306 306 308 306 308 308 305 304 300
317 315 315 314 314 314 315 315 315 315 314 314 313 312 310 308 308 307 310 308 306 304 286 299 300 306 303 301 305 305 310 309 308 307 307 304 307 308 307 308 309 306 308 307 306 304 301
316 315 314 314 315 314 314 315 315 315 314 314 312 311 309 307 306 309 309 307 305 294 285 296 299 298 299 300 301 304 304 307 306 305 305 302 305 308 309 310 310 308 304 302 302 301 297
316 314 315 315 315 314 314 315 315 314 313 313 310 309 307 307 307 308 308 307 295 289 298 295 296 297 297 296 299 300 299 299 298 298 300 298 298 301 302 304 307 306 303 295 295 294 295
316 315 315 314 314 314 315 315 315 314 313 311 309 307 309 311 311 309 307 302 290 293 294 299 297 298 295 297 297 298 297 296 299 297 296 296 292 298 301 299 301 304 304 297 291 292 295
316 314 314 314 314 315 315 315 314 314 312 310 307 311 310 310 310 308 306 293 290 293 296 296 297 295 294 297 298 297 296 295 297 298 297 294 293 299 300 300 300 299 299 301 296 295 297
315 314 314 314 314 315 315 315 314 314 312 309 312 310 309 308 309 307 300 292 295 298 298 297 292 294 293 293 295 296 295 298 297 299 298 296 292 296 298 300 300 300 299 297 299 292 291
315 315 314 314 315 315 316 315 314 313 311 309 308 307 310 308 309 303 294 294 297 300 299 296 293 293 293 293 294 293 293 297 299 299 300 297 296 294 297 294 292 297 297 296 299 295 294
315 315 314 314 314 315 316 315 314 311 308 308 307 301 310 309 301 297 295 296 297 298 300 298 297 295 293 293 293 294 292 295 299 299 296 297 295 291 291 296 296 295 293 294 297 293 295
315 315 314 314 315 316 316 315 313 310 309 310 304 303 310 308 296 295 297 297 298 297 296 297 295 296 296 293 292 295 295 298 300 300 297 298 293 289 290 294 297 294 295 294 293 296 294
315 314 314 314 315 316 316 315 313 311 309 306 304 298 303 302 298 297 294 294 294 298 296 298 296 297 295 294 296 293 294 297 298 302 303 299 293 292 290 291 294 292 292 294 294 294 293
314 314 314 314 315 316 316 315 313 311 309 309 302 297 297 295 296 296 297 295 293 293 297 298 296 294 293 292 292 292 294 296 298 299 298 297 291 293 293 293 293 292 291 292 292 293 293
314 313 314 314 315 316 316 315 314 311 308 309 305 301 299 296 296 297 295 294 294 294 295 293 294 294 295 293 293 292 294 295 293 298 295 296 291 293 289 292 291 290 292 292 292 293 293
313 313 313 314 314 316 316 316 315 311 310 311 308 304 304 295 296 296 295 295 295 296 297 298 296 295 294 295 297 298 298 297 297 295 293 293 293 291 286 290 289 287 291 291 293 296 295
314 312 313 313 314 315 316 316 316 313 310 314 310 305 303 296 298 297 297 297 296 297 296 298 299 296 298 301 300 299 298 297 297 295 294 292 292 292 288 288 282 290 295 295 294 298 301
314 312 312 313 314 315 315 317 316 314 311 313 311 309 304 298 299 299 299 298 298 299 298 298 299 301 302 298 294 292 292 293 293 294 294 294 293 288 287 286 288 290 295 295 295 294 301
313 312 312 313 314 314 315 316 317 315 312 313 311 310 307 302 299 302 299 299 297 298 298 299 301 301 300 297 294 288 287 289 288 290 295 295 295 293 288 283 282 290 296 299 299 290 299
313 311 311 313 313 314 315 316 316 316 313 314 312 311 309 303 304 303 301 299 300 298 298 298 299 298 299 295 291 289 288 289 287 288 289 291 292 289 288 287 289 295 297 300 288 292 299
312 311 311 312 312 313 314 315 315 315 315 314 312 311 311 307 307 305 305 301 300 301 298 298 297 296 296 292 292 287 289 288 288 291 289 290 289 288 288 287 284 299 297 293 297 298 299
313 310 311 312 312 313 313 314 315 315 315 310 311 309 312 310 307 309 311 309 308 307 302 298 298 296 296 293 291 291 290 289 288 287 292 288 292 291 292 293 298 300 298 300 299 297 297

GFSGBSN_sfc_thetae_084.txt.gz
Theta_e
323 321 320 318 317 317 317 317 316 316 316 316 315 315 316 316 316 317 318 317 317 317 317 318 318 320 319 312 309 332 334 336 331 331 324 321 318 318 318 325 327 330 329 329 328 333 333
321 319 318 318 317 317 316 316 316 316 315 315 315 315 316 316 316 316 316 316 315 316 317 318 319 321 315 305 326 330 326 330 327 325 320 320 316 320 318 323 325 328 328 325 326 324 333
318 318 318 317 316 316 316 315 315 314 314 315 315 315 315 316 316 316 316 315 314 315 316 318 320 321 314 311 330 326 331 326 323 321 317 320 321 319 321 319 326 325 321 326 327 329 330
318 318 317 316 316 315 315 315 315 315 315 315 315 316 315 316 316 315 314 313 315 317 317 318 322 322 312 326 330 326 328 323 321 322 320 321 324 322 322 326 323 320 320 316 328 333 332
317 317 316 316 316 315 315 315 315 315 316 316 316 316 316 315 315 313 313 313 321 320 319 322 322 320 312 327 320 322 324 318 318 318 319 319 322 319 320 316 315 318 313 313 324 333 331
318 316 316 316 316 316 316 316 315 316 316 316 316 316 315 315 313 312 313 313 319 323 323 324 322 314 317 315 321 321 322 319 315 314 312 312 314 312 314 313 307 313 315 314 319 327 329
317 316 316 316 316 316 316 316 316 316 316 316 316 316 314 313 313 312 313 318 314 314 315 308 308 309 315 319 323 319 322 316 315 312 306 309 307 304 310 313 317 317 315 314 322 327 321
317 316 316 316 315 316 315 316 316 316 316 316 316 315 314 312 312 311 317 312 310 311 306 312 310 310 314 317 311 316 322 313 310 305 309 305 303 309 314 316 315 315 313 310 315 317 315
317 316 316 315 316 316 315 316 316 316 316 316 315 314 313 311 311 313 315 312 316 314 306 306 309 309 311 314 311 313 319 316 309 306 306 303 306 311 312 315 312 314 313 311 311 313 319
317 316 315 316 315 315 315 315 316 315 315 315 314 313 311 310 308 318 313 316 316 315 301 301 304 309 310 312 308 318 320 317 312 306 306 306 311 309 310 311 313 309 316 312 310 309 309
317 316 315 316 315 315 315 315 315 315 315 315 314 312 310 307 316 313 314 317 316 312 291 301 305 312 312 307 308 310 319 316 311 309 308 305 307 309 309 311 314 310 316 314 311 309 307
317 316 316 316 315 315 315 315 315 315 315 314 313 311 310 312 316 315 317 317 312 299 288 298 303 303 303 306 307 310 311 313 316 311 311 309 313 315 314 315 315 314 312 311 312 310 302
317 316 316 315 315 315 315 315 315 314 314 313 311 309 311 315 315 318 318 313 299 294 301 297 298 302 302 302 304 307 306 306 306 303 303 305 308 308 310 313 315 312 308 301 301 300 300
317 316 315 315 314 315 315 316 315 315 313 312 308 307 312 317 318 318 316 306 294 296 298 302 300 301 299 303 303 304 304 303 304 304 305 299 296 304 305 308 309 309 308 302 296 298 301
317 316 316 315 314 315 315 315 315 314 313 310 307 320 320 317 318 317 310 300 296 296 299 299 300 297 298 301 302 303 303 301 302 304 302 302 297 303 303 306 306 308 305 309 303 306 302
317 315 316 315 315 315 316 315 315 314 312 310 321 318 315 317 317 314 308 296 299 301 301 301 296 299 296 299 299 300 300 302 301 304 305 303 297 301 302 304 306 308 311 302 303 298 297
317 315 316 315 315 315 316 316 315 313 311 309 317 312 315 318 316 312 302 299 300 302 302 300 298 298 299 297 300 298 297 301 303 303 305 304 303 299 302 301 301 303 304 305 306 304 299
317 315 315 315 315 316 316 316 314 311 309 310 314 307 316 317 309 309 301 301 298 302 304 302 302 301 300 300 299 298 296 299 304 304 300 303 303 298 299 301 302 302 304 305 301 301 304
317 315 315 315 315 316 316 315 313 311 309 317 312 309 317 316 302 301 302 300 302 301 301 300 299 301 302 300 298 300 299 301 304 303 302 303 301 295 296 299 301 301 302 303 304 306 303
317 315 315 315 315 316 316 315 313 311 310 315 311 304 308 310 309 303 301 299 298 302 301 302 301 302 301 300 303 299 299 300 303 303 303 304 302 299 297 298 301 298 298 300 303 301 303
317 313 314 315 316 316 316 315 313 311 310 315 310 302 304 301 302 302 302 299 297 297 301 303 300 300 299 298 299 298 300 301 303 302 303 303 297 300 299 298 298 297 296 297 300 301 301
317 314 314 315 315 316 316 316 314 312 309 316 309 307 307 303 302 302 299 299 297 298 299 297 298 299 301 299 299 297 300 302 300 303 302 302 297 299 296 296 296 295 296 296 297 298 301
316 314 313 314 315 316 316 316 315 312 312 315 317 313 310 299 302 301 299 298 297 299 300 300 299 299 298 299 302 303 304 303 303 302 299 300 299 297 293 295 294 292 297 297 297 299 301
317 313 313 314 314 315 316 317 316 313 312 322 318 314 310 301 304 301 300 301 300 300 299 301 302 300 302 306 305 304 303 302 302 302 303 298 299 298 296 294 286 296 300 299 298 301 302
317 313 312 313 314 315 316 317 316 314 312 321 322 316 311 304 304 302 301 301 303 303 302 302 302 305 306 304 299 296 296 297 297 299 301 302 299 295 291 291 293 294 297 298 298 299 304
317 313 311 312 314 314 316 317 317 315 313 321 319 321 314 309 305 305 303 303 303 302 302 302 306 308 305 303 301 293 293 295 292 294 300 298 301 296 293 289 287 297 301 303 302 295 304
317 313 311 312 313 314 315 316 316 316 314 319 319 321 316 308 308 308 306 305 306 304 304 303 303 302 305 301 299 297 295 296 292 292 293 295 296 293 293 291 295 301 302 304 292 297 304
316 313 311 311 313 313 314 315 315 315 315 315 318 321 316 310 311 310 309 307 306 306 304 304 302 301 301 298 298 297 297 293 295 298 296 295 294 293 295 292 289 304 302 296 303 306 305
316 314 311 311 312 313 313 315 315 315 315 313 316 319 320 312 312 316 315 314 312 311 311 307 304 301 304 302 301 300 297 297 296 293 299 293 299 298 297 299 305 306 305 307 305 302 304

GFSGBSN_sfc_thetae_087.txt.gz
Theta_e
320 319 319 318 318 317 317 317 317 317 316 316 316 316 316 317 317 317 317 317 317 317 317 318 319 320 321 314 315 336 334 335 327 334 326 322 320 325 322 325 333 329 331 330 332 335 334
319 319 318 318 317 317 316 316 316 316 316 315 316 316 316 316 316 317 317 317 316 316 316 318 319 321 318 309 326 331 325 322 322 329 325 323 321 325 321 323 329 332 332 329 328 330 336
318 318 317 317 317 317 316 316 316 316 316 316 316 316 316 316 317 317 316 315 315 316 316 318 320 322 318 314 329 327 324 320 326 328 322 324 322 319 322 321 333 330 325 326 327 330 333
318 317 318 317 317 317 316 316 316 316 316 316 316 316 316 316 316 316 315 314 316 319 318 318 321 322 317 326 329 326 328 324 327 327 323 323 323 320 321 326 326 325 325 318 327 333 334
318 317 317 317 317 317 317 316 316 316 317 317 317 317 316 317 316 314 314 314 318 322 320 320 322 322 314 328 322 327 327 320 322 323 323 322 321 318 321 318 317 322 317 317 324 332 332
318 318 317 317 317 317 317 317 317 317 317 317 317 317 317 316 315 314 313 313 318 321 322 324 323 315 320 315 321 324 325 322 318 318 316 315 316 314 316 317 308 313 315 320 319 328 329
318 317 316 316 316 316 317 317 317 317 317 317 317 317 316 315 313 312 313 321 319 317 316 313 311 313 316 321 324 320 321 319 318 315 308 311 308 307 311 314 318 318 316 315 321 328 324
318 317 316 316 317 317 317 316 317 317 317 317 317 315 315 314 313 312 316 316 313 315 309 314 312 314 319 322 313 318 323 313 311 307 311 308 305 311 313 314 315 318 316 315 320 326 323
318 317 317 317 317 317 316 316 316 316 316 317 316 315 314 313 312 313 319 315 319 318 309 310 311 312 314 319 313 314 318 315 310 307 309 306 308 312 311 312 314 317 316 316 315 318 319
319 317 316 316 316 316 316 316 316 316 316 316 315 314 312 311 307 320 315 318 320 318 304 304 305 311 315 315 310 318 321 317 311 307 309 309 312 310 309 312 315 312 318 316 316 315 311
319 317 317 316 316 316 316 316 316 316 316 315 314 314 312 308 318 314 318 319 319 316 293 304 306 318 314 310 313 313 321 318 310 309 310 306 309 308 308 312 315 312 319 316 314 313 313
319 317 317 316 316 316 316 316 316 315 315 314 313 312 311 315 319 319 320 321 316 300 292 301 307 306 307 309 311 314 315 319 319 312 311 310 313 313 312 315 315 317 316 317 315 313 305
319 317 317 316 316 316 315 315 316 315 314 314 312 310 311 320 317 323 322 316 301 296 305 300 301 305 306 305 307 309 309 308 308 305 304 309 309 314 317 312 316 315 312 305 303 303 302
319 317 316 316 316 315 315 316 316 315 314 313 309 308 315 321 323 322 319 309 295 300 300 305 302 303 301 305 306 308 307 305 311 311 306 302 301 311 316 315 311 312 311 304 298 300 303
319 317 316 316 315 315 315 316 315 315 314 311 308 320 322 324 322 321 312 299 297 301 301 302 300 298 300 304 305 306 305 305 307 309 302 303 302 309 310 315 312 311 307 312 306 309 304
319 317 316 316 316 315 316 316 315 314 313 311 321 320 322 321 322 318 308 298 302 304 302 305 297 299 298 301 302 303 304 306 305 308 311 307 301 306 307 310 312 310 315 306 306 300 299
319 317 316 316 316 315 316 316 315 314 312 310 319 314 320 323 321 313 302 303 304 305 305 303 300 298 300 300 302 301 302 304 306 307 310 309 306 303 306 305 306 308 307 310 309 307 302
320 317 315 316 315 316 316 316 314 312 309 307 317 309 319 321 310 311 305 305 300 304 306 304 305 304 300 300 301 301 300 304 307 307 304 309 306 301 302 307 308 309 309 310 304 303 306
320 317 315 316 316 316 316 315 313 312 310 319 313 312 320 319 304 304 305 303 305 303 305 304 302 305 306 301 298 302 302 304 306 307 306 307 303 299 299 303 306 305 308 309 310 309 305
320 317 315 316 316 316 316 315 313 312 311 316 312 306 310 313 312 306 303 301 301 305 304 305 304 306 305 303 306 302 302 304 306 304 306 308 305 302 297 301 305 303 304 306 307 303 305
320 318 315 316 316 317 317 315 314 312 311 317 312 306 309 304 304 305 304 303 300 299 304 306 303 303 304 301 302 302 304 304 305 305 306 306 300 303 302 302 303 304 303 303 304 306 303
319 318 315 315 316 316 317 316 314 312 310 318 312 311 310 307 306 304 301 301 300 300 303 300 301 302 304 303 304 301 303 304 304 306 306 306 302 303 300 300 300 299 300 300 303 304 306
319 318 314 314 315 316 317 316 315 313 313 317 319 317 312 303 305 303 301 301 299 302 302 303 302 302 302 303 306 308 309 308 308 306 303 304 303 301 296 300 298 295 300 301 302 304 307
318 318 313 313 315 316 317 317 316 314 312 322 319 317 312 305 306 303 302 302 302 303 300 303 304 303 306 309 308 307 307 307 306 307 307 303 304 302 296 299 290 300 305 304 302 304 308
318 317 313 313 315 315 316 317 317 315 313 322 321 318 313 308 306 304 304 303 304 305 304 303 304 307 309 306 302 298 299 299 300 302 303 305 304 299 295 295 297 298 301 300 301 302 307
318 317 312 312 314 315 316 317 317 316 314 321 321 324 316 310 307 307 305 305 305 305 305 304 307 310 308 305 304 295 295 297 296 298 303 303 305 300 297 293 290 300 304 307 305 298 308
317 317 312 311 313 314 315 316 317 317 315 317 321 325 319 309 311 310 309 308 308 307 307 306 305 305 308 305 302 299 298 301 296 295 296 298 299 296 296 294 298 305 305 305 294 300 309
316 316 312 310 312 314 314 315 316 316 316 316 321 323 318 312 313 311 311 309 308 309 307 308 305 304 303 301 301 301 299 300 298 301 299 298 296 296 297 295 292 307 304 298 307 310 309
315 316 313 310 311 313 314 314 316 316 315 314 319 323 322 314 315 318 315 317 314 314 312 309 307 303 306 307 305 304 302 302 299 296 304 297 302 300 299 301 310 310 308 312 311 309 308

GFSGBSN_sfc_thetae_090.txt.gz
Theta_e
320 319 319 318 318 318 317 317 317 317 317 317 317 317 317 317 317 317 318 318 318 317 318 318 319 321 319 313 310 333 340 338 318 322 331 327 320 324 321 326 333 328 331 333 335 334 336
320 318 318 318 318 317 317 317 317 317 317 317 317 317 318 317 317 317 317 317 317 317 317 318 319 321 315 308 326 332 324 318 316 322 330 326 320 325 325 327 330 330 331 330 332 333 336
319 318 318 318 317 317 317 316 316 316 316 316 316 316 317 317 318 317 317 316 316 316 318 318 319 320 316 313 327 328 323 318 319 325 325 325 323 322 323 320 331 332 328 328 327 334 332
319 319 318 318 318 318 318 317 317 317 318 317 316 317 316 317 317 316 315 315 315 318 320 320 320 320 314 323 329 324 323 318 321 327 328 326 325 320 319 324 324 326 325 318 325 333 333
319 319 318 317 317 318 317 317 317 317 317 317 317 317 316 316 316 315 314 314 316 323 324 321 318 319 311 329 321 324 325 318 321 326 326 324 321 316 317 315 316 322 315 318 321 332 332
319 319 317 317 317 317 317 317 317 317 316 318 318 317 316 316 315 315 314 314 318 319 320 321 323 314 316 316 319 324 327 323 319 321 317 316 314 311 312 313 307 312 315 318 319 325 326
319 318 318 317 318 317 317 317 317 317 318 317 317 317 316 316 315 313 313 320 317 318 316 311 312 314 317 321 323 321 323 319 318 316 309 313 306 305 309 315 318 317 317 317 319 329 327
320 318 317 317 317 317 317 317 317 317 317 317 316 316 316 315 314 313 314 317 314 316 309 314 315 313 318 320 313 316 321 313 312 307 311 307 303 310 313 314 314 316 314 316 318 321 321
320 319 318 317 317 317 317 317 317 317 317 316 316 316 315 314 312 312 318 316 319 318 307 312 314 312 316 319 313 313 316 314 310 307 308 305 307 311 311 310 309 312 313 317 316 319 320
320 319 318 317 317 317 317 317 317 316 316 315 316 315 314 312 309 319 317 318 319 318 303 307 309 310 315 318 311 318 320 313 310 306 308 308 311 309 309 308 310 308 317 318 317 310 310
320 319 318 317 317 317 317 316 316 316 316 315 316 314 312 311 316 312 317 319 319 315 293 306 307 317 315 311 312 313 319 314 309 307 308 306 308 308 307 308 313 311 319 317 317 313 311
320 319 318 317 317 317 316 316 316 316 316 316 315 314 312 315 315 319 321 320 316 300 292 302 307 307 308 309 310 314 313 317 317 310 309 309 313 311 311 312 316 317 315 317 316 313 305
321 320 317 317 317 316 316 316 316 316 315 314 313 311 312 320 316 323 321 315 300 294 307 301 303 306 306 305 307 309 308 309 307 304 303 307 308 311 313 310 314 313 310 305 302 302 301
322 320 317 316 316 316 316 316 316 315 315 313 310 309 314 319 324 323 319 308 295 300 300 307 304 305 302 305 305 308 306 306 310 310 305 301 301 307 313 311 310 310 311 304 298 299 302
322 320 318 316 316 316 316 316 315 315 314 311 308 320 319 324 325 321 312 299 296 299 305 303 303 300 300 302 305 306 306 305 308 311 303 302 303 311 314 316 315 309 307 313 307 307 303
322 320 318 316 316 316 316 316 315 315 313 311 317 319 321 322 323 319 307 297 303 306 304 304 298 299 296 300 301 304 304 308 306 311 312 308 301 310 311 312 314 311 314 305 307 299 298
321 321 318 316 316 316 316 316 315 314 312 311 316 314 321 324 320 313 300 301 304 306 306 304 301 299 300 300 302 300 303 306 308 308 310 309 306 304 308 306 306 308 307 309 309 306 300
320 320 318 316 315 316 317 316 314 312 310 307 318 309 320 319 308 308 301 305 301 304 306 304 306 303 301 302 302 302 300 304 308 308 305 310 306 301 302 308 310 311 309 309 303 304 306
320 320 319 316 316 317 317 316 314 312 311 316 314 311 319 317 302 302 305 304 306 305 305 303 302 304 305 301 299 302 304 306 307 307 305 307 304 299 300 304 307 305 308 309 309 309 305
320 320 319 316 316 317 317 315 313 312 311 316 315 306 310 314 311 306 304 302 301 305 305 306 306 305 303 302 304 302 302 305 307 306 311 310 303 302 296 300 305 302 305 308 307 302 305
319 320 319 316 316 317 317 315 314 312 312 317 314 305 310 304 305 306 306 303 300 300 304 307 304 305 303 300 301 301 304 304 306 305 307 305 299 303 304 303 304 304 304 305 304 306 304
318 319 318 316 316 317 317 316 315 313 311 319 311 309 310 308 306 305 301 302 301 301 304 301 303 303 305 302 304 301 303 304 302 307 305 306 299 303 300 302 302 301 303 304 304 305 308
318 319 318 315 315 316 317 317 315 313 313 318 317 317 313 305 306 304 301 301 300 303 302 304 304 303 304 305 308 309 310 309 309 306 305 304 301 300 297 302 300 296 301 301 303 306 311
318 318 318 314 314 316 317 317 316 314 312 320 319 319 312 305 305 303 303 304 303 303 301 303 305 304 307 309 309 308 307 306 307 307 308 305 304 302 297 300 290 301 306 306 303 305 312
318 318 317 313 314 315 316 318 318 316 313 318 321 318 314 306 306 304 304 303 305 306 304 303 305 307 309 306 302 298 299 300 301 303 304 306 304 299 295 294 299 300 303 302 302 302 313
317 318 317 313 313 315 316 317 318 316 314 318 322 322 318 309 306 308 305 306 306 306 305 305 308 311 308 304 301 295 294 297 297 299 303 303 304 300 298 293 290 300 305 307 305 298 310
317 317 317 313 312 314 315 316 317 317 315 315 321 325 319 311 311 310 308 308 308 307 306 307 306 306 309 304 300 299 299 303 297 296 297 297 298 295 296 295 298 305 305 306 294 300 310
316 316 317 313 312 313 315 315 316 317 316 315 320 324 317 314 314 311 312 309 308 308 305 308 305 306 304 301 301 302 300 303 298 301 300 298 296 295 296 294 292 308 305 298 309 312 311
315 316 317 314 311 313 314 315 315 316 316 315 318 324 324 315 315 319 316 316 315 314 311 309 307 307 306 304 304 305 301 302 299 295 305 298 302 300 301 301 310 310 310 312 312 310 310

GFSGBSN_sfc_thetae_093.txt.gz
Theta_e
320 319 318 318 318 317 317 317 317 317 317 317 317 317 317 317 317 317 317 318 317 317 318 318 319 320 317 310 308 328 345 342 322 315 313 322 323 319 315 320 331 327 331 333 337 336 334
320 319 318 318 318 317 317 317 317 317 317 317 316 316 316 316 317 317 317 317 317 316 317 318 319 320 311 301 327 329 322 320 312 311 316 325 325 319 318 320 326 327 327 331 334 333 334
321 318 318 318 317 318 318 317 317 317 317 317 316 317 317 317 317 317 316 316 316 316 317 319 319 318 311 309 328 326 319 311 308 311 320 328 329 316 316 316 330 326 321 328 331 332 329
321 319 318 317 317 317 317 318 317 318 317 316 317 317 318 316 317 316 315 315 315 317 318 319 319 314 307 318 320 322 318 314 312 314 322 327 323 315 312 317 325 323 325 316 329 331 331
321 320 318 317 317 318 318 318 318 318 317 316 316 316 316 316 316 316 315 315 316 319 324 322 313 311 310 327 316 319 318 313 311 315 318 326 319 309 310 305 303 317 311 316 323 331 328
321 320 319 317 317 318 318 318 318 317 317 317 317 316 316 317 316 315 314 314 317 318 320 318 316 308 314 314 318 318 320 316 312 314 316 316 307 302 303 300 296 304 310 315 316 324 323
322 320 318 317 318 318 318 318 318 317 317 316 316 315 316 316 316 314 311 314 310 311 314 304 307 313 312 319 318 316 321 317 315 313 304 307 299 296 301 305 307 311 313 314 317 322 320
322 321 319 318 318 318 318 318 317 316 316 317 316 315 316 315 314 313 309 310 314 308 302 312 310 312 315 315 311 316 319 309 308 303 306 302 298 304 307 308 307 309 309 314 318 322 321
321 321 319 318 318 318 317 317 317 317 316 316 315 315 314 314 313 308 310 313 319 311 300 306 312 310 310 313 310 310 313 310 305 303 303 300 303 309 305 305 305 306 303 314 314 319 322
321 320 319 317 317 317 317 317 317 317 316 316 315 316 314 312 309 313 310 317 318 312 294 302 306 310 311 314 308 316 315 310 306 302 304 302 308 306 304 303 304 297 309 315 316 313 305
322 320 319 317 317 317 317 316 316 316 316 316 316 316 314 312 307 307 313 312 311 307 287 306 306 314 308 307 309 309 316 310 303 303 302 300 304 303 302 304 306 302 318 318 316 311 312
322 321 320 318 317 317 316 316 316 316 316 316 315 314 313 311 310 311 316 318 310 293 290 301 305 304 303 306 308 311 311 312 310 306 304 304 309 307 305 308 308 310 311 312 310 307 299
322 321 320 318 316 316 316 316 316 315 315 314 313 312 310 316 310 318 318 310 294 290 305 301 300 302 302 302 304 305 305 302 299 295 297 301 303 307 308 303 306 306 302 295 297 296 296
321 321 320 318 316 316 316 316 316 315 315 313 310 309 311 315 316 318 315 303 293 298 298 304 303 304 299 302 302 305 302 299 305 304 298 294 293 303 308 302 301 302 300 294 294 293 296
321 321 320 319 316 315 316 316 315 315 314 312 309 314 315 317 318 317 308 297 297 299 303 302 302 297 296 302 300 303 301 300 304 306 298 296 297 307 308 308 306 304 299 304 299 299 295
321 321 320 319 316 315 316 316 315 315 313 311 309 312 311 322 322 314 303 296 300 305 305 303 295 298 294 298 298 300 300 305 304 308 305 304 294 305 307 310 310 307 306 296 297 293 290
321 320 320 319 316 315 316 316 315 314 312 310 312 308 317 321 320 309 298 299 304 306 305 301 299 297 297 298 300 299 300 305 305 305 305 303 298 301 306 301 301 302 299 300 299 297 294
320 320 320 319 316 315 317 316 314 312 310 311 311 305 320 315 306 306 300 304 305 303 305 302 304 301 300 301 300 300 300 303 306 304 300 302 298 295 297 302 309 304 301 300 294 293 300
320 320 320 319 316 316 317 316 313 312 311 310 309 310 312 312 301 300 304 304 303 303 303 303 302 304 303 299 298 301 302 307 306 303 301 300 298 293 295 296 299 297 301 299 298 299 300
320 320 320 319 316 316 317 315 313 312 312 309 311 305 308 309 308 304 301 301 298 303 304 305 304 304 302 300 300 300 301 305 306 303 315 308 298 296 291 293 296 296 300 301 298 295 300
320 319 320 319 316 316 317 315 314 313 311 309 313 301 307 299 300 302 302 302 300 299 304 305 305 305 302 297 300 299 303 301 304 308 303 300 295 295 299 302 299 299 300 301 296 305 299
318 318 320 320 316 316 317 316 315 313 311 317 309 306 309 303 305 302 300 298 298 299 300 300 300 303 304 300 300 298 301 301 298 302 299 301 295 297 295 301 299 297 301 302 301 309 306
317 318 320 319 315 316 317 316 315 313 311 317 318 316 313 305 304 299 297 299 299 304 302 303 302 302 301 303 304 303 303 302 302 301 299 298 297 294 289 298 298 291 297 298 298 308 310
317 318 320 318 315 315 317 317 316 314 312 313 319 314 311 304 301 300 302 303 302 303 300 301 303 303 304 307 305 303 301 299 303 301 302 298 296 294 291 295 284 294 301 302 300 309 313
318 318 319 318 315 315 316 317 317 316 313 312 318 315 312 305 303 303 303 302 303 304 302 301 304 305 305 301 296 294 292 293 297 299 298 299 297 293 289 287 294 299 300 299 298 308 314
318 318 318 319 315 314 316 317 317 316 314 314 318 321 316 310 302 307 304 306 303 302 303 303 306 306 304 298 296 290 290 297 295 296 295 297 299 293 292 290 287 295 302 305 303 301 312
317 317 317 318 315 313 315 316 317 317 315 313 316 325 316 309 309 308 306 305 307 305 303 304 303 302 304 299 296 294 293 301 292 293 291 291 293 289 289 289 296 301 302 303 292 296 313
315 316 317 318 316 313 314 315 317 317 316 314 316 323 316 311 312 311 312 308 307 306 303 305 302 302 299 296 297 297 296 297 294 297 294 293 290 290 290 287 288 306 302 298 303 306 308
315 316 316 317 316 313 313 314 316 316 316 315 318 325 325 316 312 317 315 315 314 312 308 306 304 305 302 301 300 300 297 297 295 289 300 292 297 294 296 296 303 307 305 307 307 305 306

GFSGBSN_sfc_thetae_096.txt.gz
Theta_e
320 319 318 318 318 318 317 317 317 317 317 317 317 317 316 316 316 316 317 317 317 317 316 318 319 319 314 306 305 321 350 340 334 319 311 309 314 317 315 320 325 322 324 331 334 333 332
320 319 318 318 318 317 317 317 317 318 317 317 317 317 316 316 317 317 317 316 316 316 316 318 319 319 307 293 317 330 328 323 313 310 309 313 322 324 316 323 326 330 331 330 334 332 333
321 319 318 317 317 317 318 318 318 318 317 317 316 317 317 316 316 316 316 315 315 315 316 317 319 317 309 303 321 324 318 311 306 307 312 313 322 321 316 311 323 330 323 329 331 331 328
322 319 319 318 318 318 318 318 318 318 317 316 316 316 316 316 316 316 317 316 316 316 317 318 319 313 302 317 315 314 316 309 308 306 311 319 324 319 313 312 316 321 323 316 327 329 329
322 321 319 319 317 318 318 318 318 317 317 316 316 316 315 316 316 317 316 315 316 318 320 322 309 306 302 323 314 315 315 310 306 306 310 317 316 311 308 302 298 314 310 314 323 329 327
321 322 320 318 318 318 318 318 318 317 316 317 316 315 315 316 317 315 314 314 315 317 319 318 315 304 310 311 313 315 315 313 307 307 310 310 308 300 299 297 292 297 309 314 317 324 324
322 321 320 318 318 318 318 318 318 318 317 316 316 315 315 315 315 313 308 309 308 307 309 300 303 309 313 314 318 314 315 310 308 307 302 306 298 295 298 300 302 302 302 313 318 325 320
323 320 320 319 318 318 318 318 317 317 317 316 316 315 314 313 314 313 306 304 310 305 298 312 309 311 313 312 308 311 316 306 305 301 304 299 295 301 305 304 303 302 305 315 319 322 322
323 321 320 319 318 318 318 317 317 317 317 316 316 316 315 314 312 305 305 308 314 309 297 302 309 308 309 308 307 309 312 308 303 301 300 296 301 306 305 303 300 299 298 313 314 316 317
323 322 320 320 318 317 317 317 317 317 316 316 316 315 315 313 305 306 305 310 310 308 290 297 299 308 310 308 305 314 313 308 303 300 301 299 305 305 302 301 300 292 304 316 317 312 307
322 321 320 319 319 316 317 316 316 316 316 316 316 315 313 311 304 303 309 308 312 302 284 305 303 312 305 305 307 307 313 307 301 302 300 298 300 301 300 301 302 299 307 316 316 309 311
321 321 321 320 319 317 316 316 316 316 316 315 315 314 312 308 305 308 310 310 303 291 286 301 304 302 299 301 304 307 308 308 308 302 301 300 306 303 302 305 305 307 313 313 313 305 298
321 321 320 320 319 316 315 316 316 315 315 314 313 311 309 312 304 309 309 304 292 287 302 299 298 301 298 298 301 302 303 300 297 292 292 301 301 304 305 299 302 303 297 292 296 295 295
321 320 320 319 318 316 315 316 316 315 314 313 310 309 307 311 309 309 307 299 289 297 296 302 301 299 295 298 301 302 300 296 300 298 294 293 293 299 304 301 298 298 298 292 290 291 294
322 320 320 319 318 317 315 316 315 314 314 311 308 303 305 310 312 309 302 290 291 296 300 300 298 293 296 300 301 300 299 296 299 299 294 293 293 304 306 305 303 297 296 300 295 295 296
321 321 320 319 318 317 315 316 315 314 313 311 304 304 305 314 315 306 297 293 296 303 301 300 292 294 291 296 297 297 300 304 302 304 300 299 293 298 305 305 306 302 304 295 293 290 292
321 320 319 319 319 317 315 316 315 314 312 310 307 302 309 315 311 301 293 293 301 306 306 298 295 293 294 296 297 296 299 304 306 304 302 298 294 296 300 297 299 300 297 298 296 294 296
320 320 319 319 318 317 316 316 314 312 310 310 305 299 312 311 300 297 294 300 303 299 300 298 300 299 296 298 297 298 299 302 308 305 297 298 293 290 295 301 306 302 299 296 293 294 298
320 319 318 319 319 317 316 316 314 311 310 305 302 303 309 309 296 294 298 301 303 297 298 301 300 300 298 296 295 299 303 308 308 300 294 296 292 289 293 294 298 295 297 295 295 298 295
319 318 318 318 318 316 316 315 313 312 311 306 304 299 300 299 299 297 295 296 293 301 301 302 301 300 298 295 299 299 300 306 307 302 314 306 291 293 289 291 294 293 297 298 294 295 295
318 318 319 320 319 316 316 315 314 313 311 307 305 300 296 292 293 293 294 296 296 295 299 300 300 302 299 295 297 297 301 300 303 309 302 298 290 292 296 298 298 295 296 299 299 299 296
318 317 318 320 318 316 316 316 315 313 310 312 303 302 305 297 297 293 293 290 294 294 295 296 297 303 301 296 297 295 297 295 297 300 297 295 295 292 295 298 299 295 297 302 306 306 308
318 317 318 320 318 315 316 316 315 313 309 308 311 309 307 302 293 291 290 293 297 299 297 300 301 299 298 300 300 297 298 297 297 297 297 294 291 293 290 296 294 289 294 295 302 308 311
317 317 317 320 319 316 316 317 316 315 311 306 310 308 304 300 294 295 299 300 299 298 295 298 299 297 300 302 299 298 296 295 297 295 296 293 292 290 289 293 284 292 298 302 309 311 313
317 318 318 318 319 316 315 317 317 316 314 305 307 307 304 299 299 298 298 298 298 298 296 297 299 299 299 296 292 289 289 291 293 295 293 295 290 288 286 286 294 298 298 296 300 305 315
314 317 317 317 319 316 315 317 317 316 314 306 306 312 307 302 298 303 299 299 295 294 296 297 300 301 299 293 292 286 287 292 292 293 294 293 292 289 286 284 285 296 302 303 307 300 315
314 315 316 317 318 316 314 315 317 317 315 308 306 313 308 302 304 301 300 298 300 297 296 296 296 297 298 293 290 286 288 297 288 289 289 286 288 287 287 286 291 299 302 305 291 294 310
313 314 315 316 317 316 313 314 316 316 316 310 308 313 307 301 304 309 307 302 302 300 295 298 296 299 294 291 292 287 287 289 289 292 290 289 285 285 287 284 283 304 303 298 300 302 310
313 314 315 315 316 317 313 315 316 316 315 314 309 315 317 307 306 311 310 308 307 305 301 298 299 297 295 294 293 293 289 291 288 283 295 290 293 291 293 292 300 302 302 304 304 304 304

GFSGBSN_sfc_thetae_102.txt.gz
Theta_e
320 320 319 319 318 318 318 317 317 317 317 317 317 316 316 315 315 315 315 316 316 315 315 315 316 319 310 299 298 307 346 336 332 317 308 306 308 310 309 316 323 322 326 331 333 331 332
321 320 320 318 318 317 317 317 317 317 317 317 316 316 316 315 315 315 315 315 314 314 314 314 315 318 303 288 302 325 330 324 322 313 306 307 311 319 318 319 319 325 328 328 332 331 331
322 320 320 320 318 318 317 317 317 317 317 317 316 316 316 315 315 316 316 315 315 315 314 314 316 316 306 295 313 323 321 314 313 308 305 307 318 317 320 315 326 331 324 327 329 330 328
324 321 319 320 319 318 317 317 317 317 317 316 316 316 315 315 315 315 316 316 315 315 314 315 316 309 295 306 312 313 311 308 308 302 307 308 319 318 315 316 314 323 322 315 328 328 328
323 322 321 320 320 319 318 317 317 316 317 316 316 316 315 314 314 314 315 315 316 316 316 318 305 301 295 316 312 311 312 307 303 301 304 314 314 311 308 300 297 310 308 313 319 329 326
323 323 322 320 320 319 318 317 317 316 316 316 316 315 315 314 313 312 312 313 318 318 318 317 314 301 306 307 311 309 311 306 302 301 304 303 303 299 296 295 291 298 306 313 315 322 326
323 323 323 321 319 319 318 318 317 317 317 316 316 315 315 314 313 311 306 307 301 300 305 298 299 302 306 311 312 308 312 308 304 301 296 301 298 297 297 299 301 300 308 314 317 325 320
324 322 322 321 320 318 319 317 317 317 317 316 316 315 314 314 313 312 305 299 301 304 298 306 307 306 309 309 304 307 310 302 300 297 301 297 296 301 303 302 302 303 312 313 318 322 321
323 322 321 321 320 318 318 317 316 317 317 317 316 315 314 313 312 306 301 303 307 305 295 300 306 305 304 307 304 305 307 302 299 299 299 296 299 303 302 300 299 298 304 313 314 319 321
323 322 321 320 319 318 317 317 316 316 316 316 316 316 314 311 304 303 301 305 306 304 289 297 298 304 305 305 300 310 309 307 301 298 300 298 302 301 299 299 300 293 303 318 314 310 304
322 322 321 320 319 318 317 317 316 316 316 316 316 315 312 310 302 302 306 306 304 299 283 302 301 307 302 300 303 304 310 305 298 299 299 297 298 298 297 299 299 299 305 315 315 308 305
322 322 322 321 318 318 317 317 315 315 315 315 315 313 311 306 305 307 310 305 300 291 287 298 302 301 296 298 301 304 305 306 304 299 297 299 301 300 300 302 302 306 313 309 308 304 297
322 321 321 320 318 318 316 317 315 315 315 314 312 311 309 310 302 307 306 303 291 286 298 295 295 298 295 295 298 299 300 296 294 290 288 296 297 299 301 295 297 299 299 294 294 294 295
321 321 321 319 318 318 317 317 315 315 314 313 310 307 307 309 307 306 304 296 287 295 293 298 297 294 294 297 299 300 296 294 297 294 290 290 289 298 300 298 294 296 297 294 288 290 293
320 320 320 318 318 318 316 316 315 314 314 312 308 300 302 305 309 305 299 288 288 293 297 297 294 292 293 297 297 298 295 294 296 294 289 289 292 301 300 299 300 294 294 300 294 291 296
320 320 319 318 318 317 316 315 315 314 313 311 302 302 302 308 308 302 295 289 293 299 299 297 289 291 289 294 294 295 294 299 298 301 295 292 289 296 302 302 301 298 299 292 290 287 288
320 320 319 318 318 317 316 315 315 313 312 309 301 300 305 308 304 300 291 290 297 302 303 294 292 292 292 293 294 294 296 299 302 301 297 295 292 294 296 294 296 297 294 292 293 292 290
320 319 318 318 318 318 316 315 314 312 310 305 299 297 306 305 297 292 292 295 300 298 300 297 296 295 294 296 295 295 296 298 305 301 293 295 291 289 294 297 299 297 295 294 291 290 293
319 319 318 318 319 318 317 314 313 312 310 303 298 298 307 304 292 290 294 298 299 295 294 297 296 296 298 295 291 296 300 305 306 298 291 294 290 288 292 292 296 292 292 293 293 297 295
317 318 319 318 319 318 317 314 313 312 310 303 299 293 297 296 293 293 293 293 290 299 296 296 297 296 294 293 294 293 298 303 302 301 312 302 290 291 288 289 291 292 293 294 292 290 294
316 317 318 319 319 319 318 314 314 312 310 303 299 295 297 289 291 289 290 291 293 291 295 298 298 299 294 291 292 294 296 296 301 305 298 294 290 290 293 295 295 293 293 294 293 294 297
314 315 317 318 319 319 318 315 315 313 309 304 300 298 299 295 292 288 290 288 291 291 293 294 296 298 298 294 293 291 293 292 291 298 293 293 290 290 294 297 295 293 298 296 304 303 305
313 314 316 318 318 318 318 315 315 313 308 303 304 304 300 295 288 289 288 290 293 294 294 297 298 297 295 298 297 298 296 294 292 291 294 293 290 289 287 294 294 289 293 296 297 308 307
313 313 314 317 318 318 317 316 315 315 310 301 303 304 297 292 292 293 295 296 295 294 292 294 295 295 297 299 298 297 293 295 295 293 293 295 290 288 288 290 285 296 298 304 308 310 311
313 313 314 315 317 318 317 317 316 316 313 301 301 302 300 296 296 294 295 295 295 294 293 295 295 296 295 294 291 289 291 290 296 295 291 292 292 289 288 287 293 297 297 296 300 305 313
314 313 313 314 316 317 318 318 315 316 314 302 302 306 304 296 296 303 295 295 292 292 294 295 297 297 297 290 290 284 284 290 291 293 293 291 291 291 286 284 285 296 301 304 307 294 315
314 314 312 313 315 315 317 318 314 316 314 306 305 307 304 298 300 298 296 295 297 294 293 293 295 294 296 291 286 282 285 293 286 287 287 286 286 284 285 285 289 297 302 304 292 292 314
314 314 314 312 314 315 316 316 314 315 315 309 307 309 303 298 301 305 304 299 299 296 294 295 295 295 292 290 289 284 283 286 287 288 287 288 284 284 283 283 282 300 301 295 297 305 314
313 314 314 313 313 315 316 316 314 315 315 312 304 309 309 303 302 307 308 304 304 304 298 295 296 294 294 291 290 289 286 287 283 281 291 287 290 289 290 288 296 299 299 302 301 305 308

GFSGBSN_sfc_thetae_105.txt.gz
Theta_e
321 319 320 319 318 318 317 317 317 317 317 317 317 317 316 316 315 315 315 315 315 315 315 315 315 317 316 304 302 309 335 333 337 318 316 315 311 316 318 318 326 324 326 331 333 331 332
323 321 319 320 319 318 317 317 317 317 317 317 317 316 316 315 315 315 315 315 314 314 313 314 314 317 310 297 310 330 334 330 327 315 313 315 312 322 320 320 324 326 328 329 333 331 332
324 323 320 320 320 319 318 317 317 317 317 317 316 316 316 315 315 315 315 316 315 315 315 314 315 317 309 302 314 330 326 322 324 315 311 314 321 322 324 317 327 330 323 328 330 330 328
324 323 322 320 319 320 318 317 317 317 317 316 317 316 316 315 314 314 314 315 314 314 314 314 317 315 301 309 316 324 316 315 314 312 313 314 325 325 322 320 320 324 324 317 328 329 328
324 323 323 322 320 318 319 318 317 316 316 317 316 316 316 315 314 313 312 313 315 315 315 318 314 310 300 319 314 319 316 309 314 312 311 314 317 319 316 308 316 319 312 316 321 329 327
324 323 322 322 321 319 318 319 317 317 317 317 316 316 315 314 314 313 311 314 319 319 318 317 316 307 311 310 314 316 316 312 309 309 308 309 311 314 310 307 305 311 312 317 314 324 326
325 324 323 322 321 319 318 319 318 317 317 316 316 315 315 315 314 312 310 314 308 308 311 306 306 305 308 314 315 312 314 309 308 307 303 308 309 309 313 308 308 314 312 315 322 325 322
324 324 323 321 320 319 318 318 318 317 317 316 315 315 314 314 313 312 308 306 308 311 305 309 309 308 310 312 308 310 315 306 303 301 306 305 304 312 310 307 307 318 318 316 319 321 321
324 323 322 322 320 319 318 317 317 317 317 317 316 315 314 312 311 309 307 308 313 312 304 304 308 308 309 311 308 309 313 307 302 302 305 302 306 311 307 305 306 306 310 316 316 320 322
323 322 321 322 320 319 318 317 317 316 316 316 316 316 313 311 307 309 307 311 311 311 299 303 305 308 310 310 306 313 314 309 306 303 306 308 307 308 304 304 306 304 308 320 315 313 308
322 321 321 321 320 318 318 316 317 316 316 316 316 314 311 310 308 307 309 312 310 305 289 305 306 313 309 307 309 309 315 311 305 305 305 304 305 304 303 304 306 304 310 319 318 314 313
322 321 321 321 319 318 318 316 316 315 315 315 315 312 311 309 309 311 314 310 306 297 289 300 305 304 304 305 307 310 310 312 309 306 306 305 307 308 307 308 307 318 317 317 316 313 304
321 321 321 319 318 318 317 316 316 315 315 314 312 309 309 312 307 312 312 309 298 292 302 298 300 302 301 301 304 306 306 304 302 298 300 302 303 306 307 304 306 312 310 303 301 302 299
321 320 320 318 318 318 317 316 315 315 314 313 309 307 309 312 314 312 311 303 292 297 297 302 301 300 300 302 303 303 303 301 303 302 299 297 295 304 306 305 302 307 308 302 295 297 300
320 320 319 318 318 318 317 316 315 314 314 311 308 309 310 312 313 311 308 295 295 298 301 300 300 298 299 302 302 303 301 300 302 304 299 297 297 306 305 307 307 302 299 308 303 305 304
320 320 319 318 318 317 317 316 314 314 312 310 310 311 311 314 313 311 304 294 299 302 304 302 296 299 297 300 300 301 300 304 302 304 305 302 296 304 306 306 306 306 308 300 303 298 297
319 319 319 318 318 317 318 316 314 314 311 309 310 310 312 315 312 309 299 298 301 306 306 301 299 299 299 299 301 301 300 304 306 305 304 304 301 302 305 303 302 303 302 303 305 303 300
317 318 318 318 318 318 318 316 313 312 310 308 308 307 313 312 307 301 302 301 301 303 305 303 303 302 301 301 301 301 299 302 308 307 301 303 303 300 302 305 306 306 305 306 299 300 305
315 317 318 318 318 318 317 316 313 311 310 309 308 309 314 312 301 301 303 303 303 300 301 302 302 303 304 301 298 302 303 308 309 303 301 304 300 298 299 301 303 302 302 305 306 308 305
315 315 317 318 318 318 317 316 312 312 310 310 307 303 306 305 302 303 302 300 298 302 301 302 303 303 302 301 303 300 301 305 305 307 310 308 301 301 296 299 301 299 299 303 306 302 304
314 314 315 317 318 318 317 316 313 312 310 310 308 304 303 300 299 300 300 298 297 297 301 305 304 303 301 299 300 299 301 302 304 308 303 304 299 300 300 299 300 300 304 300 302 304 304
313 313 314 316 318 318 317 316 314 313 309 312 309 308 307 303 298 299 296 297 296 297 299 299 301 302 303 301 301 298 299 300 299 304 303 303 300 300 299 301 300 298 305 306 306 305 309
313 314 314 315 317 318 318 316 314 313 310 311 312 312 308 299 297 299 297 298 297 299 300 300 301 302 301 300 302 303 303 302 301 300 302 302 302 300 296 300 301 296 299 307 309 312 312
314 313 313 314 315 318 318 316 315 314 311 309 312 312 306 299 300 299 299 300 299 299 299 300 301 302 303 305 303 303 303 302 302 301 301 302 301 299 298 300 292 300 304 308 312 314 316
315 314 313 313 314 316 317 316 317 315 313 311 310 311 308 301 301 301 301 301 301 302 301 300 302 304 304 303 301 298 298 298 302 300 300 302 302 297 294 296 299 300 301 302 304 306 317
314 315 314 313 313 315 316 317 317 315 314 311 311 314 313 304 302 303 301 302 301 302 302 302 305 305 306 303 301 293 293 297 296 297 301 301 303 299 296 291 291 301 304 308 311 302 318
314 314 315 314 313 314 316 317 317 315 314 314 314 314 313 308 309 306 304 303 304 302 303 302 303 304 306 303 299 298 298 299 296 294 296 296 296 295 294 293 296 303 307 308 297 300 315
314 314 314 315 314 313 315 316 316 314 315 314 316 317 313 309 310 310 308 307 306 305 303 303 303 304 304 300 300 299 299 300 297 297 296 296 294 295 293 292 291 306 307 302 307 311 316
313 314 314 314 314 313 314 316 316 314 314 313 313 314 315 311 311 314 315 312 310 311 307 304 305 303 306 303 302 300 299 299 295 294 300 296 299 299 298 298 306 308 307 310 310 310 315

GFSGBSN_sfc_thetae_108.txt.gz
Theta_e
324 322 320 320 320 319 318 317 317 318 318 318 318 317 317 316 316 315 316 315 315 314 314 315 316 317 319 311 306 318 331 333 324 327 322 318 315 317 324 324 327 326 328 333 331 331 331
324 323 322 320 319 320 319 317 317 317 317 318 318 317 317 316 316 316 316 316 315 315 315 315 315 317 314 306 315 330 326 326 322 322 319 319 316 320 326 325 326 327 330 332 330 329 332
325 324 323 322 320 319 319 318 317 317 317 317 317 317 316 316 315 315 315 315 316 315 315 315 316 319 312 310 317 333 327 326 323 322 317 319 319 323 329 325 332 328 326 331 331 331 329
325 324 323 323 321 319 319 319 318 318 317 317 317 317 316 316 315 315 313 313 315 315 315 315 317 319 309 313 323 323 324 324 324 322 320 321 324 328 328 324 327 325 327 320 327 329 330
325 324 323 322 322 320 318 319 318 318 317 317 317 316 316 315 315 314 312 313 315 316 316 318 318 314 306 318 317 318 319 316 318 317 318 318 322 325 325 316 318 322 312 318 321 329 327
325 325 324 323 321 320 319 318 319 318 317 317 316 316 316 315 315 313 313 314 318 318 319 320 318 312 315 309 319 317 317 317 313 313 312 312 317 320 320 316 310 315 316 318 318 325 326
325 324 324 323 321 320 319 318 318 318 317 316 316 315 315 315 314 313 314 321 317 316 316 312 311 309 312 318 321 316 317 313 312 310 307 310 309 313 319 317 315 320 319 316 322 327 322
324 324 323 323 322 320 319 318 318 318 317 317 316 315 314 314 313 312 315 314 314 315 308 315 313 312 314 316 312 315 317 310 307 303 309 306 304 315 322 316 313 317 317 319 322 325 322
323 323 322 322 321 320 319 317 317 317 317 317 317 315 313 312 311 313 316 315 318 317 309 309 312 312 313 315 312 313 315 310 306 304 307 304 307 318 316 312 311 318 316 319 318 321 320
322 322 321 321 320 319 318 317 317 317 317 316 317 315 313 311 310 318 315 318 319 317 304 305 309 311 314 315 309 317 318 310 305 304 307 307 311 313 315 310 312 310 316 321 319 317 308
322 321 321 320 318 319 318 316 317 317 316 316 316 314 311 309 317 313 316 320 320 315 293 306 308 317 315 311 312 313 318 312 305 305 308 306 308 311 312 313 311 309 312 317 319 315 315
321 321 321 319 319 318 317 316 316 316 315 315 314 312 311 314 317 317 320 318 315 302 292 303 308 307 308 310 311 314 313 316 314 307 310 309 315 314 312 314 310 314 313 315 317 314 306
320 320 320 319 319 318 317 317 316 315 315 314 311 310 311 318 315 321 319 316 303 297 305 301 303 307 307 306 308 310 309 307 305 301 302 307 308 312 313 310 313 312 312 304 301 303 303
320 320 319 319 318 318 317 317 316 315 314 312 309 307 312 319 323 319 317 310 296 300 301 306 305 306 304 306 307 308 307 305 308 306 303 301 299 308 311 310 308 310 311 305 297 299 304
320 320 319 319 318 318 317 317 315 314 314 311 308 319 319 322 320 319 313 302 299 301 304 303 304 301 302 306 306 306 306 306 307 308 302 301 301 310 311 311 310 309 307 314 308 310 305
317 318 319 318 318 318 317 317 315 314 313 310 323 321 319 320 321 318 309 298 303 306 307 306 300 303 300 303 303 305 304 307 306 309 311 306 300 307 309 311 311 310 313 306 307 300 300
316 316 317 318 318 318 318 317 315 313 312 310 320 315 320 323 321 314 303 303 305 308 309 305 303 302 303 303 305 304 304 307 308 308 310 308 305 305 308 305 304 306 305 307 308 307 302
316 316 317 317 317 318 318 316 314 312 310 311 318 310 322 320 309 311 305 306 301 305 308 307 307 305 304 304 304 304 303 306 310 311 306 310 307 303 304 310 310 310 307 307 301 302 307
316 316 316 316 317 318 318 316 314 311 310 319 319 316 323 318 305 305 308 305 306 305 306 305 304 306 307 305 302 306 306 310 310 308 307 310 305 300 302 307 309 307 308 309 309 308 305
315 315 315 316 317 318 318 315 314 312 311 317 316 308 314 319 315 308 304 303 302 306 305 307 306 307 305 304 307 304 305 308 308 310 309 308 306 304 299 302 307 304 306 308 308 304 305
314 314 314 315 317 318 318 316 314 312 311 317 318 310 310 305 307 309 307 304 301 301 306 308 306 305 304 302 303 303 305 307 308 308 309 309 304 305 306 305 305 305 305 306 306 308 305
314 314 314 314 316 317 318 316 315 313 310 321 316 314 316 310 307 306 301 303 301 302 302 301 305 305 307 305 305 302 305 307 306 308 309 308 304 306 303 304 304 303 307 308 307 308 309
315 315 314 314 314 316 318 316 315 313 312 319 322 322 316 302 306 305 305 303 301 302 303 303 304 307 305 305 308 309 308 307 307 306 305 306 306 304 300 304 304 300 305 309 311 313 314
315 315 315 314 314 315 317 317 316 314 312 319 320 320 313 304 306 305 303 302 302 303 302 303 303 307 308 311 310 310 310 308 308 308 310 306 305 305 299 304 295 305 310 311 313 316 318
314 315 315 315 314 314 316 317 316 315 314 320 323 319 315 306 308 305 304 304 307 307 305 304 304 309 312 309 306 302 303 303 305 306 307 309 306 301 297 298 303 304 306 307 308 310 320
314 315 315 315 315 314 315 317 316 316 314 319 324 324 319 309 306 308 307 307 307 308 306 306 310 313 312 309 304 298 297 300 298 300 306 306 309 303 301 295 294 304 308 312 312 306 322
314 315 314 315 315 315 314 316 316 316 314 317 325 326 320 312 313 310 308 308 310 309 307 309 308 309 312 305 301 300 301 305 299 298 300 301 302 296 299 297 301 308 310 312 301 305 315
314 314 314 314 315 315 314 315 316 316 315 315 324 327 321 315 314 314 312 311 312 312 307 310 308 308 307 302 301 303 301 306 301 304 301 301 298 298 300 295 294 311 311 307 312 317 318
314 314 314 314 314 315 314 314 315 315 314 313 320 325 325 318 316 320 318 315 315 315 314 312 309 307 310 308 307 308 303 304 301 298 306 300 304 303 302 303 310 313 312 317 319 318 318

GFSGBSN_sfc_thetae_111.txt.gz
Theta_e
325 324 323 322 320 320 319 319 318 318 318 318 318 318 318 317 317 317 316 316 316 316 315 315 316 317 319 315 313 330 333 338 321 325 324 321 318 319 319 329 329 328 331 334 333 331 333
325 325 324 323 322 319 320 319 319 318 318 318 318 318 318 317 317 316 317 317 317 316 316 317 317 317 317 311 317 327 324 321 318 325 323 322 319 321 324 329 326 332 331 332 331 329 331
326 324 324 324 322 320 319 319 319 319 318 318 317 318 317 317 317 316 316 315 316 317 316 317 317 319 317 314 319 330 325 317 318 324 320 323 322 318 329 327 333 329 326 330 328 329 328
326 325 324 324 322 321 319 319 319 318 317 318 318 317 317 317 316 316 315 314 314 317 317 317 318 320 315 319 323 329 327 324 323 323 323 323 322 319 327 331 331 325 327 320 327 328 329
325 325 325 324 322 321 319 318 319 319 318 317 317 317 317 317 316 315 315 314 316 318 318 318 321 320 311 315 319 324 326 321 320 322 323 322 321 320 329 322 319 323 314 319 320 329 326
325 325 324 324 322 321 320 318 318 319 318 318 317 316 316 316 315 314 315 314 319 318 320 322 321 314 316 311 320 319 323 322 316 317 316 315 315 316 324 320 311 315 317 318 317 324 325
324 324 324 324 323 321 320 318 317 318 318 318 318 317 316 315 315 313 315 324 320 320 320 315 313 313 314 320 322 318 317 317 315 314 308 311 308 310 319 322 317 317 317 315 320 327 320
324 323 323 322 321 321 320 318 317 318 318 317 318 317 315 314 313 313 316 318 316 317 311 317 314 314 317 320 312 316 318 310 308 306 311 308 305 314 320 321 317 314 316 316 322 325 318
323 322 322 321 320 320 319 318 317 318 318 317 317 316 315 313 312 313 321 319 323 321 312 311 314 314 315 317 313 313 316 313 308 305 307 307 309 313 317 318 314 315 317 318 319 320 321
322 321 321 320 319 319 319 318 317 317 317 317 317 316 314 312 310 322 317 323 323 322 307 307 310 313 316 315 311 319 317 313 309 305 307 309 312 311 314 316 317 309 323 320 320 317 310
320 321 320 319 319 319 318 318 317 317 316 316 316 314 313 310 318 316 320 323 323 321 292 308 311 319 318 313 313 313 319 312 306 306 308 307 308 309 313 316 317 313 318 322 320 316 314
320 321 320 320 320 319 318 317 317 316 316 316 315 313 312 316 319 320 322 323 320 305 293 305 310 310 310 312 311 313 313 316 316 308 309 310 314 313 314 319 318 317 315 318 318 314 307
320 320 320 320 319 319 317 317 317 316 315 314 312 310 311 322 319 324 323 318 305 297 307 303 305 309 308 308 310 311 309 308 307 302 303 308 310 314 317 313 315 314 313 309 304 305 306
319 319 319 319 319 318 318 317 317 315 315 313 309 308 314 322 325 322 321 312 298 302 303 308 307 307 305 308 309 309 308 306 310 308 305 302 301 311 314 313 310 313 313 307 299 301 304
318 317 318 318 318 318 318 317 316 315 314 312 308 322 323 326 325 323 315 305 302 304 307 305 306 304 305 308 308 308 308 307 309 310 304 303 303 312 313 314 314 311 310 318 308 309 307
317 316 316 317 318 318 318 317 316 315 313 311 324 322 322 325 326 321 312 299 304 308 309 308 301 305 302 304 304 305 305 310 308 310 313 308 302 310 311 313 313 311 316 308 310 300 297
316 316 316 316 317 317 318 317 316 314 312 310 322 317 323 327 325 316 307 304 306 309 310 307 304 303 304 304 305 306 305 309 310 310 312 310 307 306 309 307 307 307 307 310 311 308 301
316 316 316 316 316 317 318 317 315 312 310 309 322 313 323 325 312 313 307 307 303 307 310 308 308 307 305 306 305 305 305 308 312 312 307 310 307 302 306 311 312 311 308 309 303 304 307
316 316 316 316 316 317 318 317 314 312 311 320 319 314 323 322 308 307 308 306 307 307 307 306 307 308 308 306 303 307 308 312 312 311 310 311 305 301 302 308 310 306 309 310 309 309 305
316 315 316 316 316 317 317 316 314 312 311 317 318 309 315 316 315 310 306 305 304 307 306 307 307 309 307 306 308 306 306 310 311 312 316 313 306 305 298 303 308 306 307 309 308 303 305
316 315 315 314 315 316 317 317 314 313 312 318 318 312 314 310 309 310 308 306 303 303 307 308 307 307 307 304 305 304 307 309 310 310 311 311 304 306 306 307 310 308 307 307 307 308 305
316 316 316 315 314 316 317 317 315 313 311 322 317 314 313 314 309 308 302 305 302 303 303 303 306 306 308 306 308 304 307 308 307 311 310 311 304 307 305 306 307 306 308 308 308 308 308
315 315 316 316 315 315 316 317 315 313 312 322 325 324 318 306 308 307 307 305 304 303 304 305 306 308 306 309 311 312 311 311 311 310 308 308 306 304 301 305 305 302 306 308 309 311 310
315 315 316 316 316 315 315 317 316 315 313 323 324 323 315 307 308 308 305 304 303 305 304 304 306 307 312 315 314 313 312 311 311 310 311 308 307 306 302 305 296 306 314 313 312 314 317
315 315 315 315 316 316 315 316 318 316 315 320 324 323 317 308 309 308 306 306 308 308 307 306 306 310 315 312 308 306 305 306 306 309 309 311 308 303 299 301 300 304 310 309 310 312 320
315 316 315 315 316 316 316 315 317 316 315 318 324 327 322 312 309 310 307 308 308 309 308 308 312 314 311 309 306 301 298 302 301 303 310 310 310 305 302 298 291 301 310 314 314 306 315
314 315 315 315 315 316 316 315 316 316 315 316 325 331 323 313 316 312 310 310 312 310 308 310 310 311 311 306 301 301 301 307 299 300 300 301 301 300 300 299 303 310 309 313 300 306 317
314 314 315 315 315 315 316 315 315 316 316 315 325 332 324 315 317 315 314 312 311 310 307 312 309 310 308 304 303 304 302 307 303 304 304 303 299 299 302 295 295 314 312 306 314 318 319
314 315 314 315 314 314 316 315 315 316 315 314 321 328 328 322 318 321 320 320 316 315 312 313 311 311 311 309 309 309 304 305 303 298 309 300 305 305 305 305 313 315 315 318 320 320 322

GFSGBSN_sfc_thetae_114.txt.gz
Theta_e
326 325 324 324 322 320 319 319 319 319 319 319 319 319 319 318 318 318 318 318 318 318 317 317 317 318 318 315 314 330 341 339 321 313 319 322 319 319 319 324 328 328 330 334 334 334 333
327 325 325 324 323 321 319 319 320 319 319 319 318 319 319 318 318 318 318 317 317 318 318 318 319 318 314 310 321 328 327 327 313 313 319 323 320 321 319 322 326 331 332 332 332 331 331
326 326 325 324 323 321 319 319 320 319 318 319 319 318 318 318 318 317 317 317 316 317 318 318 319 318 315 314 321 322 325 319 315 315 320 324 324 320 320 324 333 334 327 328 328 329 328
326 326 326 324 323 322 320 318 319 320 318 318 318 318 318 318 318 317 316 316 316 316 318 318 318 318 314 321 323 325 328 316 318 320 324 325 324 319 317 329 329 327 326 318 325 328 328
325 325 325 325 323 321 319 318 318 319 319 319 318 318 317 317 317 316 316 315 317 319 319 320 318 317 313 315 314 324 326 318 319 319 322 323 320 315 317 316 319 324 315 316 319 327 326
324 324 324 324 322 321 320 318 317 319 319 319 318 318 317 316 315 315 315 315 321 317 320 322 320 314 318 312 318 322 325 323 317 317 317 316 314 311 313 316 309 313 317 317 317 323 325
324 324 323 322 320 321 320 319 318 318 319 319 319 318 317 317 315 313 314 321 319 318 320 315 315 314 314 319 321 317 321 320 316 314 309 312 307 304 311 320 319 317 317 315 319 324 320
323 323 322 321 319 320 320 319 318 319 318 318 318 318 317 316 314 313 314 317 316 317 311 319 315 315 317 319 312 315 317 311 310 306 310 307 303 310 315 319 317 318 317 315 321 323 319
321 322 321 321 320 320 320 319 318 318 318 318 318 317 316 315 314 313 318 319 323 322 311 312 314 313 313 318 312 313 314 311 307 305 307 306 307 311 312 315 315 317 316 317 316 319 319
321 321 320 320 320 319 319 319 318 318 317 317 317 316 315 312 311 322 318 323 323 323 307 307 310 313 315 314 311 318 317 313 309 304 306 307 312 310 309 314 318 312 323 319 318 313 308
321 320 320 320 320 319 318 318 318 318 317 317 315 314 313 311 315 314 320 323 324 320 294 309 311 320 317 311 313 313 317 313 306 306 306 304 308 308 307 310 320 312 321 321 317 314 312
320 320 320 320 320 319 318 317 318 317 317 316 314 314 312 316 317 318 322 323 320 305 294 305 311 310 308 312 312 313 312 315 313 308 308 308 313 311 311 316 318 319 320 316 314 311 305
317 318 319 319 319 319 318 317 317 316 316 314 313 311 312 319 320 325 324 318 304 299 307 304 306 308 308 308 309 310 307 306 305 300 301 306 309 312 314 311 318 315 313 307 302 304 304
318 317 318 317 317 318 318 317 317 316 315 313 310 308 315 319 325 325 321 311 299 303 303 307 307 309 304 308 308 308 306 304 309 307 304 301 300 309 314 312 312 311 311 306 298 300 303
317 316 317 316 316 317 317 317 316 315 314 312 309 321 322 325 323 323 314 303 303 305 307 306 306 303 305 308 308 307 307 306 308 310 303 303 301 312 314 315 314 310 307 314 310 307 305
316 316 316 316 315 316 317 317 316 315 313 311 319 324 322 323 325 321 312 301 304 308 309 308 303 306 303 305 304 306 307 310 309 311 312 308 302 309 312 313 313 311 314 306 310 300 297
317 317 315 316 316 316 317 317 316 314 312 311 319 317 322 323 324 316 307 305 305 308 310 307 305 304 305 304 306 305 306 310 311 310 312 310 306 305 310 307 306 306 306 308 309 308 300
317 316 316 315 316 316 317 317 315 313 310 311 320 312 321 325 312 313 308 307 303 307 311 308 308 307 306 307 306 306 305 309 312 312 307 310 306 302 305 311 312 310 307 307 302 303 307
317 316 315 315 315 316 316 316 315 312 311 317 315 318 321 322 307 308 308 307 308 307 307 306 307 308 310 306 303 307 308 312 311 310 309 311 305 299 302 307 311 306 308 309 307 307 305
317 317 315 315 315 315 316 315 314 312 312 315 317 310 314 315 314 310 307 306 305 308 306 307 307 309 308 306 308 305 307 311 311 311 319 314 307 304 298 303 308 307 308 307 306 301 303
316 316 317 317 316 316 316 315 315 313 312 315 316 313 315 307 310 309 309 308 303 303 308 308 308 307 307 305 306 305 308 309 310 313 310 309 303 305 305 307 307 307 308 308 305 307 303
316 315 316 317 317 315 315 315 315 313 312 319 316 316 318 311 311 308 303 305 303 304 304 304 304 308 307 306 308 305 308 309 308 311 311 310 303 305 303 306 308 304 308 309 308 307 307
315 315 316 317 317 317 315 315 316 314 312 324 323 324 318 310 308 306 307 307 305 305 306 305 305 307 308 310 311 312 313 311 312 310 307 306 306 305 300 305 304 301 306 307 309 310 309
315 316 316 317 317 317 317 316 316 316 314 317 324 322 317 308 310 307 308 306 304 306 305 306 305 305 312 318 315 313 312 311 310 310 311 308 307 305 301 303 295 305 312 312 310 315 318
315 315 316 316 316 317 317 317 317 317 315 316 320 321 318 310 311 309 307 306 308 309 305 306 307 310 313 311 307 306 305 306 308 310 309 310 307 302 298 294 302 305 310 308 306 306 316
314 314 315 316 316 316 317 317 317 317 316 315 322 327 322 315 310 313 308 308 307 308 309 309 313 313 311 306 305 301 298 297 298 304 311 309 311 304 302 296 291 304 311 314 312 304 317
314 315 315 316 316 316 316 317 317 316 316 315 318 327 322 316 316 314 309 309 312 309 308 311 310 310 310 304 301 300 301 301 295 300 301 302 305 299 300 298 301 308 312 313 298 306 317
314 315 315 315 315 315 315 316 317 315 317 314 318 329 323 318 318 316 315 313 311 309 306 312 311 309 308 303 303 303 303 304 303 304 303 297 296 300 302 299 295 312 311 303 315 317 318
314 315 315 315 315 315 315 316 317 315 317 315 315 328 327 321 319 321 320 321 317 315 312 313 310 314 311 307 308 307 305 304 303 298 310 300 305 303 302 304 314 316 314 317 318 318 320

GFSGBSN_sfc_thetae_117.txt.gz
Theta_e
327 326 325 324 323 320 319 319 320 320 320 320 320 319 319 319 319 319 319 319 318 318 319 319 319 319 315 309 309 325 343 338 320 310 307 312 314 313 311 320 329 327 331 333 335 333 332
327 326 326 325 322 321 319 319 320 320 319 319 319 319 319 319 319 319 319 319 318 317 318 319 320 319 310 303 323 328 327 325 317 309 307 313 316 317 313 317 325 331 332 331 332 331 331
326 326 326 325 323 320 319 318 319 320 320 319 318 318 318 319 319 319 318 318 317 317 317 319 319 317 310 309 320 323 323 320 317 306 307 316 320 315 314 319 333 332 326 327 328 329 328
325 325 325 325 323 320 320 318 319 319 320 319 319 319 319 318 318 318 317 317 317 318 318 319 319 313 306 322 320 318 318 315 315 308 310 318 321 316 310 329 330 326 324 316 325 327 328
325 324 324 323 321 320 319 319 319 319 320 320 319 319 318 318 317 316 315 315 318 320 321 320 313 309 309 321 312 315 318 311 309 310 311 319 318 310 310 304 315 318 311 314 317 327 325
324 323 323 322 320 319 319 319 319 319 319 319 319 319 318 318 317 315 314 314 319 319 320 320 317 308 315 313 311 314 320 319 309 310 310 311 307 302 302 302 301 309 312 315 315 321 323
321 321 322 320 321 319 320 319 319 319 319 319 319 318 318 317 316 314 312 313 312 311 315 312 311 312 313 317 318 314 319 317 313 308 302 307 299 296 301 306 308 318 317 315 318 323 319
320 320 320 321 320 319 320 320 319 319 319 318 318 318 317 316 315 314 310 309 314 311 305 316 318 313 315 314 311 312 316 309 306 301 305 301 297 305 308 317 317 315 315 314 319 321 319
319 320 320 320 319 319 319 319 319 318 318 318 317 316 315 315 313 310 311 313 318 317 304 312 315 310 310 311 309 309 308 308 303 301 302 298 302 308 306 308 314 314 313 314 315 319 319
320 320 320 319 319 318 318 318 318 318 318 317 317 315 313 311 310 315 312 320 320 317 300 306 305 310 312 311 308 315 311 308 304 299 302 301 307 306 304 303 311 310 320 319 317 313 306
318 318 319 319 319 318 318 317 317 317 317 316 316 314 313 312 309 309 313 318 317 313 292 309 307 317 311 305 310 309 314 309 303 302 299 298 302 303 303 305 317 314 320 318 315 310 310
319 317 317 317 318 318 317 317 316 316 316 316 315 313 312 312 310 313 316 316 315 299 294 304 309 307 305 308 310 311 309 309 309 304 303 301 307 305 305 310 318 323 319 315 314 311 302
318 317 316 316 317 317 317 316 316 316 315 315 313 311 310 316 316 321 320 313 299 295 307 303 304 305 305 306 307 306 304 301 297 293 294 300 302 306 309 311 317 316 309 300 297 301 301
318 316 316 315 315 316 316 317 316 316 315 313 310 309 310 315 317 316 316 305 296 303 301 304 304 307 304 307 306 306 302 298 303 301 295 293 292 304 309 305 310 312 309 300 294 297 302
318 316 316 315 315 315 316 316 315 315 314 312 309 315 315 320 318 315 309 298 301 301 304 304 306 303 302 306 305 303 301 300 302 302 296 294 296 307 310 310 310 306 300 305 302 305 301
318 316 317 315 315 315 316 316 315 315 314 311 312 316 319 326 321 315 306 300 300 305 305 306 300 304 299 302 303 302 303 308 307 309 305 301 295 304 308 309 308 304 308 300 303 295 294
318 316 316 316 315 315 316 316 315 314 312 309 317 311 321 324 320 311 301 303 305 306 307 304 302 303 302 302 303 303 304 309 310 308 306 301 298 300 305 300 299 299 297 298 302 303 297
318 316 315 316 315 315 315 316 314 312 311 313 318 308 323 318 308 309 304 304 302 304 308 306 305 305 304 305 304 303 304 306 311 308 303 304 297 293 298 306 308 303 298 298 291 291 300
316 316 316 316 315 315 315 315 313 312 311 309 312 312 323 315 303 305 306 305 305 305 303 304 303 305 306 301 301 306 308 312 311 307 301 303 298 291 296 302 308 303 302 301 297 294 292
316 315 316 316 317 315 315 314 313 312 312 311 313 308 313 313 312 306 306 305 303 307 303 305 305 305 305 303 304 304 306 310 310 308 323 309 297 294 290 294 301 301 304 305 300 290 293
316 315 315 316 315 315 315 314 313 312 312 311 315 309 314 307 307 306 306 305 304 303 306 306 308 306 303 299 303 304 307 306 310 314 308 301 294 297 299 302 303 303 303 304 301 306 297
315 314 315 315 315 316 315 315 314 313 312 313 311 312 315 312 310 308 302 303 303 302 302 300 302 307 305 302 303 300 304 302 306 307 304 304 297 300 299 304 305 302 306 306 309 308 307
315 315 316 317 317 317 316 315 315 314 312 317 323 323 318 311 309 304 304 306 303 304 306 306 303 302 305 307 309 306 305 305 305 302 302 300 299 297 293 302 302 299 303 305 307 310 308
314 314 314 315 317 318 317 315 316 315 314 313 316 318 315 309 309 307 307 306 305 305 306 306 304 301 307 311 310 307 303 305 308 306 304 301 301 299 293 296 288 303 309 309 308 311 315
313 314 314 314 316 317 317 317 316 316 315 313 315 315 315 309 313 311 309 307 306 305 304 304 307 307 306 302 300 299 301 303 305 306 306 307 301 295 294 293 297 303 306 305 303 307 314
314 314 314 315 316 317 317 317 318 317 314 313 314 318 317 313 311 316 310 310 303 304 306 309 311 309 305 300 298 295 294 298 297 301 306 305 302 298 295 293 289 299 308 311 310 302 316
313 313 315 316 316 316 316 316 317 318 315 313 313 317 319 313 317 316 310 308 312 309 305 311 309 306 306 298 295 297 296 304 294 297 297 296 296 293 294 293 299 309 309 312 298 302 315
313 314 315 315 316 316 316 316 316 317 316 314 312 316 318 316 318 321 318 314 311 308 304 310 308 306 303 299 299 300 300 298 300 303 300 294 294 295 295 292 292 312 312 302 307 313 316
313 314 315 315 315 315 316 316 316 317 316 316 308 321 324 320 318 323 320 318 315 313 308 308 309 311 310 304 304 304 300 300 297 293 304 296 299 298 299 297 310 312 310 310 312 312 313

GFSGBSN_sfc_thetae_120.txt.gz
Theta_e
327 327 326 324 323 321 319 319 320 320 321 320 319 319 320 320 319 319 320 319 319 318 318 318 320 320 312 305 307 319 346 345 327 308 304 304 308 310 308 314 327 327 330 333 334 332 330
325 325 326 325 323 322 320 318 320 320 320 320 320 319 319 319 319 319 319 319 318 318 318 318 320 320 307 298 318 326 322 317 312 305 302 305 310 314 311 311 323 331 329 330 331 328 327
324 324 324 324 322 321 320 318 319 319 320 320 319 319 319 319 319 319 318 318 317 318 318 318 320 317 307 305 321 327 320 317 314 307 302 307 310 310 311 315 332 331 324 327 328 328 324
324 324 323 322 321 320 319 320 319 319 319 320 319 319 319 319 318 318 317 316 316 318 319 319 320 312 301 317 317 315 319 317 316 304 304 308 313 310 309 328 328 325 323 314 324 327 327
323 322 322 321 319 320 319 320 320 319 319 319 319 319 318 318 318 317 316 315 317 320 322 320 309 306 306 325 312 313 315 311 310 307 304 310 308 307 307 311 310 314 308 315 317 327 325
322 322 320 321 320 320 320 320 319 319 319 319 318 318 318 318 317 316 314 315 316 317 319 319 317 304 310 312 309 311 312 313 305 304 305 305 303 300 299 297 293 307 310 314 313 320 322
321 321 321 320 320 319 319 320 319 319 319 319 318 317 316 316 316 314 309 307 306 306 309 308 307 309 313 313 314 311 314 314 305 303 297 302 297 294 299 300 308 317 315 313 317 322 317
320 320 320 320 320 319 318 317 318 319 319 318 318 316 314 314 314 312 308 303 307 310 302 312 315 314 317 313 309 311 313 307 304 299 301 299 296 301 304 305 310 316 314 314 318 321 319
319 319 319 319 319 318 318 317 316 317 318 317 317 315 314 313 313 308 305 309 314 311 300 307 312 312 309 307 307 307 310 306 302 298 299 296 300 307 305 302 311 313 312 312 313 318 318
318 318 317 317 318 318 317 317 316 316 317 317 317 316 313 312 307 309 306 311 312 311 296 303 301 308 308 307 304 313 309 305 302 298 299 298 304 304 304 302 312 305 320 318 316 312 305
319 317 316 316 316 317 317 317 316 316 315 316 316 315 312 311 303 304 307 307 311 307 288 308 303 313 307 302 304 305 310 305 299 299 296 296 299 300 300 302 316 313 321 318 316 310 309
319 317 316 316 315 315 316 316 315 315 315 316 315 314 311 308 306 308 311 311 307 296 291 303 306 304 302 303 305 308 306 307 306 301 299 299 303 301 303 313 318 321 316 314 314 309 300
318 317 316 315 315 315 315 316 315 315 315 315 313 311 309 312 308 314 310 307 295 291 304 300 299 301 300 303 304 303 302 298 296 291 291 297 299 308 322 315 319 316 308 300 299 298 298
318 317 316 315 315 314 315 316 316 315 315 313 310 308 307 311 310 311 307 301 291 301 296 303 303 304 301 305 304 303 299 296 300 297 293 291 290 302 314 314 309 309 304 298 292 296 300
318 317 316 315 315 314 314 315 315 315 314 312 308 304 305 310 311 309 303 293 295 294 299 300 302 298 300 303 303 301 297 297 301 299 294 291 294 305 307 312 313 306 303 307 299 301 299
318 317 315 315 315 315 314 314 315 314 314 311 306 307 308 315 315 307 300 295 298 299 301 301 295 299 295 300 299 301 300 305 303 305 300 296 293 299 305 308 313 305 307 299 300 292 293
318 317 317 316 315 315 315 315 315 313 312 310 309 303 310 316 312 303 295 297 302 302 303 299 297 296 297 299 302 302 302 307 307 305 303 297 295 297 300 297 298 297 295 294 298 298 295
318 317 315 316 316 315 315 314 314 312 310 308 306 299 313 310 300 298 295 301 303 299 302 300 301 300 298 302 300 300 301 305 310 305 299 300 295 291 295 302 306 298 295 292 289 288 296
316 315 315 315 316 316 315 314 313 311 311 305 300 304 312 309 295 295 300 303 301 299 298 298 300 300 300 296 296 302 304 311 310 304 298 299 294 290 293 298 302 301 301 298 293 289 288
316 315 315 314 315 315 315 314 312 311 311 303 303 300 305 302 301 300 297 299 297 304 300 300 299 300 300 299 300 300 303 308 310 307 321 306 292 294 289 294 299 298 301 302 297 294 295
315 315 315 316 316 316 315 314 313 312 311 306 304 301 302 301 304 303 297 299 300 298 301 299 301 302 298 295 298 299 302 303 308 314 306 298 292 295 296 303 304 304 304 306 302 301 299
314 314 315 316 316 317 316 314 314 312 311 305 299 304 308 305 304 298 298 294 297 297 297 295 295 300 302 297 296 295 297 297 299 304 301 299 292 296 295 302 303 301 305 307 307 307 306
314 314 314 314 315 316 317 315 314 312 309 304 309 312 309 304 303 299 296 298 299 301 302 301 299 297 299 300 302 301 301 298 297 298 297 296 294 293 290 299 299 296 300 305 307 312 310
314 314 314 315 314 315 317 317 314 315 312 305 305 305 305 303 305 306 309 304 302 302 300 302 298 295 299 300 301 300 301 303 304 302 298 295 294 293 289 291 287 298 305 308 308 310 314
314 314 314 314 315 317 317 317 316 315 314 309 306 304 305 301 309 310 310 306 300 299 300 300 302 301 299 296 294 295 297 296 299 301 301 298 295 291 290 288 294 302 304 304 302 304 316
313 314 313 315 316 316 317 317 317 316 315 311 306 308 305 306 303 313 309 308 298 296 300 302 303 302 299 293 293 288 290 294 293 296 300 297 297 296 290 288 287 297 307 309 308 298 315
313 313 314 315 316 316 316 317 316 317 316 311 307 309 306 307 308 311 307 306 304 299 299 301 301 298 298 291 290 291 292 298 290 292 292 291 291 290 291 290 296 305 308 309 294 296 312
313 313 313 314 315 316 316 316 316 316 317 311 307 310 307 309 310 316 317 309 305 302 300 303 301 302 298 293 292 294 294 295 295 296 294 290 289 290 291 288 287 309 309 300 303 308 312
313 313 313 314 315 315 316 316 316 316 316 315 303 310 312 309 310 316 316 317 312 308 303 300 301 302 303 296 296 297 295 295 291 288 298 293 295 294 294 293 303 308 307 308 309 309 314

GFSGBSN_sfc_thetae_123.txt.gz
Theta_e
325 325 325 324 322 321 319 318 320 320 320 320 320 320 320 319 319 319 319 318 319 318 317 317 319 320 310 302 303 315 349 339 333 308 305 303 307 309 306 310 322 324 330 332 332 329 330
324 324 324 323 322 320 319 319 320 319 319 320 320 319 319 319 319 319 319 318 317 316 317 318 319 320 305 294 311 324 333 327 315 303 301 304 308 311 309 309 320 330 329 328 328 328 329
323 323 322 321 320 321 319 319 319 319 319 319 319 319 319 319 319 319 318 318 317 316 317 318 319 317 305 301 319 320 317 313 308 303 300 302 308 307 309 311 331 329 323 325 327 326 324
322 322 321 320 320 320 320 319 319 319 319 319 319 318 318 319 319 318 317 316 317 317 318 319 320 310 300 313 316 315 317 316 313 306 303 306 310 308 307 324 324 322 321 313 324 326 326
320 321 321 321 321 318 320 320 319 319 319 319 318 318 318 317 317 316 316 315 317 318 321 320 308 305 304 323 315 317 316 312 310 306 303 308 307 303 306 311 307 312 306 314 317 324 322
321 319 321 321 321 319 317 317 318 319 319 318 318 318 315 314 313 313 313 314 318 317 319 319 316 303 307 310 312 309 313 310 305 303 303 301 300 298 297 295 291 304 309 314 313 318 318
320 319 318 318 319 318 318 317 317 316 317 318 318 317 314 314 313 312 309 305 302 302 310 304 304 307 311 313 312 308 310 309 304 301 295 300 296 294 298 299 305 313 313 313 316 319 315
319 318 318 318 319 317 318 317 317 316 315 317 317 317 315 313 312 312 308 300 303 307 300 309 312 312 315 313 307 308 313 306 300 295 298 296 294 300 302 302 310 314 313 313 317 320 318
319 317 316 316 316 317 316 316 317 316 315 315 316 316 314 313 312 307 304 306 309 309 299 305 310 310 310 308 305 305 308 306 300 297 297 294 299 304 303 301 312 310 310 312 313 317 318
318 317 316 316 315 315 316 316 316 316 315 314 314 315 314 311 305 306 304 307 308 308 295 301 301 308 307 306 302 311 309 304 300 298 297 296 302 303 300 300 308 300 318 317 315 312 305
318 318 316 315 315 315 315 316 315 315 315 315 315 314 312 311 302 303 304 307 308 305 286 305 303 310 304 302 302 305 307 304 298 297 296 295 297 298 298 300 310 311 319 317 315 310 310
318 318 317 316 315 315 314 315 315 316 315 315 315 313 312 306 306 306 311 309 306 295 289 302 303 302 300 301 303 305 304 304 304 299 298 298 301 299 300 309 314 320 313 313 312 308 296
318 317 316 315 315 315 314 314 315 315 315 314 313 311 309 310 306 310 308 305 295 290 302 298 297 299 298 299 301 301 300 297 294 291 292 298 297 315 320 314 317 312 303 296 296 297 294
317 317 316 315 316 315 315 315 315 315 314 313 310 308 307 309 307 308 306 301 291 299 294 299 301 300 298 301 301 300 297 294 299 297 293 292 290 312 317 313 310 308 303 298 291 293 299
317 317 316 315 316 315 315 314 314 314 313 312 308 304 304 308 309 305 303 293 294 294 297 298 299 297 297 300 300 299 296 296 298 297 291 292 295 302 316 314 314 308 301 304 300 299 296
318 316 316 316 316 316 315 314 314 314 313 311 305 306 305 312 311 306 298 294 297 301 299 299 293 296 293 297 298 299 299 304 302 303 297 295 292 298 304 314 313 307 309 298 300 293 290
318 317 316 316 316 316 315 314 314 313 312 310 306 302 308 312 309 302 294 294 302 305 301 297 294 294 295 296 298 298 301 305 306 304 301 296 294 295 299 295 302 296 294 294 297 297 293
318 316 316 315 315 314 315 314 313 311 310 305 301 296 309 308 301 294 293 299 302 298 300 298 299 297 296 300 298 300 300 303 309 304 299 299 293 291 294 300 304 300 295 291 289 287 294
317 315 315 314 315 315 315 314 312 311 311 304 297 299 310 307 294 293 297 301 303 297 296 297 297 298 299 295 293 300 302 309 308 304 298 298 293 290 293 298 303 299 299 294 290 288 289
317 315 315 315 316 316 316 314 312 311 311 302 300 296 302 301 298 297 296 298 296 301 299 299 299 299 298 298 298 298 300 306 309 309 315 304 292 294 287 291 296 299 303 303 295 293 292
317 315 314 314 315 316 316 315 313 311 311 305 300 297 300 298 301 302 297 298 297 295 298 297 297 302 296 293 294 295 298 301 306 311 305 298 292 296 294 302 304 304 303 305 300 298 296
317 314 314 314 315 315 316 316 314 312 310 302 295 301 306 303 303 300 295 295 296 295 295 294 296 303 301 295 295 293 295 294 295 302 299 296 291 295 295 302 303 301 304 306 306 308 308
315 314 314 314 314 315 316 316 315 312 308 300 304 306 307 302 302 299 300 302 297 298 299 299 299 299 297 297 301 298 300 298 299 298 295 295 292 291 288 296 297 294 299 304 306 309 308
314 314 314 314 314 316 317 317 315 314 311 307 301 301 302 301 303 304 308 307 300 300 299 300 297 296 299 299 299 300 302 299 300 300 295 294 292 290 288 289 285 297 304 308 308 310 312
314 313 314 314 315 316 317 317 317 315 314 309 306 300 301 299 305 307 308 307 303 298 298 299 300 299 299 295 292 294 294 294 297 299 298 295 293 290 289 286 293 300 303 302 301 302 312
314 314 314 313 314 316 317 317 317 315 315 310 307 305 302 302 301 310 307 307 301 294 297 301 302 298 297 290 291 287 288 291 291 295 294 295 294 292 289 287 285 294 305 308 306 296 310
313 313 313 313 313 314 317 317 317 316 315 312 307 307 302 303 307 308 303 306 306 299 297 300 300 298 296 289 288 290 291 296 289 291 291 289 291 289 290 288 294 302 305 307 293 294 308
313 313 313 313 313 315 316 316 317 316 316 313 306 309 305 303 307 313 313 309 306 300 298 301 301 301 295 291 290 292 292 294 292 294 292 289 289 288 289 286 286 307 307 298 301 305 309
312 313 313 313 314 315 315 316 316 316 316 315 304 308 310 303 305 314 317 318 314 311 304 299 301 300 300 295 294 295 293 294 291 287 296 291 294 292 293 292 300 305 304 306 307 311 311